     2.10           OBSERVATION DATA    G (GPS)             RINEX VERSION / TYPE
teqc 2005May6 SOPAC 20050707 00:18:59UTC                    PGM / RUN BY / DATE
Linux 2.4.20-8|Pentium IV|gcc|Linux|486/DX+                 COMMENT
BIT 2 OF LLI FLAGS DATA COLLECTED UNDER A/S CONDITION       COMMENT
18 M                                                        MARKER NAME
18MM                                                        MARKER NUMBER
Gary Cupler                                                 OBSERVER / AGENCY
0220308780 TRIMBLE 5700 2.01                                REC # / TYPE / VERS
12471537 TRM41249.00 NONE                                   ANT # / TYPE
 -2504822.0000 -4156484.0000  4127590.0000                  APPROX POSITION XYZ
        2.0000        0.0000        0.0000                  ANTENNA: DELTA H/E/N
     1     1                                                WAVELENGTH FACT L1/2
     6    L1    L2    C1    P2    P1    D1                  # / TYPES OF OBSERV
    15.0000                                                 INTERVAL
Northern California Height Modernization 2004               COMMENT
                                                            COMMENT
SOPAC - Scripps Orbit and Permanent Array Center            COMMENT
IGPP - Institute of Geophysics and Planetary Physics        COMMENT
SIO - Scripps Institution of Oceanography                   COMMENT
UCSD - University of California, San Diego                  COMMENT
                                                            COMMENT
email: archive@gpsmail.ucsd.edu                             COMMENT
ftp://garner.ucsd.edu                                       COMMENT
http://sopac.ucsd.edu                                       COMMENT
                                                            COMMENT
                                                            COMMENT
Approximate Lat, Lon : 40.573, -121.074                     COMMENT
                                                            COMMENT
SNR is mapped to RINEX snr flag value [0-9]                 COMMENT
L1 & L2: 2-19 dBHz = 1, 20-27 dBHz = 2, 28-31 dBHz = 3      COMMENT
32-35 dBHz = 4, 36-38 dBHz = 5, 39-41 dBHz = 6              COMMENT
42-44 dBHz = 7, 45-48 dBHz = 8, >= 49 dBHz = 9              COMMENT
  2004     9     2    14    56   30.0000000     GPS         TIME OF FIRST OBS
                                                            END OF HEADER
 04  9  2 14 56 30.0000000  0  7G 3G11G14G15G19G22G25
    166197.82456    101280.93852  23985310.4144   23985308.9494

    -75098.76658    -56845.66453  22938932.8054   22938928.5864

     85405.96159     54159.30956  20233067.4694   20233064.0354

    181153.53158    119748.36755  21576016.6094   21576014.4924

    122837.38758     79864.20354  22478509.2274   22478504.0664

    129660.68459     84530.90655  21694527.0084   21694522.1644

    -90819.82457    -60891.27052  23222761.4924   23222758.7854

 04  9  2 14 56 45.0000000  0  7G 3G11G14G15G19G22G25
    228083.00046    149503.11742  23997086.8204   23997085.5234
     -4125.6784
   -100719.58248    -76809.95343  22934057.3754   22934053.7504
      1708.0544
    114620.21149     76923.65246  20238626.7974   20238623.6954
     -1947.6174
    243050.72348    167979.92244  21587795.4534   21587793.2624
     -4126.4794
    164844.44148    112596.93844  22486502.6174   22486497.5204
     -2800.4704
    173859.92649    118971.85545  21702937.8754   21702933.2234
     -2946.6164
   -123315.92647    -86212.87942  23216577.1484   23216575.1764
      2166.4074
 04  9  2 14 57  0.0000000  0  7G 3G11G14G15G19G22G25
    290026.87946    197771.03142  24008874.4924   24008872.9024
     -4129.5924
   -126230.57448    -96688.64843  22929202.5084   22929198.7034
      1700.7334
    143988.57849     99808.08646  20244215.5164   20244211.9144
     -1957.8914
    305080.11348    216314.49244  21599598.8364   21599597.1374
     -4135.2934
    207007.30148    145451.10544  22494526.0004   22494521.3284
     -2810.8574
    218144.28549    153479.12945  21711364.8914   21711360.2734
     -2952.2914
   -155734.78947   -111474.36342  23210408.5164   23210405.6334
      2161.2584
 04  9  2 14 57 15.0000000  0  7G 3G11G14G15G19G22G25
    352043.14546    246095.35942  24020674.9304   24020673.7274
     -4134.4184
   -151617.37948   -116470.59442  22924371.7734   22924367.5314
      1692.4544
    173525.02048    122823.48846  20249835.9694   20249832.9574
     -1969.0964
    367255.55148    264762.85544  21611430.8444   21611428.7934
     -4145.0294
    249339.81648    178437.44944  22502581.6484   22502577.2774
     -2822.1684
    262527.78149    188063.64845  21719811.0704   21719806.3284
     -2958.9004
   -188061.93447   -136664.34842  23204256.5634   23204254.2734
      2155.1434
 04  9  2 14 57 30.0000000  0  7G 3G11G14G15G19G22G25
    414137.87945    294480.85242  24032491.8984   24032490.8014
     -4139.6494
   -176873.31648   -136150.54742  22919565.4774   22919561.6884
      1683.7294
    203235.79349    145974.72747  20255489.8364   20255486.1764
     -1980.7184
    429583.20348    313329.84444  21623291.0704   21623288.9414
     -4155.1774
    291848.07448    211560.74644  22510670.8754   22510666.3164
     -2833.8844
    307016.83649    222730.42645  21728276.9844   21728272.0234
     -2965.9374
   -220290.54347   -161777.55542  23198123.8204   23198121.3984
      2148.5744
 04  9  2 14 57 45.0000000  0  7G 3G11G14G15G19G22G25
    476308.34445    342925.32842  24044322.2344   24044321.5634
     -4144.6984
   -202000.62148   -155730.27043  22914783.9614   22914780.3524
      1675.1544
    233118.23448    169259.73446  20261175.9924   20261172.7424
     -1992.1634
    492060.53948    362013.45744  21635180.0004   21635178.4964
     -4165.1564
    334529.36748    244818.87544  22518792.9924   22518788.1484
     -2845.4204
    351609.06348    257477.60245  21736762.3754   21736757.9694
     -2972.8154
   -252422.69547   -186815.57442  23192008.9454   23192007.2034
      2142.1434
 04  9  2 14 58  0.0000000  0  7G 3G11G14G15G19G22G25
    538552.72346    391427.40242  24056167.6804   24056166.2664
     -4149.6254
   -227000.18448   -175210.45743  22910026.7504   22910023.0314
      1666.6384
    263170.77348    192677.29347  20266894.8914   20266891.3754
     -2003.5034
    554685.92248    410812.43444  21647097.7274   21647095.5314
     -4175.0264
    377382.15648    278210.63344  22526947.4454   22526942.7074
     -2856.8534
    396303.00449    292304.03145  21745267.3984   21745263.1804
     -2979.5964
   -284459.38747   -211779.21542  23185912.6254   23185910.6134
      2135.7794
 04  9  2 14 58 15.0000000  0  7G 3G11G14G15G19G22G25
    600867.22747    439984.15642  24068025.8204   24068024.0164
     -4154.3004
   -251875.25448   -194593.62943  22905292.8914   22905289.8984
      1658.3384
    293389.78948    216224.58246  20272645.5394   20272642.0164
     -2014.6014
    617455.64148    459723.89144  21659042.5634   21659040.4614
     -4184.6484
    420402.46148    311732.93444  22535133.8914   22535129.7734
     -2868.0204
    441095.20348    327207.02745  21753791.4144   21753787.1454
     -2986.1474
   -316403.68047   -236670.87943  23179834.1024   23179832.1564
      2129.6204
 04  9  2 14 58 30.0000000  0  8G 1G 3G11G14G15G19G22G25
    -65273.98856    -50844.09052  23924642.3054   23924641.6024

    663250.78946    488594.70342  24079896.5864   24079895.0314
     -4158.9044
   -276626.31248   -213880.16843  22900583.0864   22900579.7114
      1650.0714
    323774.19149    239900.72746  20278427.4614   20278424.0044
     -2025.6274
    680368.57048    508746.93044  21671014.3914   21671012.2344
     -4194.1954
    463589.27348    345384.97744  22543352.5554   22543347.6174
     -2879.1214
    485984.73049    362185.85945  21762333.7034   21762328.7774
     -2992.6354
   -348256.30147   -261491.07443  23173772.6804   23173771.0164
      2123.5084
 04  9  2 14 58 45.0000000  0  8G 1G 3G11G14G15G19G22G25
    -96917.91046    -75501.68742  23918620.4924   23918619.6914
      2109.5954
    725696.55146    537253.69942  24091779.6024   24091777.9104
     -4163.0514
   -301259.63748   -233074.96943  22895895.6024   22895891.8164
      1642.2224
    354317.34849    263700.58246  20284239.4534   20284235.9694
     -2036.2104
    743418.10548    557876.42244  21683012.1484   21683010.3524
     -4203.3024
    506935.93048    379161.56644  22551600.7584   22551596.1374
     -2889.7774
    530965.18849    397235.55545  21770892.7034   21770888.1134
     -2998.6974
   -380023.08247   -286244.42642  23167727.7584   23167725.4654
      2117.7854
 04  9  2 14 59  0.0000000  0  8G 1G 3G11G14G15G19G22G25
   -128473.65246   -100090.56642  23912615.7584   23912615.1724
      2103.7164
    788199.51646    585957.28142  24103674.3204   24103672.1414
     -4166.8644
   -325779.47748   -252181.34843  22891229.5004   22891226.0044
      1634.6564
    385014.49648    287620.42646  20290081.1024   20290077.7894
     -2046.4774
    806599.39849    607108.57444  21695035.2114   21695033.5124
     -4212.0864
    550437.51648    413058.87944  22559878.4924   22559874.2934
     -2900.1064
    576031.98849    432352.52045  21779468.6484   21779464.2234
     -3004.4534
   -411708.50047   -310934.37143  23161698.1414   23161695.6644
      2112.3614
 04  9  2 14 59 15.0000000  0  8G 1G 3G11G14G15G19G22G25
   -159943.05946   -124612.18442  23906627.1334   23906627.1994
      2097.9604
    850757.39847    634703.65642  24115578.5864   24115576.1844
     -4170.5264
   -350187.52048   -271200.59443  22886584.6254   22886581.2814
      1627.2034
    415863.40249    311658.52747  20295951.6564   20295947.9224
     -2056.5944
    869910.34449    656441.76244  21707082.8134   21707081.0864
     -4220.7304
    594091.69148    447075.09444  22568185.9774   22568181.3284
     -2910.2784
    621183.14549    467535.21945  21788060.8054   21788056.5164
     -3010.0774
   -443314.06647   -335562.05543  23155683.6724   23155681.8834
      2107.0384
 04  9  2 14 59 30.0000000  0  8G 1G 3G11G14G15G19G22G25
   -191329.48446   -149069.12542  23900654.3754   23900653.5744
      2092.4284
    913366.27046    683489.75042  24127491.8914   24127491.0594
     -4173.9254
   -374486.98848   -290135.25443  22881960.9304   22881957.3984
      1619.9654
    446860.45749    335812.06347  20301850.0634   20301846.4844
     -2066.4704
    933347.21548    705873.07044  21719154.3674   21719152.5984
     -4229.1254
    637894.64848    481207.23844  22576521.4694   22576517.1024
     -2920.1974
    666415.05149    502780.84445  21796668.1644   21796663.8754
     -3015.4604
   -474842.85247   -360129.94542  23149683.6564   23149681.6214
      2101.9194
 04  9  2 14 59 45.0000000  0  8G 1G 3G11G14G15G19G22G25
   -222634.61746   -173462.70742  23894697.1024   23894696.9264
      2087.0094
    976023.86346    732313.82042  24139415.3134   24139414.2894
     -4177.1734
   -398679.47748   -308986.54743  22877357.4454   22877353.8794
      1612.8334
    478003.43448    360079.31346  20307776.2274   20307772.6524
     -2076.1984
    996907.87549    755400.84444  21731249.5394   21731247.8674
     -4237.3774
    681844.14148    515453.57844  22584884.2424   22584880.3404
     -2929.9664
    711725.83249    538087.92645  21805290.5084   21805286.2934
     -3020.7194
   -506296.49647   -384639.26643  23143698.5944   23143696.4064
      2096.9104
 04  9  2 15  0  0.0000000  0  8G 1G 3G11G14G15G19G22G25
   -253861.43746   -197795.32842  23888755.4224   23888753.2584
      2081.7884
   1038726.80945    781173.22342  24151347.2114   24151346.6844
     -4180.1964
   -422767.84448   -327756.70743  22872773.1724   22872769.8484
      1605.8914
    509289.03548    384457.69546  20313729.9774   20313726.4224
     -2085.7074
   1060588.95748    805022.44144  21743367.8524   21743366.0394
     -4245.4054
    725936.72748    549811.41044  22593275.1334   22593270.7424
     -2939.5064
    757112.26648    573453.96145  21813927.2504   21813922.6454
     -3025.7624
   -537677.81647   -409092.24243  23137726.6564   23137725.5274
      2092.0884
 04  9  2 15  0 15.0000000  0  8G 1G 3G11G14G15G19G22G25
   -285011.68046   -222068.22342  23882827.8444   23882826.1294
      2076.6834
   1101472.85946    830066.21142  24163287.7194   24163286.8284
     -4183.0704
   -446753.68448   -346446.98043  22868209.4144   22868205.6804
      1599.0564
    540715.20348    408945.60947  20319709.8444   20319706.4304
     -2095.0784
   1124388.32848    854736.21544  21755508.2974   21755506.7934
     -4253.2914
    770170.23048    584279.04744  22601692.6094   22601687.9924
     -2948.9004
    802572.54748    608877.53945  21822578.1254   21822573.6254
     -3030.6854
   -568988.35247   -433490.03543  23131768.2584   23131766.9574
      2087.3694
 04  9  2 15  0 30.0000000  0  8G 1G 3G11G14G15G19G22G25
   -316085.65246   -246281.76642  23876913.9304   23876912.7114
      2071.5984
   1164260.91446    878991.91842  24175235.8134   24175234.8014
     -4185.8704
   -470637.34448   -365057.63743  22863664.1644   22863660.3874
      1592.2444
    572281.23449    433542.51246  20325717.0784   20325713.2194
     -2104.4024
   1188305.09849    904541.46544  21767671.1884   21767669.8554
     -4261.1184
    814543.88348    618855.89544  22610137.0864   22610132.1914
     -2958.2434
    848106.08649    644358.19545  21831242.8834   21831238.0744
     -3035.5694
   -600228.28947   -457832.84842  23125823.9224   23125821.6134
      2082.6624
 04  9  2 15  0 45.0000000  0  8G 1G 3G11G14G15G19G22G25
   -347085.36747   -270437.36742  23871016.0084   23871013.8524
      2066.6484
   1227088.66046    927948.59442  24187191.7034   24187190.3874
     -4188.5164
   -494420.45748   -383589.93043  22859138.5234   22859134.8134
      1585.5414
    603984.77749    458246.55947  20331749.8204   20331746.4414
     -2113.5704
   1252337.05948    954436.47344  21779856.5554   21779854.3794
     -4268.7974
    859055.26248    653540.06344  22618606.8754   22618602.3204
     -2967.4254
    893710.73049    679894.27345  21839920.7194   21839916.4304
     -3040.3104
   -631399.34447   -482121.95743  23119892.3594   23119890.6024
      2078.0704
 04  9  2 15  1  0.0000000  0  8G 1G 3G11G14G15G19G22G25
   -378013.91846   -294537.53142  23865129.8754   23865128.2584
      2061.9034
   1289952.41046    976933.29742  24199153.5084   24199153.5394
     -4190.9174
   -518106.05548   -402046.24643  22854631.0704   22854627.5864
      1579.0404
    635822.37549    483055.07047  20337808.4224   20337804.9774
     -2122.5074
   1316480.65649   1004418.47344  21792062.6954   21792060.7304
     -4276.2404
    903700.80948    688328.77744  22627102.7504   22627098.0904
     -2976.3704
    939383.25849    715483.22745  21848612.5784   21848607.5594
     -3044.8354
   -662504.51647   -506359.75843  23113973.3284   23113971.1564
      2073.6784
 04  9  2 15  1 15.0000000  0  8G 1G 3G11G14G15G19G22G25
   -408874.30946   -318584.61742  23859257.6254   23859255.7814
      2057.3594
   1352848.66447   1025943.31642  24211123.2194   24211121.2504
     -4193.0844
   -541697.19548   -420428.96943  22850142.0634   22850138.5594
      1572.7434
    667790.52049    507965.30547  20343891.9064   20343888.3754
     -2131.2104
   1380732.45748   1054484.78944  21804289.3754   21804287.1994
     -4283.4534
    948476.89148    723219.20344  22635623.1414   22635618.6454
     -2985.0724
    985120.32849    751122.49645  21857315.6254   21857310.8134
     -3049.1384
   -693546.52347   -530548.31243  23108066.0474   23108064.3834
      2069.4674
 04  9  2 15  1 30.0000000  0  8G 1G 3G11G14G15G19G22G25
   -439667.32047   -342579.18042  23853397.9454   23853396.2274
      2052.8674
   1415776.21946   1074977.75442  24223097.7664   24223096.5824
     -4195.1704
   -565194.30948   -438738.41043  22845670.6564   22845666.8204
      1566.4744
    699888.21549    532976.49647  20349999.7584   20349995.9774
     -2139.8464
   1445091.36349   1104634.55944  21816536.6724   21816534.3954
     -4290.5944
    993382.37547    758210.46944  22644168.6804   22644163.9344
     -2993.6994
   1030921.12948    786811.41045  21866031.4384   21866026.5984
     -3053.3874
   -724525.80147   -554688.01643  23102170.3054   23102168.6414
      2065.2854
 04  9  2 15  1 45.0000000  0  8G 1G 3G11G14G15G19G22G25
   -470393.20346   -366521.43742  23847550.7664   23847549.6994
      2048.3924
   1478734.19546   1124035.88742  24235078.8364   24235076.9414
     -4197.1984
   -588597.60948   -456974.75043  22841217.3364   22841213.6054
      1560.2204
    732114.84049    558088.14146  20356132.3754   20356128.7854
     -2148.4424
   1509556.71148   1154867.27744  21828803.7814   21828801.7464
     -4297.6904
   1038416.50846    793301.96944  22652738.8444   22652733.7734
     -3002.2764
   1076784.95748    822549.44945  21874759.1724   21874754.0744
     -3057.5894
   -755442.59447   -578779.02043  23096287.6564   23096285.7074
      2061.1204
 04  9  2 15  2  0.0000000  0  8G 1G 3G11G14G15G19G22G25
   -501052.56247   -390411.87142  23841716.7114   23841715.2814
      2043.9574
   1541721.41045   1173116.78942  24247064.1484   24247063.1454
     -4199.1484
   -611907.54748   -475138.34043  22836781.5784   22836777.6374
      1553.9964
    764469.38749    583299.47346  20362288.9694   20362285.4104
     -2156.9704
   1574127.51249   1205182.16044  21841091.1254   21841089.4384
     -4304.7204
   1083578.25846    828492.92644  22661331.9924   22661327.7854
     -3010.7834
   1122711.29748    858336.19145  21883498.5944   21883493.7304
     -3061.7564
   -786297.45347   -602821.73443  23090415.8914   23090413.7664
      2056.9914
 04  9  2 15  2 15.0000000  0  8G 1G 3G11G14G15G19G22G25
   -531647.35547   -414251.96142  23835894.8284   23835893.5984
      2039.6534
   1604735.53546   1222218.69142  24259054.8134   24259053.9144
     -4200.9424
   -635125.94148   -493230.60943  22832363.1884   22832359.3984
      1547.8934
    796949.49649    608608.64146  20368470.1564   20368466.3674
     -2165.3414
   1638801.35249   1255577.32844  21853398.5474   21853396.5984
     -4311.5894
   1128865.16046    863781.39844  22669950.0234   22669945.6724
     -3019.1274
   1168697.82448    894169.83645  21892249.8444   21892244.5004
     -3065.7684
   -817092.05147   -626817.53142  23084555.8524   23084554.2384
      2052.9734
 04  9  2 15  2 30.0000000  0  8G 1G 3G11G14G15G19G22G25
   -562178.55547   -438042.50842  23830084.7894   23830083.5394
      2035.4134
   1667774.95746   1271340.27342  24271051.1644   24271050.1174
     -4202.6284
   -658253.79748   -511252.30943  22827961.7114   22827958.5124
      1541.8574
    829553.82449    634014.59847  20374674.1804   20374670.4964
     -2173.6224
   1703576.84448   1306051.72344  21865724.8834   21865722.8364
     -4318.3664
   1174275.72347    899166.21544  22678592.2194   22678587.5474
     -3027.3714
   1214743.45349    930049.53145  21901011.6644   21901006.9654
     -3069.7094
   -847827.11748   -650766.90643  23078706.9224   23078705.3954
      2049.0044
 04  9  2 15  2 45.0000000  0  8G 1G 3G11G14G15G19G22G25
   -592647.05547   -461784.22742  23824286.9064   23824285.3594
      2031.2334
   1730838.31646   1320480.50842  24283052.5004   24283051.2114
     -4204.2244
   -681291.89148   -529204.07443  22823577.8674   22823574.3834
      1535.8734
    862280.92649    659516.23047  20380902.1094   20380898.3874
     -2181.8074
   1768452.68048   1356604.30944  21878069.8594   21878068.1994
     -4325.0564
   1219808.55148    934646.32844  22687256.1254   22687251.6914
     -3035.5224
   1260847.14149    965974.46945  21909785.0704   21909780.0274
     -3073.5794
   -878503.44548   -674670.52343  23072870.0394   23072868.2344
      2045.0894
 04  9  2 15  3  0.0000000  0  7G 1G11G14G15G19G22G25
   -623054.37147   -485478.23842  23818500.8444   23818499.6954
      2027.1544
   -704241.50448   -547086.89143  22819210.9224   22819207.5354
      1529.9744
    895129.15649    685112.25047  20387152.6884   20387149.5044
     -2189.8824
   1833427.02349   1407233.64844  21890434.3444   21890432.5864
     -4331.6234
   1265461.76248    970220.23444  22695944.1804   22695939.2734
     -3043.5474
   1307007.28149   1001943.40245  21918568.9614   21918564.2114
     -3077.3434
   -909122.35948   -698529.41043  23067043.1174   23067041.7234
      2041.2614
 04  9  2 15  3 15.0000000  0  7G 1G11G14G15G19G22G25
   -653399.93447   -509124.14842  23812725.7894   23812724.2464
      2023.0374
   -727101.99248   -564900.25843  22814860.6484   22814857.2384
      1524.0334
    928098.64149    710802.75446  20393426.6484   20393423.1214
     -2197.9664
   1898499.93848   1457939.79744  21902817.1024   21902815.6884
     -4338.1944
   1311235.34848   1005887.92644  22704654.7194   22704649.7894
     -3051.5724
   1353224.06349   1037956.45745  21927363.7734   21927359.0554
     -3081.1194
   -939683.05148   -722342.91443  23061227.5004   23061225.7074
      2037.3794
 04  9  2 15  3 30.0000000  0  7G 1G11G14G15G19G22G25
   -683683.11747   -532721.45342  23806962.9144   23806961.3674
      2018.8794
   -749872.43048   -582643.45343  22810527.6094   22810523.6884
      1518.0294
    961189.74249    736588.02046  20399723.5164   20399720.2774
     -2206.0734
   1963671.83649   1508723.07044  21915219.4924   21915217.2194
     -4344.7934
   1357129.46148   1041649.55144  22713388.3134   22713382.9844
     -3059.6084
   1399498.08649   1074014.13345  21936169.5234   21936164.7774
     -3084.9354
   -970184.83247   -746110.51243  23055423.2584   23055421.9144
      2033.4524
 04  9  2 15  3 45.0000000  0  7G 1G11G14G15G19G22G25
   -713905.83646   -556271.62142  23801211.7584   23801210.7114
      2014.8484
   -772554.74648   -600318.00443  22806211.4064   22806207.6954
      1512.1544
    994400.05149    762466.17246  20406043.3444   20406039.7974
     -2214.0214
   2028940.32048   1559581.59044  21927639.5634   21927637.4144
     -4351.2324
   1403141.75848   1077503.27344  22722143.3524   22722138.8794
     -3067.4864
   1445827.15249   1110114.68845  21944985.7664   21944980.6294
     -3088.6044
  -1000629.46548   -769833.57443  23049630.0554   23049627.9104
      2029.6424
 04  9  2 15  4  0.0000000  0  7G 1G11G14G15G19G22G25
   -744067.47346   -579774.19142  23795472.6484   23795471.3244
      2010.7764
   -795148.36348   -617923.40243  22801911.8834   22801908.2034
      1506.2414
   1027729.77349    788437.37546  20412385.9144   20412382.3244
     -2221.9824
   2094305.55148   1610515.51644  21940078.3134   21940076.1884
     -4357.6824
   1449272.32848   1113449.14544  22730922.0004   22730916.7584
     -3075.3714
   1492211.62549   1146258.42245  21953812.3134   21953807.4734
     -3092.2984
  -1031016.18047   -793511.53943  23043847.6024   23043846.0354
      2025.7814
 04  9  2 15  4 15.0000000  0  7G 1G11G14G15G19G22G25
   -774167.93046   -603229.07442  23789744.8754   23789742.8014
      2006.6974
   -817652.76248   -635459.30943  22797628.8834   22797625.2974
      1500.2934
   1061178.72749    814501.48446  20418751.0864   20418747.7194
     -2229.9304
   2159767.34048   1661524.67644  21952534.8754   21952533.0824
     -4364.1194
   1495520.91448   1149486.98044  22739723.0004   22739718.1414
     -3083.2394
   1538651.67649   1182445.45745  21962649.9064   21962645.0944
     -3096.0034
  -1061344.48847   -817143.96543  23038075.6564   23038074.3714
      2021.8874
 04  9  2 15  4 30.0000000  0  7G 1G11G14G15G19G22G25
   -804208.97346   -626637.66442  23784027.8754   23784026.5434
      2002.7364
   -840069.76248   -652927.10543  22793363.4774   22793360.4844
      1494.4674
   1094744.77049    840656.83646  20425138.4224   20425134.7854
     -2237.7364
   2225323.47349   1712607.35944  21965010.1094   21965008.1454
     -4370.4094
   1541885.11748   1185614.90244  22748545.6174   22748540.7074
     -3090.9474
   1585145.15249   1218674.12545  21971496.8594   21971492.6414
     -3099.5654
  -1091616.03547   -840732.14143  23032315.9694   23032314.0944
      2018.1034
 04  9  2 15  4 45.0000000  0  7G 1G11G14G15G19G22G25
   -834190.51646   -649999.92642  23778321.8204   23778321.4414
      1998.7704
   -862399.14848   -670326.62943  22789114.2734   22789110.8484
      1488.6264
   1128427.50849    866903.11346  20431548.1484   20431544.7384
     -2245.5164
   2290973.73048   1763763.37144  21977503.0084   21977501.1054
     -4376.6844
   1588364.43048   1221832.53544  22757390.5394   22757385.7344
     -3098.6214
   1631691.96949   1254944.35945  21980354.3674   21980349.7344
     -3103.1214
  -1121830.57847   -864275.94543  23026565.5784   23026563.5434
      2014.3034
 04  9  2 15  5  0.0000000  0  7G 1G11G14G15G19G22G25
   -864113.57446   -673316.57042  23772627.5944   23772627.4224
      1994.8714
   -884641.67248   -687658.46543  22784881.8594   22784878.4024
      1482.8354
   1162225.68849    893239.35546  20437979.7424   20437976.1294
     -2253.2124
   2356716.63348   1814991.57844  21990013.2734   21990011.3324
     -4382.8604
   1634957.60948   1258138.89144  22766256.4614   22766252.0394
     -3106.2124
   1678290.94549   1291255.23045  21989221.9454   21989217.4654
     -3106.5984
  -1151988.84848   -887775.86343  23020827.0084   23020825.9574
      2010.5514
 04  9  2 15  5 15.0000000  0  7G 1G11G14G15G19G22G25
   -893977.30145   -696586.98842  23766945.5944   23766944.3014
      1990.9154
   -906796.46548   -704921.93443  22780665.8984   22780662.6564
      1476.9864
   1196139.55149    919665.73446  20444432.9774   20444429.8754
     -2260.9244
   2422552.51649   1866292.23844  22002541.3674   22002539.3284
     -4389.0594
   1681664.88348   1294534.14144  22775144.7734   22775140.6884
     -3113.8184
   1724942.77749   1327607.28945  21998099.2894   21998095.4304
     -3110.1224
  -1182090.00047   -911231.27043  23015099.6414   23015097.1914
      2006.7434
 04  9  2 15  5 30.0000000  0  7G 1G11G14G15G19G22G25
   -923781.07046   -719810.70342  23761274.3594   23761273.0784
      1986.9184
   -928862.66448   -722116.38743  22776466.6174   22776462.6684
      1471.0804
   1230169.55549    946182.61746  20450909.0634   20450905.2074
     -2268.6674
   2488481.70348   1917665.60944  22015087.1094   22015085.3954
     -4395.2794
   1728486.46548   1331018.47344  22784054.2114   22784050.0354
     -3121.4394
   1771647.90649   1364000.88345  22006987.4774   22006982.6254
     -3113.6754
  -1212133.09048   -934641.46943  23009381.7974   23009380.1844
      2002.8734
 04  9  2 15  5 45.0000000  0  7G 1G11G14G15G19G22G25
   -953528.21946   -742990.28142  23755613.2734   23755612.1294
      1983.1434
   -950843.61348   -739244.38743  22772284.1644   22772280.4924
      1465.3974
   1264311.93449    972787.05946  20457405.9384   20457402.5474
     -2276.1594
   2554500.38348   1969108.70344  22027649.8674   22027648.6054
     -4401.2454
   1775418.44948   1367588.82444  22792985.0314   22792981.0234
     -3128.7994
   1818402.78549   1400433.23845  22015884.1804   22015880.0944
     -3116.9924
  -1242121.27748   -958008.87143  23003675.2584   23003673.0634
      1999.2134
 04  9  2 15  6  0.0000000  0  7G 1G11G14G15G19G22G25
   -983218.44546   -766125.49642  23749963.2894   23749962.3914
      1979.3484
   -972738.90648   -756305.66843  22768117.5864   22768114.0704
      1459.6864
   1298566.69949    999479.07847  20463924.5634   20463920.8404
     -2283.6514
   2620608.50848   2020621.50044  22040230.3284   22040228.4884
     -4407.2084
   1822460.75848   1404245.13744  22801937.2814   22801933.0554
     -3136.1544
   1865207.53149   1436904.44945  22024790.8834   22024786.6724
     -3120.3164
  -1272054.12948   -981333.15643  22997979.8204   22997977.5744
      1995.5234
 04  9  2 15  6 15.0000000  0  7G 1G11G14G15G19G22G25
  -1012851.39546   -789216.11342  23744324.5634   23744323.8484
      1975.5304
   -994548.13748   -773299.87543  22763967.1884   22763963.7424
      1453.9494
   1332933.62949   1026258.49646  20470464.2274   20470460.7544
     -2291.1294
   2686805.97348   2072203.91844  22052826.9774   22052825.3754
     -4413.1644
   1869613.12148   1440987.21144  22810910.5784   22810906.1134
     -3143.4914
   1912062.29749   1473414.63745  22033707.1254   22033703.1954
     -3123.6514
  -1301931.09448  -1004613.89543  22992293.8674   22992292.0044
      1991.7984
 04  9  2 15  6 30.0000000  0  7G 1G11G14G15G19G22G25
  -1042429.60546   -812264.04342  23738695.4694   23738694.9614
      1971.8814
  -1016273.64848   -790228.84843  22759832.8134   22759829.8954
      1448.3674
   1367409.86749   1053123.09046  20477025.0944   20477021.3324
     -2298.4164
   2753089.86748   2123853.68444  22065440.6174   22065438.8404
     -4418.9264
   1916872.52048   1477812.68844  22819903.0864   22819899.2464
     -3150.6274
   1958964.29749   1509961.63345  22042632.2734   22042627.9924
     -3126.8004
  -1331754.71548  -1027853.05143  22986618.8524   22986617.4064
      1988.2414
 04  9  2 15  6 45.0000000  0  7G 1G11G14G15G19G22G25
  -1071952.36346   -835268.81242  23733077.3134   23733076.9774
      1968.1844
  -1037914.55548   -807091.87543  22755714.9064   22755711.6914
      1442.7274
   1401995.83249   1080073.19146  20483606.3834   20483603.1254
     -2305.7314
   2819460.56348   2175571.08644  22078070.3444   22078068.6724
     -4424.7134
   1964239.30548   1514721.83644  22828916.8914   22828912.8404
     -3157.7864
   2005914.23049   1546545.97745  22051566.7424   22051562.3834
     -3129.9964
  -1361523.84048  -1051049.76643  22980953.9064   22980952.3674
      1984.6084
 04  9  2 15  7  0.0000000  0  7G 1G11G14G15G19G22G25
  -1101419.54747   -858230.23042  23727470.8134   23727469.2704
      1964.4794
  -1059470.39148   -823888.64143  22751612.8914   22751609.4184
      1437.0564
   1436691.32449   1107108.63346  20490208.7034   20490205.1334
     -2313.0334
   2885917.74248   2227355.88744  22090717.1334   22090714.7624
     -4430.4794
   2011713.14848   1551714.41844  22837951.2894   22837947.1214
     -3164.9234
   2052912.06649   1583167.64545  22060510.0394   22060505.9064
     -3133.1894
  -1391238.08248  -1074203.69943  22975299.2424   22975297.6294
      1980.9494
 04  9  2 15  7 15.0000000  0  7G 1G11G14G15G19G22G25
  -1130831.90647   -881148.93042  23721873.6484   23721872.4304
      1960.8244
  -1080942.03148   -840619.78544  22747527.4304   22747523.8094
      1431.4434
   1471495.18049   1134228.52046  20496831.8054   20496828.2424
     -2320.2574
   2952460.30148   2279207.19944  22103379.6724   22103377.6334
     -4436.1714
   2059292.76248   1588789.41444  22847005.5634   22847000.7584
     -3171.9744
   2099956.82849   1619825.88745  22069462.6254   22069458.5594
     -3136.3174
  -1420898.03948  -1097315.32443  22969655.3984   22969653.1914
      1977.3304
 04  9  2 15  7 30.0000000  0  7G 1G11G14G15G19G22G25
  -1160190.35547   -904025.64542  23716286.5394   23716285.3324
      1957.2304
  -1102330.16448   -857285.86744  22743457.3054   22743453.7774
      1425.8764
   1506406.06649   1161431.79747  20503474.9534   20503471.4924
     -2327.3924
   3019086.89148   2331124.00044  22116057.9384   22116056.1414
     -4441.7734
   2106976.73047   1625945.72344  22856078.9694   22856074.3444
     -3178.9314
   2147047.38748   1656519.80545  22078423.4224   22078419.1804
     -3139.3714
  -1450504.44548  -1120385.22743  22964021.7664   22964020.1994
      1973.7604
 04  9  2 15  7 45.0000000  0  7G 1G11G14G15G19G22G25
  -1189494.32847   -926859.90242  23710710.5164   23710708.9264
      1953.5984
  -1123634.12148   -873886.36344  22739402.6564   22739399.5984
      1420.2644
   1541424.15249   1188718.61347  20510138.7344   20510135.2544
     -2334.5394
   3085797.60248   2383106.33644  22128752.7974   22128750.8094
     -4447.3814
   2154765.12946   1663183.41444  22865173.4924   22865168.8874
     -3185.8934
   2194184.14848   1693249.73445  22087393.3284   22087388.9144
     -3142.4514
  -1480056.64148  -1143412.90643  22958397.7114   22958395.5084
      1970.1464
 04  9  2 15  8  0.0000000  0  7G 1G11G14G15G19G22G25
  -1218743.86747   -949651.74242  23705144.6174   23705142.7274
      1949.9694
  -1144853.86748   -890421.23044  22735364.8054   22735361.8754
      1414.6504
   1576548.99649   1216088.61746  20516822.7974   20516819.2274
     -2341.6564
   3152592.07048   2435153.95744  22141463.2504   22141461.5784
     -4452.9654
   2202657.46546   1700502.09044  22874286.8284   22874282.3324
     -3192.8224
   2241366.90648   1730015.50045  22096371.7424   22096367.4804
     -3145.5174
  -1509554.41448  -1166398.15243  22952784.5784   22952782.9104
      1966.5184
 04  9  2 15  8 15.0000000  0  7G 1G11G14G15G19G22G25
  -1247939.10547   -972401.29742  23699588.9774   23699587.1054
      1946.3494
  -1165989.42648   -906890.50443  22731342.9064   22731339.3094
      1409.0374
   1611780.09449   1243541.41846  20523527.1724   20523523.4774
     -2348.7404
   3219469.73048   2487266.39544  22154189.4144   22154188.0904
     -4458.5114
   2250653.09846   1737901.26244  22883420.0314   22883415.1094
     -3199.7094
   2288595.37948   1766816.88745  22105359.2034   22105354.5634
     -3148.5654
  -1538997.85948  -1189341.08643  22947181.4614   22947179.9574
      1962.8964
 04  9  2 15  8 30.0000000  0  7G 1G11G14G15G19G22G25
  -1277080.14847   -995108.60242  23694043.2034   23694041.5084
      1942.7364
  -1187040.57048   -923293.99644  22727337.3914   22727333.9494
      1403.4104
   1647117.08649   1271076.72346  20530251.4774   20530247.9224
     -2355.7994
   3286430.05548   2539443.23044  22166932.2894   22166929.7464
     -4464.0224
   2298751.46947   1775380.48044  22892572.6954   22892568.5204
     -3206.5584
   2335869.25049   1803653.64845  22114354.9924   22114350.5824
     -3151.5914
  -1568386.78948  -1212241.53943  22941588.9694   22941587.2734
      1959.2624
 04  9  2 15  8 45.0000000  0  7G 1G11G14G15G19G22G25
  -1306166.36347  -1017773.20742  23688508.4144   23688506.1254
      1939.0814
  -1208006.78548   -939631.30543  22723347.5944   22723344.1684
      1397.7484
   1682560.23049   1298694.74647  20536996.4534   20536992.5474
     -2362.8764
   3353473.25448   2591684.65244  22179689.5864   22179688.1954
     -4469.5474
   2346952.48048   1812939.68844  22901744.8984   22901740.9454
     -3213.4014
   2383188.94949   1840526.12945  22123360.0004   22123355.5514
     -3154.6474
  -1597720.48048  -1235098.93043  22936006.9774   22936004.9344
      1955.5794
 04  9  2 15  9  0.0000000  0  7G 1G11G14G15G19G22G25
  -1335199.50447  -1040396.42242  23682983.3054   23682982.2234
      1935.5434
  -1228889.53548   -955903.57843  22719373.4454   22719370.2194
      1392.1834
   1718107.28949   1326393.75046  20543760.3204   20543756.9454
     -2369.8044
   3420597.27748   2643989.05944  22192462.8914   22192461.4924
     -4474.9354
   2395254.02048   1850577.21944  22910936.4614   22910931.8794
     -3220.1034
   2430552.67649   1877432.91445  22132373.1094   22132368.4694
     -3157.5824
  -1627000.35947  -1257914.39143  22930434.9224   22930433.4884
      1951.9924
 04  9  2 15  9 15.0000000  0  7G 1G11G14G15G19G22G25
  -1364179.78147  -1062978.44942  23677469.0084   23677467.1484
      1932.0184
  -1249688.90648   -972110.88344  22715415.9384   22715412.5394
      1386.6254
   1753757.71549   1354173.29746  20550544.5084   20550541.0554
     -2376.6954
   3487801.55148   2696355.98444  22205251.4614   22205249.6764
     -4480.2854
   2443655.53148   1888292.65244  22920147.1254   22920142.8014
     -3226.7674
   2477959.96149   1914373.63745  22141394.4144   22141389.8914
     -3160.4864
  -1656226.39148  -1280687.90243  22924873.1564   22924872.0004
      1948.4024
 04  9  2 15  9 30.0000000  0  7G 1G11G14G15G19G22G25
  -1393106.50047  -1085518.73842  23671964.1414   23671962.8204
      1928.4484
  -1270404.01248   -988252.51644  22711473.8204   22711470.5274
      1381.0074
   1789511.94549   1382033.73047  20557348.6024   20557344.7664
     -2383.6154
   3555086.33248   2748785.66444  22218055.5784   22218053.7074
     -4485.6524
   2492157.18448   1926086.12144  22929376.6644   22929372.3634
     -3233.4434
   2525411.49249   1951348.84045  22150423.9924   22150419.3674
     -3163.4354
  -1685397.77048  -1303418.84443  22919321.8834   22919320.5594
      1944.7594
 04  9  2 15  9 45.0000000  0  7G 1G11G14G15G19G22G25
  -1421978.62947  -1108016.49642  23666469.6644   23666468.6054
      1924.8094
  -1291033.76648  -1004327.65644  22707548.3524   22707544.5984
      1375.3174
   1825370.60549   1409975.53546  20564171.8754   20564168.4384
     -2390.5774
   3622452.23848   2801278.53544  22230875.0314   22230873.0274
     -4491.0604
   2540759.57048   1963958.08644  22938625.5784   22938621.4414
     -3240.1594
   2572907.99249   1988359.08645  22159462.5784   22159457.7114
     -3166.4334
  -1714513.33648  -1326106.24243  22913782.0944   22913780.5314
      1941.0384
 04  9  2 15 10  0.0000000  0  7G 1G11G14G15G19G22G25
  -1450797.35247  -1130472.63342  23660985.1254   23660984.5004
      1921.2484
  -1311579.27748  -1020337.14544  22703638.3674   22703635.1134
      1369.7014
   1861332.05949   1437997.44546  20571015.1954   20571011.6054
     -2397.4304
   3689897.62548   2853833.36744  22243709.6254   22243707.5514
     -4496.3594
   2589460.90648   2001907.16044  22947892.3594   22947888.8204
     -3246.7564
   2620448.02749   2025403.26245  22168508.9614   22168504.2774
     -3169.3364
  -1743574.09048  -1348750.98843  22908251.5234   22908249.7664
      1937.3844
 04  9  2 15 10 15.0000000  0  7G 1G11G14G15G19G22G25
  -1479562.61747  -1152887.14142  23655511.7194   23655510.3754
      1917.6844
  -1332040.31648  -1036280.81643  22699744.7114   22699741.1254
      1364.0694
   1897395.96949   1466099.18846  20577877.8524   20577874.4924
     -2404.2614
   3757422.24248   2906449.92244  22256558.7114   22256556.9384
     -4501.6414
   2638260.84447   2039933.04344  22957179.3054   22957174.8674
     -3253.3294
   2668031.52349   2062481.29345  22177563.5314   22177558.8954
     -3172.2334
  -1772579.79748  -1371352.80143  22902732.3984   22902730.5124
      1933.7144
 04  9  2 15 10 30.0000000  0  7G 1G11G14G15G19G22G25
  -1508274.66047  -1175260.12942  23650048.4844   23650046.6684
      1914.1364
  -1352416.96948  -1052158.72343  22695867.1724   22695864.0394
      1358.4434
   1933561.72349   1494280.28946  20584760.1884   20584756.7974
     -2411.0504
   3825025.35248   2959127.64144  22269423.2974   22269421.5314
     -4506.8744
   2687158.67647   2078035.23044  22966483.9844   22966480.0514
     -3259.8554
   2715658.06649   2099592.87145  22186626.7664   22186622.1454
     -3175.1034
  -1801530.29748  -1393911.62543  22897222.7034   22897221.1024
      1930.0334
 04  9  2 15 10 45.0000000  0  7G 1G11G14G15G19G22G25
  -1536933.37147  -1197591.57042  23644595.0944   23644593.7074
      1910.5814
  -1372709.03148  -1067970.72344  22692005.1094   22692001.9774
      1352.8044
   1969829.07049   1522540.55146  20591661.7034   20591658.3634
     -2417.8234
   3892706.72348   3011866.33244  22282303.3524   22282301.2034
     -4512.0914
   2736153.95748   2116213.33644  22975807.6334   22975803.5514
     -3266.3524
   2763327.69549   2136738.02045  22195697.7894   22195693.3204
     -3177.9754
  -1830425.41448  -1416427.27743  22891724.3364   22891722.6254
      1926.3414
 04  9  2 15 11  0.0000000  0  7G 1G11G14G15G19G22G25
  -1565537.81247  -1219880.74642  23639151.5234   23639149.8164
      1906.9634
  -1392915.43448  -1083715.97744  22688160.5164   22688157.0164
      1347.0934
   2006198.56349   1550880.41846  20598582.5314   20598579.3244
     -2424.6334
   3960466.79748   3064666.36744  22295197.2344   22295195.5864
     -4517.3384
   2785247.05948   2154467.67644  22985150.2274   22985145.9224
     -3272.8734
   2811041.06649   2173917.25445  22204777.7504   22204772.9654
     -3180.8914
  -1859263.90648  -1438898.82443  22886236.3754   22886234.4694
      1922.5664
 04  9  2 15 11 15.0000000  0  7G 1G11G14G15G19G22G25
  -1594089.32847  -1242128.68042  23633718.3984   23633716.9304
      1903.4344
  -1413037.36348  -1099395.39543  22684331.2664   22684328.1644
      1341.4624
   2042668.52049   1579298.55546  20605522.6334   20605519.0514
     -2431.3304
   4028303.84848   3117526.38344  22308106.2034   22308104.4344
     -4522.4704
   2834436.22348   2192796.86744  22994510.5314   22994506.5784
     -3279.2784
   2858796.70749   2211129.42645  22213865.1254   22213860.2154
     -3183.7094
  -1888047.05148  -1461327.21543  22880759.2894   22880757.1604
      1918.8764
 04  9  2 15 11 30.0000000  0  7G 1G11G14G15G19G22G25
  -1622587.78947  -1264335.26642  23628295.3204   23628294.0984
      1899.8974
  -1433074.50048  -1115008.75043  22680518.2504   22680514.7974
      1335.8094
   2079238.69149   1607794.79346  20612481.7504   20612478.1024
     -2438.0114
   4096217.64548   3170446.20344  22321029.8054   22321027.6804
     -4527.5864
   2883721.08248   2231200.62544  23003889.3204   23003884.5634
     -3285.6574
   2906594.64549   2248374.55545  22222960.7504   22222955.9924
     -3186.5294
  -1916774.45348  -1483712.20343  22875292.5704   22875290.8524
      1915.1604
 04  9  2 15 11 45.0000000  0  7G 1G11G14G15G19G22G25
  -1651033.53147  -1286500.75842  23622881.9774   23622880.8834
      1896.3834
  -1453027.12948  -1130556.25843  22676722.0474   22676717.8404
      1330.1754
   2115908.37549   1636368.56646  20619459.4144   20619455.8014
     -2444.6464
   4164207.46548   3223425.25444  22333967.5234   22333965.9494
     -4532.6554
   2933100.71148   2269678.22744  23013285.5474   23013281.3364
     -3291.9754
   2954434.34449   2285652.22345  22232064.3754   22232059.9104
     -3189.3134
  -1945446.27748  -1506053.87543  22869836.8134   22869834.6564
      1911.4554
 04  9  2 15 12  0.0000000  0  7G 1G11G14G15G19G22G25
  -1679425.96947  -1308624.73442  23617479.2344   23617478.0864
      1892.8294
  -1472894.40248  -1146037.25044  22672941.0634   22672937.4344
      1324.4854
   2152677.71149   1665019.99246  20626456.4224   20626453.0084
     -2451.2894
   4232273.46148   3276463.66044  22346920.3834   22346918.6764
     -4537.7334
   2982575.23848   2308229.79344  23022700.5084   23022695.9304
     -3298.3024
   3002316.31349   2322962.83245  22241176.0554   22241171.7544
     -3192.1314
  -1974061.83248  -1528351.69943  22864391.3594   22864389.3054
      1907.7044
 04  9  2 15 12 15.0000000  0  7G 1G11G14G15G19G22G25
  -1707765.03147  -1330707.12142  23612086.6414   23612085.8324
      1889.2714
  -1492676.15648  -1161451.60944  22669176.4064   22669173.0434
      1318.7844
   2189546.44549   1693748.87546  20633472.4064   20633469.3404
     -2457.9164
   4300415.32848   3329561.19144  22359887.4924   22359885.9224
     -4542.7914
   3032144.35248   2346855.04744  23032133.4304   23032128.6294
     -3304.6084
   3050240.30949   2360306.18445  22250295.7194   22250291.1414
     -3194.9334
  -2002620.88748  -1550605.48443  22858956.4224   22858954.6134
      1903.9374
 04  9  2 15 12 30.0000000  0  7G 1G11G14G15G19G22G25
  -1736050.19947  -1352747.51243  23606704.3834   23606702.7424
      1885.6784
  -1512371.84848  -1176798.89544  22665428.6954   22665425.1024
      1313.0464
   2226514.73049   1722555.32446  20640507.4614   20640503.9964
     -2464.5524
   4368633.15648   3382717.90644  22372868.6564   22372867.2274
     -4547.8554
   3081808.06348   2385554.02344  23041584.2664   23041579.3244
     -3310.9144
   3098206.77349   2397682.63345  22259423.2894   22259418.6844
     -3197.7644
  -2031122.51248  -1572814.53943  22853532.9304   22853531.3834
      1900.1084
 04  9  2 15 12 45.0000000  0  7G 1G11G14G15G19G22G25
  -1764282.18448  -1374746.45342  23601332.1414   23601330.7424
      1882.1324
  -1531982.07848  -1192079.58644  22661697.3444   22661693.4884
      1307.3494
   2263581.50849   1751438.52046  20647560.8914   20647557.5124
     -2471.1184
   4436925.77048   3435932.90244  22385864.4384   22385862.7704
     -4552.8414
   3131565.14148   2424325.75844  23051052.1334   23051048.0554
     -3317.1394
   3146214.73449   2435091.41445  22268558.9384   22268554.5234
     -3200.5314
  -2059567.37148  -1594979.34843  22848120.4534   22848118.0824
      1896.3244
 04  9  2 15 13  0.0000000  0  7G 1G11G14G15G19G22G25
  -1792460.83248  -1396703.84043  23595969.7424   23595968.6454
      1878.5774
  -1551506.57448  -1207293.47744  22657981.6884   22657978.0394
      1301.6334
   2300746.45349   1780398.21146  20654632.9924   20654629.6644
     -2477.6634
   4505292.98848   3489206.02744  22398874.3834   22398873.1484
     -4557.8154
   3181415.27048   2463170.00044  23060538.4304   23060533.8404
     -3323.3424
   3194264.16848   2472532.51645  22277702.5474   22277698.1764
     -3203.2964
  -2087955.14548  -1617099.69143  22842718.3914   22842715.8204
      1892.5184
 04  9  2 15 13 15.0000000  0  7G 1G11G14G15G19G22G25
  -1820585.80147  -1418619.38342  23590618.0634   23590616.7974
      1874.9984
  -1570944.73048  -1222440.09444  22654282.7114   22654279.1994
      1295.8774
   2338009.59849   1809434.42246  20661724.0234   20661720.2344
     -2484.2104
   4573734.80948   3542537.28544  22411898.3134   22411897.1954
     -4562.7884
   3231358.32448   2502086.63343  23070041.9304   23070037.7544
     -3329.5374
   3242355.32049   2510006.12145  22286854.1804   22286849.4144
     -3206.0774
  -2116285.26248  -1639175.10543  22837326.7664   22837324.9224
      1888.6744
 04  9  2 15 13 30.0000000  0  7G 1G11G14G15G19G22G25
  -1848656.78547  -1440492.88742  23585276.1254   23585274.1844
      1871.3994
  -1590296.18748  -1237519.15244  22650600.3984   22650597.1054
      1290.0974
   2375370.89549   1838547.11746  20668833.8054   20668830.0704
     -2490.7534
   4642251.07448   3595926.55944  22424936.6174   22424934.9184
     -4567.7514
   3281394.00048   2541075.44144  23079564.1724   23079558.7504
     -3335.7124
   3290488.24249   2547512.27345  22296013.7274   22296009.0984
     -3208.8614
  -2144557.22748  -1661205.19943  22831946.9694   22831944.8484
      1884.7984
 04  9  2 15 13 45.0000000  0  7G 1G11G14G15G19G22G25
  -1876674.78147  -1462325.07042  23579944.1724   23579943.2424
      1867.8664
  -1609561.61748  -1252531.16044  22646933.8134   22646930.7774
      1284.3624
   2412829.12549   1867735.34447  20675961.8444   20675958.3244
     -2497.2154
   4710840.46548   3649372.79744  22437988.5704   22437987.0314
     -4572.6264
   3331520.92248   2580135.36744  23089102.9534   23089097.8204
     -3341.7954
   3338661.98449   2585050.23845  22305180.8054   22305176.1134
     -3211.5834
  -2172771.62548  -1683190.43443  22826577.9534   22826576.1644
      1880.9604
 04  9  2 15 14  0.0000000  0  7G 1G11G14G15G19G22G25
  -1904640.46547  -1484116.50042  23574622.8754   23574621.3834
      1864.3794
  -1628741.71148  -1267476.69544  22643284.2194   22643280.3554
      1278.6734
   2450383.10549   1896998.17647  20683108.4144   20683104.5394
     -2503.5994
   4779501.87948   3702875.15644  22451054.2894   22451053.0664
     -4577.4284
   3381737.85248   2619265.43844  23098658.6414   23098654.1134
     -3347.7954
   3386875.56649   2622619.24645  22314355.4384   22314350.9964
     -3214.2394
  -2200929.18448  -1705131.36743  22821219.6254   22821218.0784
      1877.1714
 04  9  2 15 14 15.0000000  0  7G 1G11G14G15G19G22G25
  -1932552.62547  -1505866.22742  23569310.7734   23569309.7154
      1860.8114
  -1647835.05948  -1282354.61744  22639650.6724   22639647.3954
      1272.8904
   2488033.63749   1926336.24646  20690272.5704   20690269.1524
     -2510.0354
   4848236.14548   3756434.29743  22464134.5474   22464132.3674
     -4582.2844
   3432045.50848   2658466.16844  23108231.9304   23108227.7974
     -3353.8444
   3435130.16449   2660220.21145  22323538.0474   22323533.3954
     -3216.9734
  -2229028.43448  -1727026.88343  22815872.7974   22815870.3364
      1873.2834
 04  9  2 15 14 30.0000000  0  7G 1G11G14G15G19G22G25
  -1960410.35247  -1527573.55542  23564009.8284   23564008.8134
      1857.1824
  -1666840.68748  -1297164.21944  22636034.1174   22636030.3324
      1267.0424
   2525781.26249   1955749.97346  20697455.9614   20697452.7114
     -2516.5084
   4917043.69548   3810050.53944  22477227.7664   22477226.5784
     -4587.1704
   3482444.31648   2697737.94543  23117822.9224   23117818.4304
     -3359.9214
   3483426.45749   2697853.67245  22332728.6254   22332723.9694
     -3219.7534
  -2257068.30148  -1748876.11743  22810537.0704   22810535.4104
      1869.3244
 04  9  2 15 14 45.0000000  0  7G 1G11G14G15G19G22G25
  -1988214.10947  -1549238.81242  23558718.7504   23558717.4064
      1853.5844
  -1685758.96548  -1311905.72344  22632434.3834   22632430.8874
      1261.2184
   2563625.16049   1985238.72346  20704657.1334   20704653.8014
     -2522.9274
   4985923.74248   3863723.27743  22490335.5944   22490333.5274
     -4592.0034
   3532933.32448   2737080.00443  23127430.2734   23127426.0664
     -3365.9344
   3531763.76249   2735519.08645  22341926.6334   22341922.1994
     -3222.4874
  -2285048.98448  -1770679.22743  22805212.2194   22805210.3244
      1865.3794
 04  9  2 15 15  0.0000000  0  7G 1G11G14G15G19G22G25
  -2015964.24647  -1570862.28142  23553438.3054   23553437.2344
      1850.0094
  -1704590.09848  -1326579.33644  22628850.4774   22628847.4104
      1255.4094
   2601564.57849   2014801.89846  20711876.7194   20711873.4694
     -2529.2954
   5054875.47348   3917451.85944  22503456.2504   22503454.8284
     -4596.7824
   3583511.72748   2776491.72743  23137055.1484   23137050.9804
     -3371.8934
   3580141.66049   2773216.14144  22351133.0704   22351127.6294
     -3225.1934
  -2312970.67248  -1792436.37543  22799899.0474   22799897.2584
      1861.4464
 04  9  2 15 15 15.0000000  0  7G 1G11G14G15G19G22G25
  -2043660.32447  -1592443.63742  23548168.1484   23548166.2424
      1846.4054
  -1723333.46148  -1341184.54344  22625284.1724   22625280.9184
      1249.5584
   2639599.71149   2044439.66446  20719114.8914   20719111.2734
     -2535.6764
   5123898.95748   3971236.35543  22516591.7814   22516589.6134
     -4601.5664
   3634179.44148   2815973.04744  23146696.6484   23146692.6724
     -3377.8484
   3628560.39549   2810945.00845  22360346.6484   22360342.1994
     -3227.9164
  -2340832.78548  -1814147.08643  22794596.7584   22794595.2584
      1857.4744
 04  9  2 15 15 30.0000000  0  7G 1G11G14G15G19G22G25
  -2071301.61747  -1613982.32042  23542907.8284   23542906.1804
      1842.7534
  -1741987.87148  -1355720.44944  22621734.3524   22621730.9384
      1243.6274
   2677730.81649   2074152.19946  20726371.0704   20726367.0554
     -2542.0744
   5192994.43448   4025076.96143  22529740.1334   22529738.0204
     -4606.3654
   3684936.77348   2855524.18844  23156355.6954   23156351.5314
     -3383.8224
   3677020.55949   2848706.15645  22369568.1484   22369563.5944
     -3230.6784
  -2368634.26248  -1835810.56643  22789306.5474   22789304.8054
      1853.4324
 04  9  2 15 15 45.0000000  0  7G 1G11G14G15G19G22G25
  -2098889.32447  -1635479.24242  23537658.2424   23537656.5944
      1839.1804
  -1760554.84048  -1370188.19944  22618201.0164   22618198.1724
      1237.7984
   2715956.32049   2103938.30946  20733645.1254   20733641.6884
     -2548.3674
   5262160.36348   4078972.45743  22542901.7194   22542899.7894
     -4611.0624
   3735781.99648   2895143.81344  23166030.6724   23166027.4654
     -3389.6824
   3725520.81649   2886498.55945  22378797.6954   22378792.8324
     -3233.3514
  -2396376.28148  -1857427.70743  22784027.1724   22784025.4184
      1849.4684
 04  9  2 15 16  0.0000000  0  7G 1G11G14G15G19G22G25
  -2126422.74647  -1656933.86342  23532418.2584   23532416.8914
      1835.5614
  -1779033.41848  -1384587.09844  22614684.5634   22614681.6914
      1231.9054
   2754276.46949   2133798.15646  20740936.9454   20740933.4144
     -2554.6774
   5331397.01648   4132923.06643  22556077.5864   22556075.3714
     -4615.7774
   3786715.15648   2934831.96944  23175722.9224   23175719.5984
     -3395.5444
   3774061.56649   2924322.50844  22388034.3984   22388029.9844
     -3236.0504
  -2424057.85248  -1878997.75044  22778759.9694   22778758.1024
      1845.4384
 04  9  2 15 16 15.0010000  0  7G 1G11G14G15G19G22G25
  -2153903.84847  -1678347.70742  23527189.2084   23527187.6184
      1832.0734
  -1797424.75448  -1398918.00444  22611185.3884   22611181.9154
      1226.0894
   2792693.40249   2163733.42246  20748247.4894   20748244.0244
     -2561.1294
   5400708.56348   4186932.02744  22569266.6464   22569264.4544
     -4620.7704
   3837739.21148   2974590.92643  23185433.1774   23185429.1424
     -3401.6044
   3822645.94149   2962180.44544  22397279.8494   22397275.1924
     -3238.9584
  -2451680.64548  -1900521.99644  22773503.1144   22773501.0834
      1841.5204
 04  9  2 15 16 30.0010000  0  7G 1G11G14G15G19G22G25
  -2181327.14147  -1699716.51242  23521970.9114   23521969.2004
      1828.2204
  -1815724.50849  -1413177.55144  22607702.5524   22607699.2634
      1219.9844
   2831203.52349   2193741.30946  20755575.9504   20755572.3924
     -2567.3414
   5470087.12948   4240993.22743  22582469.2634   22582467.1384
     -4625.2384
   3888848.60547   3014416.40244  23195158.4034   23195154.6924
     -3407.2934
   3871269.01649   3000068.54345  22406532.3884   22406527.5244
     -3241.5384
  -2479239.04348  -1921996.05544  22768259.1694   22768257.3104
      1837.2274
 04  9  2 15 16 45.0010000  0  7G 1G11G14G15G19G22G25
  -2208695.80147  -1721042.73042  23516762.9194   23516761.3134
      1824.5774
  -1833935.08649  -1427367.60544  22604237.3024   22604234.3334
      1214.0394
   2869807.59849   2223822.39846  20762921.7004   20762918.5094
     -2573.6054
   5539535.51648   4295108.82443  22595684.5284   22595682.9424
     -4629.8924
   3940044.90647   3054309.59043  23204900.8254   23204896.9624
     -3413.0874
   3919932.46549   3037988.09844  22415792.6854   22415788.1654
     -3244.2304
  -2506736.05948  -1943422.28544  22763026.8964   22763024.5244
      1833.1344
 04  9  2 15 17  0.0010000  0  7G 1G11G14G15G19G22G25
  -2236007.20747  -1742324.34442  23511565.9584   23511563.6144
      1820.7604
  -1852053.65248  -1441485.96544  22600789.3724   22600786.0214
      1207.9044
   2908507.87949   2253978.45746  20770286.3254   20770283.2554
     -2580.0194
   5609056.01248   4349280.60544  22608913.7944   22608912.4314
     -4634.7004
   3991330.28148   3094272.18444  23214660.7244   23214656.4624
     -3419.0254
   3968638.85948   3075941.11345  22425061.1064   22425056.6574
     -3247.0934
  -2534168.85248  -1964798.48844  22757806.9664   22757804.2864
      1828.8534
 04  9  2 15 17 15.0010000  0  7G 1G11G14G15G19G22G25
  -2263260.53547  -1763560.71142  23506378.9894   23506377.4464
      1816.8894
  -1870079.29348  -1455531.92644  22597359.3254   22597356.2084
      1201.7094
   2947304.83649   2284209.83647  20777669.2084   20777665.8134
     -2586.4644
   5678649.11747   4403508.96144  22622157.1144   22622155.4034
     -4639.5404
   4042705.02047   3134304.42643  23224436.0284   23224432.4584
     -3424.9834
   4017388.91448   3113928.16044  22434337.9114   22434333.6924
     -3250.0044
  -2561536.40648  -1986123.85244  22752598.6694   22752596.5754
      1824.5044
 04  9  2 15 17 30.0010000  0  7G 1G11G14G15G19G22G25
  -2290457.93047  -1784753.46542  23501203.6064   23501202.2244
      1813.1604
  -1888013.97749  -1469506.99644  22593946.7164   22593942.8804
      1195.6464
   2986195.98449   2314514.62947  20785069.7474   20785066.5014
     -2592.7434
   5748312.32048   4457791.93844  22635413.6224   22635411.9114
     -4644.2144
   4094166.49648   3174404.27043  23234229.0214   23234225.3994
     -3430.7654
   4066180.20749   3151947.33644  22443622.7554   22443618.1344
     -3252.7534
  -2588840.55548  -2007399.80144  22747402.8174   22747400.4744
      1820.2774
 04  9  2 15 17 45.0010000  0  7G 1G11G14G15G19G22G25
  -2317598.27747  -1805901.76643  23496038.7634   23496038.0444
      1809.3574
  -1905856.64849  -1483410.38744  22590551.1144   22590547.7514
      1189.5114
   3025182.03549   2344893.36346  20792488.7864   20792485.1884
     -2599.0704
   5818046.22748   4512130.01244  22648683.4814   22648682.0754
     -4648.9274
   4145715.35248   3214572.16444  23244039.0524   23244034.6924
     -3436.5904
   4115013.73049   3189999.41445  22452915.4814   22452910.9384
     -3255.5684
  -2616080.09048  -2028625.39844  22742218.9194   22742217.6494
      1815.9694
 04  9  2 15 18  0.0010000  0  7G 1G11G14G15G19G22G25
  -2344681.93447  -1827005.92242  23490885.3414   23490883.7594
      1805.5774
  -1923607.26649  -1497242.03544  22587173.1304   22587170.3214
      1183.3744
   3064262.27349   2375345.49246  20799925.3884   20799922.2244
     -2605.3494
   5887850.09047   4566522.60944  22661966.7244   22661965.4384
     -4653.5914
   4197350.75448   3254807.52744  23253865.2474   23253860.8764
     -3442.3604
   4163889.04349   3228084.05145  22462216.1304   22462212.0524
     -3258.3544
  -2643255.28148  -2049800.86344  22737047.5604   22737046.2164
      1811.6794
 04  9  2 15 18 15.0010000  0  7G 1G11G14G15G19G22G25
  -2371708.27347  -1848065.38743  23485742.2004   23485740.5244
      1801.7564
  -1941265.28149  -1511001.52344  22583813.1534   22583809.2714
      1177.2014
   3103436.94949   2405871.20746  20807380.3494   20807376.5794
     -2611.6454
   5957724.05547   4620969.82843  22675262.9894   22675261.8294
     -4658.2644
   4249072.84848   3295110.41844  23263707.9424   23263702.9114
     -3448.1404
   4212806.60949   3266201.62144  22471525.0134   22471520.3644
     -3261.1714
  -2670365.27048  -2070925.51244  22731889.0444   22731887.4384
      1807.3334
 04  9  2 15 18 30.0010000  0  7G 1G11G14G15G19G22G25
  -2398677.64147  -1869080.49242  23480610.3964   23480608.6884
      1797.9584
  -1958830.80949  -1524688.94544  22580470.1224   22580466.9464
      1171.0354
   3142705.41049   2436470.00046  20814852.6774   20814848.9974
     -2617.8974
   6027667.45747   4675471.13343  22688572.8494   22688571.0094
     -4662.8934
   4300880.68448   3335480.15244  23273565.8884   23273561.9234
     -3453.8564
   4261765.92648   3304351.71945  22480841.6614   22480837.2594
     -3263.9544
  -2697410.19948  -2091999.46944  22726742.8644   22726740.7434
      1802.9954
 04  9  2 15 18 45.0010000  0  7G 1G11G14G15G19G22G25
  -2425591.38347  -1890052.20742  23475488.5914   23475487.5954
      1794.2494
  -1976305.02748  -1538305.21944  22577145.1144   22577141.8724
      1164.9484
   3182065.82449   2467140.44546  20822342.7314   20822339.4314
     -2624.0284
   6097678.57448   4730025.20743  22701895.4114   22701894.4974
     -4667.4084
   4352772.50048   3375915.30544  23283440.3804   23283436.4464
     -3459.4544
   4310765.45749   3342533.15645  22490165.8024   22490161.5444
     -3266.6354
  -2724391.10248  -2113023.54344  22721608.5524   22721606.0714
      1798.7274
 04  9  2 15 19  0.0010000  0  7G 1G11G14G15G19G22G25
  -2452448.67247  -1910979.96143  23470377.9894   23470376.7864
      1790.4864
  -1993686.82049  -1551849.47744  22573837.7944   22573834.3604
      1158.7864
   3221518.75449   2497882.98046  20829850.4584   20829846.8454
     -2630.1954
   6167757.79748   4784632.36343  22715231.4664   22715229.7944
     -4671.9484
   4404748.62148   3416416.15644  23293331.4974   23293327.2434
     -3465.0754
   4359806.03948   3380746.58245  22499497.9584   22499493.5174
     -3269.3724
  -2751306.95348  -2133996.93044  22716486.3494   22716484.9464
      1794.3904
 04  9  2 15 19 15.0010000  0  7G 1G11G14G15G19G22G25
  -2479248.84847  -1931863.21543  23465278.1064   23465276.6534
      1786.6784
  -2010975.58648  -1565321.24644  22570547.6534   22570544.5364
      1152.5844
   3261064.40649   2528697.78146  20837375.5364   20837372.0214
     -2636.3774
   6237905.38748   4839292.78943  22728580.2004   22728578.9784
     -4676.5064
   4456809.17248   3456982.79344  23303238.5054   23303234.2594
     -3470.7034
   4408888.06349   3418992.30545  22508837.8644   22508833.8564
     -3272.1354
  -2778157.00048  -2154919.03544  22711377.1464   22711374.9464
      1790.0034
 04  9  2 15 19 30.0010000  0  7G 1G11G14G15G19G22G25
  -2505993.98847  -1952703.57843  23460188.4584   23460187.2244
      1783.0094
  -2028173.34848  -1578722.09444  22567274.8024   22567271.3684
      1146.5174
   3300700.30549   2559582.88346  20844917.9194   20844914.6304
     -2642.3934
   6308118.78548   4894004.49243  22741941.5674   22741939.9384
     -4680.8934
   4508951.59048   3497613.22744  23313161.1064   23313156.5094
     -3476.1614
   4458009.26248   3457268.55144  22518185.8174   22518181.4034
     -3274.7474
  -2804942.99648  -2175791.23444  22706280.0994   22706277.6884
      1785.7334
 04  9  2 15 19 45.0010000  0  7G 1G11G14G15G19G22G25
  -2532685.51647  -1973502.17642  23455109.8414   23455108.0604
      1779.4354
  -2045281.23048  -1592052.91044  22564019.3334   22564016.2204
      1140.5264
   3340424.70349   2590536.95346  20852477.2714   20852474.3994
     -2648.2934
   6378396.21147   4948766.09443  22755314.4814   22755312.9784
     -4685.1624
   4561173.86348   3538305.88343  23323098.0284   23323093.9074
     -3481.4854
   4507168.11348   3495574.12545  22527540.3104   22527535.9814
     -3277.2574
  -2831666.27048  -2196614.54744  22701194.4114   22701193.0324
      1781.5524
 04  9  2 15 20  0.0010000  0  7G 1G11G14G15G19G22G25
  -2559323.24647  -1994258.82442  23450040.6224   23450039.0524
      1775.8494
  -2062298.84449  -1605313.38344  22560780.9814   22560777.7674
      1134.5084
   3380237.54349   2621559.93846  20860053.4194   20860050.1424
     -2654.1894
   6448737.54348   5003577.48443  22768699.8104   22768699.1184
     -4689.4224
   4613475.91448   3579060.69543  23333051.2004   23333046.4034
     -3486.8034
   4556364.60248   3533909.03545  22536902.2244   22536897.6774
     -3279.7664
  -2858326.28548  -2217388.58644  22696121.2634   22696119.1344
      1777.3344
 04  9  2 15 20 15.0010000  0  7G 1G11G14G15G19G22G25
  -2585906.64147  -2014973.15243  23444981.7554   23444980.3064
      1772.2264
  -2079225.66848  -1618503.12144  22557560.2244   22557556.6304
      1128.4554
   3420138.82449   2652651.83646  20867646.9424   20867643.3494
     -2660.0854
   6519142.75847   5058438.64543  22782097.9744   22782096.5364
     -4693.6814
   4665857.66848   3619877.61744  23343019.2634   23343014.5404
     -3492.1174
   4605599.07448   3572273.54345  22546271.1534   22546266.9194
     -3282.2984
  -2884922.47348  -2238112.87544  22691060.0284   22691058.2554
      1773.0794
 04  9  2 15 20 30.0010000  0  7G 1G11G14G15G19G22G25
  -2612435.91847  -2035645.32443  23439933.3024   23439932.2824
      1768.6184
  -2096061.68449  -1631622.09044  22554356.1854   22554352.7354
      1122.4014
   3460128.05149   2683812.26247  20875256.4194   20875252.8174
     -2665.9484
   6589611.42648   5113349.25043  22795507.7004   22795506.1814
     -4697.9114
   4718318.41848   3660756.10943  23353002.2474   23352997.3134
     -3497.3834
   4654871.29348   3610667.46545  22555647.3964   22555642.9544
     -3284.8154
  -2911454.69948  -2258787.32844  22686011.4354   22686009.7904
      1768.8154
 04  9  2 15 20 45.0010000  0  7G 1G11G14G15G19G22G25
  -2638910.09447  -2056274.52343  23434895.4814   23434894.1574
      1764.9454
  -2112805.82049  -1644669.46944  22551170.2474   22551166.1534
      1116.2764
   3500205.80149   2715041.66846  20882882.7554   20882879.5244
     -2671.8504
   6660144.06647   5168309.72743  22808929.7554   22808928.0994
     -4702.1764
   4770858.60248   3701696.49243  23363000.2634   23362995.7594
     -3502.6794
   4704182.04349   3649091.40645  22565030.8964   22565026.3804
     -3287.3834
  -2937921.84848  -2279411.07044  22680974.5834   22680973.0324
      1764.4774
 04  9  2 15 21  0.0010000  0  7G 1G11G14G15G19G22G25
  -2665329.47347  -2076861.05943  23429868.4114   23429866.8024
      1761.2924
  -2129458.29749  -1657645.43444  22548001.1304   22547997.8454
      1110.1654
   3540371.38749   2746339.52046  20890526.2244   20890522.8564
     -2677.7064
   6730739.97348   5223319.47743  22822363.8724   22822362.3104
     -4706.3944
   4823477.43048   3742698.15243  23373013.4114   23373008.8604
     -3507.9224
   4753530.76649   3687544.93845  22574421.5054   22574417.1344
     -3289.9154
  -2964324.09048  -2299984.24244  22675950.8334   22675948.8534
      1760.1494
 04  9  2 15 21 15.0010000  0  7G 1G11G14G15G19G22G25
  -2691694.44947  -2097405.18442  23424851.0524   23424849.8374
      1757.6654
  -2146019.16449  -1670550.01244  22544849.5604   22544846.0284
      1104.0584
   3580624.12949   2777705.28546  20898185.8644   20898182.4704
     -2683.5164
   6801398.39147   5278377.96543  22835809.4814   22835807.8924
     -4710.5614
   4876174.05548   3783760.43443  23383040.9424   23383037.0014
     -3513.1084
   4802917.08648   3726027.77345  22583819.2554   22583815.2784
     -3292.4214
  -2990661.49648  -2320506.87944  22670938.7004   22670936.5634
      1755.8274
 04  9  2 15 21 30.0010000  0  7G 1G11G14G15G19G22G25
  -2718004.90247  -2117906.82043  23419844.1924   23419842.9744
      1754.0304
  -2162488.39849  -1683383.18444  22541715.6774   22541712.1494
      1097.9494
   3620963.69149   2809138.70746  20905862.5834   20905858.8644
     -2689.3044
   6872118.91048   5333484.84043  22849266.7314   22849265.9584
     -4714.7014
   4928948.00448   3824882.97743  23393083.5754   23393079.4354
     -3518.2634
   4852340.91048   3764539.82845  22593224.2394   22593220.1654
     -3294.9224
  -3016933.89848  -2340978.87544  22665938.7084   22665937.6304
      1751.4934
 04  9  2 15 21 45.0010000  0  7G 1G11G14G15G19G22G25
  -2744258.79747  -2138364.38343  23414848.2634   23414846.8174
      1750.2604
  -2178863.75849  -1696143.20744  22538599.4584   22538595.9934
      1091.6914
   3661391.80549   2840641.12546  20913555.6694   20913551.9974
     -2695.2084
   6942903.37147   5388641.51243  22862737.0674   22862735.9074
     -4718.9644
   4981801.07048   3866067.15243  23403141.3024   23403136.7474
     -3523.5384
   4901804.20348   3803082.63344  22602636.9974   22602632.6964
     -3297.5534
  -3043138.97748  -2361398.40244  22660952.2864   22660950.1884
      1747.0054
 04  9  2 15 22  0.0010000  0  7G 1G11G14G15G19G22G25
  -2770455.07047  -2158777.05543  23409863.1064   23409862.0364
      1746.4184
  -2195144.09849  -1708829.18744  22535501.2714   22535497.9544
      1085.3564
   3701909.09049   2872213.02346  20921265.7084   20921262.2784
     -2701.1524
   7013752.24247   5443848.39543  22876219.2554   22876217.9194
     -4723.2584
   5034733.62948   3907313.28943  23413214.3564   23413209.4974
     -3528.8374
   4951307.66848   3841656.75044  22612057.1854   22612053.1884
     -3300.2314
  -3069275.53548  -2381764.53144  22655978.6614   22655976.8994
      1742.4374
 04  9  2 15 22 15.0010000  0  7G 1G11G14G15G19G22G25
  -2796595.80947  -2179146.44943  23404888.7164   23404887.3454
      1742.7164
  -2211331.18749  -1721442.50044  22532420.7004   22532417.6694
      1079.1394
   3742513.22349   2903852.59846  20928992.5834   20928989.1264
     -2706.9424
   7084663.10948   5499103.57443  22889713.2244   22889711.6534
     -4727.3914
   5087743.19148   3948619.42243  23423301.1924   23423297.4314
     -3533.9714
   5000849.28548   3880260.58244  22621484.3564   22621480.1424
     -3302.7744
  -3095345.27348  -2402078.59844  22651017.8724   22651016.0484
      1737.9834
 04  9  2 15 22 30.0010000  0  7G 1G11G14G15G19G22G25
  -2822681.84047  -2199473.21542  23399924.7634   23399923.2634
      1739.0694
  -2227425.71149  -1733983.68744  22529358.6924   22529355.0754
      1072.9684
   3783202.91849   2935558.84446  20936735.3174   20936732.0484
     -2712.6464
   7155634.68448   5554406.07043  22903218.7554   22903217.2744
     -4731.4384
   5140828.32448   3989984.43443  23433402.9114   23433398.9624
     -3539.0094
   5050428.04348   3918893.36344  22630919.2864   22630914.8684
     -3305.2514
  -3121348.97748  -2422341.21544  22646069.4034   22646067.0914
      1733.5804
 04  9  2 15 22 45.0010000  0  7G 1G11G14G15G19G22G25
  -2848711.43447  -2219755.99242  23394971.6614   23394970.1774
      1735.3064
  -2243425.91448  -1746451.38744  22526314.1224   22526310.1494
      1066.6804
   3823979.50449   2967332.80547  20944494.9274   20944491.6384
     -2718.4394
   7226668.28548   5609756.88343  22916735.5994   22916734.2244
     -4735.5734
   5193990.36347   4031409.36743  23443518.8884   23443515.7984
     -3544.1364
   5100045.48448   3957556.29344  22640361.2554   22640356.6034
     -3307.8294
  -3147284.76248  -2442550.90644  22641133.8254   22641132.2634
      1729.0524
 04  9  2 15 23  0.0010000  0  7G 1G11G14G15G19G22G25
  -2874683.29347  -2239993.79742  23390029.1384   23390028.3214
      1731.4574
  -2259330.22749  -1758844.35544  22523287.4504   22523283.8604
      1060.2884
   3864844.01249   2999175.27046  20952271.2314   20952268.0524
     -2724.3014
   7297764.85547   5665156.78143  22930265.4114   22930264.0834
     -4739.7714
   5247230.07447   4072894.83243  23453649.8494   23453646.4114
     -3549.3144
   5149702.83648   3996250.31344  22649810.5054   22649805.8884
     -3310.4904
  -3173151.03148  -2462706.43044  22636212.0134   22636209.8214
      1724.4184
 04  9  2 15 23 15.0010000  0  7G 1G11G14G15G19G22G25
  -2900597.76247  -2260186.87142  23385097.2634   23385096.2434
      1727.6314
  -2275138.95349  -1771162.85244  22520279.0914   22520275.2394
      1053.9154
   3905795.73449   3031085.69546  20960064.1144   20960060.6064
     -2730.1154
   7368923.65647   5720605.17243  22943805.8724   22943804.6614
     -4743.9204
   5300546.55947   4114440.09443  23463796.1064   23463792.5794
     -3554.4324
   5199399.58248   4034975.02344  22659267.7084   22659263.3644
     -3313.1164
  -3198947.89148  -2482807.86744  22631302.8884   22631300.9894
      1719.7914
 04  9  2 15 23 30.0010000  0  7G 1G11G14G15G19G22G25
  -2926452.73047  -2280333.58642  23380177.3254   23380176.1694
      1723.6654
  -2290849.79749  -1783405.07044  22517289.3884   22517285.6344
      1047.3904
   3946836.34849   3063065.38746  20967873.8104   20967870.5874
     -2736.0414
   7440146.47348   5776103.43043  22957359.3494   22957358.6694
     -4748.1884
   5353941.53947   4156046.52743  23473957.1464   23473953.3804
     -3559.6654
   5249137.63348   4073731.93444  22668732.2314   22668727.4114
     -3315.8704
  -3224673.08648  -2502853.46144  22626407.3964   22626405.9934
      1715.0134
 04  9  2 15 23 45.0010000  0  7G 1G11G14G15G19G22G25
  -2952248.92647  -2300434.52743  23375269.3254   23375267.8844
      1719.7464
  -2306463.37949  -1795571.50044  22514318.2474   22514314.3724
      1040.9054
   3987964.80549   3095113.52746  20975700.3884   20975697.2784
     -2741.8974
   7511432.19148   5831650.69543  22970924.4894   22970922.6464
     -4752.3814
   5407413.75847   4197713.16843  23484132.5834   23484128.5054
     -3564.8154
   5298916.23048   4112520.43444  22678204.7554   22678200.5834
     -3318.5734
  -3250327.16048  -2522843.62544  22621525.8964   22621523.6464
      1710.2724
 04  9  2 15 24  0.0010000  0  7G 1G11G14G15G19G22G25
  -2977987.59047  -2320490.62543  23370371.0444   23370369.7744
      1715.9114
  -2321980.71549  -1807662.92244  22511365.5914   22511361.7744
      1034.4894
   4029179.59049   3127228.93846  20983543.2944   20983540.1774
     -2747.6524
   7582779.12548   5887245.66843  22984501.5444   22984500.2164
     -4756.4624
   5460961.46547   4239438.61343  23494322.6384   23494318.7944
     -3569.8474
   5348733.92648   4151339.39844  22687685.1614   22687680.2744
     -3321.1804
  -3275911.19148  -2542779.23044  22616657.3724   22616655.1344
      1705.6024
 04  9  2 15 24 15.0010000  0  7G 1G11G14G15G19G22G25
  -3003668.74247  -2340501.90643  23365484.4504   23365483.0914
      1712.0774
  -2337401.77749  -1819679.33644  22508430.4744   22508427.2124
      1028.0714
   4070480.18049   3159411.20346  20991402.4424   20991399.0324
     -2753.3734
   7654186.82447   5942887.98843  22998090.3964   22998089.2204
     -4760.5134
   5514584.12147   4281222.46543  23504526.6144   23504522.9504
     -3574.8444
   5398590.57448   4190188.71944  22697172.4194   22697167.9074
     -3323.7774
  -3301424.92248  -2562660.05944  22611801.9034   22611800.1344
      1700.9154
 04  9  2 15 24 30.0010000  0  7G 1G11G14G15G19G22G25
  -3029290.11347  -2360466.60243  23360608.4274   23360607.1184
      1708.0914
  -2352724.11749  -1831618.81244  22505514.9584   22505511.6534
      1021.4894
   4111868.49249   3191661.83246  20999278.3724   20999274.6854
     -2759.2214
   7725657.25848   5998579.19943  23011690.5284   23011688.5054
     -4764.6964
   5568283.46948   4323066.07043  23514745.1774   23514741.2904
     -3579.9574
   5448488.39548   4229070.12144  22706667.8804   22706663.2394
     -3326.5214
  -3326865.93048  -2582484.21544  22606960.8414   22606958.8214
      1696.0674
 04  9  2 15 24 45.0010000  0  7G 1G11G14G15G19G22G25
  -3054853.39547  -2380386.03542  23355743.7634   23355742.3254
      1704.2194
  -2367949.41448  -1843482.68044  22502617.8564   22502614.1884
      1015.0204
   4153342.46549   3223979.21146  21007170.5444   21007167.6184
     -2764.9324
   7797188.14147   6054317.53143  23025302.3884   23025300.3064
     -4768.7264
   5622057.25448   4364967.68843  23524978.2554   23524973.8924
     -3584.9194
   5498425.35248   4267982.01644  22716170.3494   22716165.5444
     -3329.1304
  -3352235.68048  -2602252.83644  22602132.9894   22602131.1424
      1691.3174
 04  9  2 15 25  0.0010000  0  7G 1G11G14G15G19G22G25
  -3080356.57047  -2400258.63343  23350890.5214   23350890.1614
      1700.2124
  -2383075.39849  -1855269.16844  22499739.5604   22499735.9974
      1008.3994
   4194903.74249   3256364.60946  21015079.4354   21015075.8294
     -2770.7524
   7868781.11748   6110104.23043  23038926.1774   23038924.5914
     -4772.8654
   5675907.12148   4406928.59443  23535225.3494   23535221.6924
     -3589.9914
   5548403.36348   4306925.90644  22725681.0134   22725676.3994
     -3331.8674
  -3377531.95748  -2621964.21144  22597319.0834   22597317.5284
      1686.4184
 04  9  2 15 25 15.0010000  0  7G 1G11G14G15G19G22G25
  -3105801.20347  -2420085.60543  23346048.9034   23346047.7554
      1696.3094
  -2398103.48049  -1866979.35244  22496879.7714   22496876.0754
      1001.8724
   4236550.47349   3288816.60546  21023004.3884   21023001.2594
     -2776.4494
   7940434.34848   6165937.88743  23052560.8494   23052559.7354
     -4776.8824
   5729830.96948   4448947.13743  23545486.9274   23545483.0364
     -3594.9234
   5598420.80549   4345900.52344  22735199.0604   22735194.3724
     -3334.4964
  -3402756.13748  -2641619.39844  22592518.9354   22592517.1064
      1681.6124
 04  9  2 15 25 30.0010000  0  7G 1G11G14G15G19G22G25
  -3131187.64848  -2439867.23443  23341218.4114   23341217.2824
      1692.4304
  -2413033.89849  -1878613.44944  22494038.7004   22494034.9584
       995.3614
   4278282.01649   3321334.68846  21030945.8494   21030942.3724
     -2782.1034
   8012147.04748   6221817.87143  23066207.8804   23066206.3884
     -4780.8474
   5783828.10548   4491022.79743  23555762.3644   23555758.4894
     -3599.8094
   5648477.25849   4384905.53544  22744724.7004   22744719.9114
     -3337.0974
  -3427908.21148  -2661218.40244  22587733.0444   22587731.0674
      1676.8054
 04  9  2 15 25 45.0010000  0  7G 1G11G14G15G19G22G25
  -3156515.21947  -2459603.01643  23336398.4584   23336397.2714
      1688.5054
  -2427865.81649  -1890170.78944  22491216.0524   22491212.4234
       988.7954
   4320098.63349   3353919.05546  21038903.4744   21038899.7944
     -2787.7744
   8083919.51648   6277744.41443  23079865.6614   23079864.4384
     -4784.8314
   5837898.61348   4533155.62144  23566051.5834   23566047.8024
     -3604.7014
   5698573.14848   4423941.27744  22754257.3414   22754253.1884
     -3339.7264
  -3452987.29748  -2680760.53544  22582960.3104   22582958.7634
      1671.9394
 04  9  2 15 26  0.0010000  0  7G 1G11G14G15G19G22G25
  -3181786.19148  -2479294.68043  23331589.9274   23331588.2284
      1684.7324
  -2442601.31249  -1901652.99244  22488411.7394   22488408.1774
       982.3664
   4361997.69149   3386567.66846  21046876.5054   21046872.8254
     -2793.2714
   8155749.10948   6333715.49243  23093534.4664   23093533.0444
     -4788.6404
   5892039.66448   4575343.42243  23576354.6064   23576350.2864
     -3609.4034
   5748706.14848   4463005.93044  22763797.5364   22763792.8454
     -3342.2004
  -3477995.53948  -2700247.46544  22578201.7864   22578199.8374
      1667.2164
 04  9  2 15 26 15.0010000  0  7G 1G11G14G15G19G22G25
  -3206997.22348  -2498939.62943  23326791.9974   23326790.4814
      1680.7354
  -2457237.00849  -1913057.42644  22485626.9034   22485623.2984
       975.7134
   4403982.07049   3419282.76646  21054865.7634   21054862.5284
     -2798.9594
   8227638.74247   6389733.34443  23107214.3644   23107213.7244
     -4792.6424
   5946254.06648   4617588.38343  23586670.8494   23586666.9354
     -3614.2934
   5798879.48849   4502102.02344  22773345.1774   22773340.4154
     -3344.8894
  -3502929.45748  -2719676.48444  22573457.3024   22573455.2554
      1662.2614
 04  9  2 15 26 30.0010000  0  7G 1G11G14G15G19G22G25
  -3232150.52048  -2518539.60243  23322005.5524   23322004.0324
      1676.8864
  -2471774.92648  -1924385.67244  22482860.5364   22482856.9114
       969.1954
   4446049.30549   3452062.41446  21062871.0214   21062867.6184
     -2804.4824
   8299585.87547   6445796.01643  23120905.7864   23120904.5094
     -4796.4764
   6000539.29748   4659888.53544  23597001.2784   23596996.8024
     -3619.0154
   5849090.72748   4541227.64144  22782899.7084   22782895.7714
     -3347.4164
  -3527791.06648  -2739049.15244  22568726.4194   22568723.8964
      1657.4414
 04  9  2 15 26 45.0010000  0  7G 1G11G14G15G19G22G25
  -3257243.57048  -2538092.61743  23317230.3644   23317228.7714
      1672.8704
  -2486212.29349  -1935635.57044  22480112.9274   22480109.5054
       962.4914
   4488201.54749   3484908.31346  21070892.2554   21070888.5634
     -2810.1494
   8371592.50047   6501905.01643  23134608.1854   23134607.3254
     -4800.4424
   6054897.23848   4702245.34043  23607345.4744   23607341.3804
     -3623.8634
   5899342.20749   4580384.62144  22792462.7004   22792458.1694
     -3350.0994
  -3552577.58649  -2758363.32044  22564009.3644   22564007.1184
      1652.4354
 04  9  2 15 27  0.0010000  0  7G 1G11G14G15G19G22G25
  -3282276.97347  -2557599.15643  23312467.0054   23312465.4234
      1668.8934
  -2500549.59849  -1946807.49244  22477384.9034   22477381.0364
       955.8204
   4530437.89849   3517819.74646  21078929.4894   21078926.3454
     -2815.7574
   8443657.66048   6558059.64843  23148322.2084   23148320.2744
     -4804.3444
   6109326.88748   4744658.02743  23617703.2244   23617699.0094
     -3628.6434
   5949633.35548   4619572.51244  22802032.6144   22802028.1924
     -3352.7434
  -3577289.27349  -2777619.16044  22559307.1534   22559305.3024
      1647.4464
 04  9  2 15 27 15.0010000  0  7G 1G11G14G15G19G22G25
  -3307251.96548  -2577060.18043  23307714.4584   23307712.8254
      1664.9994
  -2514787.96548  -1957902.32444  22474675.2244   22474671.7044
       949.2244
   4572756.69149   3550795.42646  21086982.6144   21086979.0174
     -2821.2534
   8515779.76647   6614258.65243  23162046.1854   23162045.7354
     -4808.1404
   6163826.53948   4787125.27043  23628073.7714   23628069.7434
     -3633.3104
   5999962.74649   4658790.20344  22811610.0834   22811605.7044
     -3355.2934
  -3601927.27748  -2796817.58244  22554618.1464   22554616.5014
      1642.5344
 04  9  2 15 27 30.0010000  0  7G 1G11G14G15G19G22G25
  -3332165.44147  -2596473.27343  23302973.4664   23302971.5634
      1660.8984
  -2528924.05549  -1968917.45744  22471985.2394   22471981.6614
       942.4064
   4615160.64149   3583837.45346  21095051.5914   21095048.3804
     -2826.9304
   8587961.55948   6670504.18843  23175781.7864   23175780.7204
     -4812.1204
   6218398.72348   4829649.02043  23638458.6144   23638454.5834
     -3638.1464
   6050333.36748   4698040.02044  22821195.0444   22821190.8214
     -3358.0414
  -3626488.37148  -2815956.08244  22549944.5524   22549942.5214
      1637.4064
 04  9  2 15 27 45.0010000  0  7G 1G11G14G15G19G22G25
  -3357022.31248  -2615842.26243  23298243.2314   23298241.3844
      1657.1254
  -2542962.75849  -1979856.69944  22469313.8174   22469310.3254
       935.9144
   4657644.48849   3616941.74246  21103136.0604   21103133.1884
     -2832.2574
   8660197.69947   6726792.05143  23189527.9894   23189527.0244
     -4815.7434
   6273038.00848   4872225.05943  23648855.9034   23648852.0214
     -3642.6194
   6100740.06349   4737317.93844  22830787.6614   22830783.2394
     -3360.4464
  -3650977.26648  -2835038.32844  22545284.5834   22545282.8494
      1632.5934
 04  9  2 15 28  0.0010000  0  7G 1G11G14G15G19G22G25
  -3381820.92248  -2635165.83643  23293524.1064   23293522.6104
      1653.2414
  -2556902.34049  -1990718.71144  22466661.3494   22466657.7744
       929.3054
   4700209.55949   3650109.32846  21111236.0284   21111232.5954
     -2837.6714
   8732489.43047   6783123.22743  23203284.5914   23203283.5874
     -4819.4494
   6327745.54748   4914854.28943  23659266.3804   23659262.8494
     -3647.1694
   6151184.39549   4776625.19144  22840386.6854   22840382.6104
     -3362.9554
  -3675391.98448  -2854062.76244  22540638.5364   22540636.5714
      1627.6484
 04  9  2 15 28 15.0010000  0  7G 1G11G14G15G19G22G25
  -3406558.25847  -2654441.66843  23288816.9354   23288815.6344
      1649.1564
  -2570739.64849  -2001501.03144  22464028.1534   22464024.2744
       922.4874
   4742858.51649   3683342.27346  21119351.9584   21119348.7354
     -2843.2644
   8804839.29347   6839499.71143  23217052.2244   23217050.9504
     -4823.3244
   6382523.94948   4957538.71544  23669690.2004   23669686.5244
     -3651.8934
   6201669.22748   4815963.99644  22849993.3644   22849989.0324
     -3365.6554
  -3699729.35948  -2873026.93444  22536006.9034   22536005.4234
      1622.4924
 04  9  2 15 28 30.0010000  0  7G 1G11G14G15G19G22G25
  -3431235.61748  -2673670.77343  23284120.9424   23284119.6654
      1645.1574
  -2584475.80149  -2012204.52744  22461414.5284   22461410.4854
       915.7434
   4785589.71149   3716639.30546  21127483.3804   21127479.8214
     -2848.7464
   8877245.64547   6895920.20343  23230831.0754   23230830.0174
     -4827.0904
   6437371.50848   5000277.05543  23680127.1924   23680123.9744
     -3656.5044
   6252193.20748   4855333.30544  22859607.8804   22859603.8804
     -3368.2654
  -3723990.53948  -2891931.73844  22531390.5674   22531388.4154
      1617.4124
 04  9  2 15 28 45.0010000  0  7G 1G11G14G15G19G22G25
  -3455852.05948  -2692852.40643  23279436.2554   23279435.0834
      1641.0964
  -2598109.69149  -2022828.33644  22458819.8414   22458816.0674
       908.9264
   4828403.57849   3750000.75446  21135630.4664   21135627.3104
     -2854.2584
   8949708.99247   6952385.11743  23244620.7084   23244618.8764
     -4830.8904
   6492288.46148   5043069.44943  23690577.5914   23690574.0244
     -3661.1304
   6302757.14848   4894733.76244  22869229.9894   22869225.7474
     -3370.9294
  -3748174.46548  -2910776.34044  22526788.2784   22526786.6464
      1612.2624
 04  9  2 15 29  0.0010000  0  7G 1G11G14G15G19G22G25
  -3480407.53148  -2711986.53143  23274763.7944   23274762.3414
      1637.0324
  -2611641.15649  -2033372.33244  22456244.8024   22456240.7514
       902.0984
   4871299.95349   3783426.49246  21143793.6614   21143790.0284
     -2859.7584
   9022229.14548   7008894.30143  23258420.6854   23258419.4704
     -4834.6774
   6547274.47348   5085915.66443  23701040.9274   23701037.3724
     -3665.7344
   6353360.94148   4934165.27344  22878859.2784   22878855.4354
     -3373.5864
  -3772280.87548  -2929560.53144  22522201.4354   22522199.2784
      1607.0944
 04  9  2 15 29 15.0010000  0  7G 1G11G14G15G19G22G25
  -3504902.93448  -2731073.84843  23270102.3174   23270100.4744
      1633.0274
  -2625070.93749  -2043837.10944  22453689.1774   22453685.5754
       895.3194
   4914277.66849   3816915.61346  21151972.0524   21151968.4464
     -2865.1814
   9094804.73848   7065446.67243  23272231.0674   23272229.5564
     -4838.3734
   6602328.11347   5128814.55943  23711518.0134   23711514.2674
     -3670.2434
   6404003.51648   4973627.00044  22888496.5284   22888492.3884
     -3376.1724
  -3796310.31648  -2948284.75844  22517628.4814   22517626.3564
      1601.9634
 04  9  2 15 29 30.0010000  0  7G 1G11G14G15G19G22G25
  -3529334.78548  -2750111.66443  23265453.4974   23265451.8134
      1628.7904
  -2638395.38749  -2054219.78944  22451153.1774   22451149.4974
       888.2974
   4957339.72749   3850470.45346  21160166.4584   21160163.1814
     -2870.8044
   9167438.76247   7122044.58643  23286052.3564   23286051.6654
     -4842.2684
   6657452.42248   5171768.54743  23722007.4504   23722004.1104
     -3674.9544
   6454688.33248   5013121.63344  22898141.4664   22898137.2474
     -3378.9884
  -3820259.19548  -2966946.20344  22513070.7474   22513069.1424
      1596.5924
 04  9  2 15 29 45.0010000  0  7G 1G11G14G15G19G22G25
  -3553705.10948  -2769101.52343  23260815.9974   23260814.4424
      1624.6884
  -2651616.40649  -2064521.88344  22448637.3254   22448634.0284
       881.4014
   5000483.78149   3884089.19146  21168376.3414   21168372.9074
     -2876.2704
   9240128.88347   7178686.19142  23299885.7394   23299884.0954
     -4846.0084
   6712644.84847   5214775.59043  23732509.9814   23732506.6884
     -3679.4954
   6505413.08648   5052647.39844  22907793.8724   22907789.8414
     -3381.6504
  -3844129.29748  -2985546.26644  22508528.7244   22508526.6964
      1591.3404
 04  9  2 15 30  0.0010000  0  7G 1G11G14G15G19G22G25
  -3578013.89148  -2788043.43043  23256189.5364   23256188.6574
      1620.5854
  -2664733.73449  -2074743.18044  22446141.5914   22446137.8844
       874.4894
   5043709.47349   3917771.54346  21176602.1304   21176598.5524
     -2881.7134
   9312874.73447   7235371.21942  23313728.4894   23313727.7204
     -4849.7234
   6767904.91047   5257835.35243  23743026.0524   23743021.5674
     -3684.0044
   6556177.81348   5092204.31344  22917454.1854   22917449.9704
     -3384.3154
  -3867920.37948  -3004084.74244  22504001.6614   22503999.9154
      1586.0724
 04  9  2 15 30 15.0010000  0  7G 1G11G14G15G19G22G25
  -3602261.39547  -2806937.56643  23251575.3804   23251574.2634
      1616.5004
  -2677747.58649  -2084883.83644  22443664.8724   22443661.4034
       867.5904
   5087016.28549   3951517.09846  21184843.0524   21184839.8764
     -2887.1214
   9385675.61347   7292099.14842  23327581.9584   23327580.4424
     -4853.3924
   6823231.95347   5300947.30143  23753553.9504   23753550.7284
     -3688.4704
   6606982.15248   5131792.08644  22927121.8174   22927117.5674
     -3386.9564
  -3891632.41848  -3022561.64544  22499488.8804   22499487.0794
      1580.8034
 04  9  2 15 30 30.0010000  0  7G 1G11G14G15G19G22G25
  -3626447.94146  -2825784.21543  23246972.6224   23246971.6144
      1612.4364
  -2690658.10549  -2094943.99244  22441208.5444   22441204.4704
       860.7014
   5130403.57049   3985325.37146  21193099.3174   21193095.9354
     -2892.4864
   9458530.80947   7348869.39543  23341446.3494   23341444.7634
     -4857.0134
   6878625.09847   5344110.76643  23764095.3414   23764091.9274
     -3692.8764
   6657825.63348   5171410.35944  22936797.2554   22936793.1614
     -3389.5654
  -3915265.68447  -3040977.15244  22494991.7944   22494990.0094
      1575.5514
 04  9  2 15 30 45.0010000  0  7G 1G11G14G15G19G22G25
  -3650574.73046  -2844584.28143  23242381.9274   23242380.6924
      1608.4534
  -2703466.19149  -2104924.31644  22438771.0604   22438767.2744
       853.8724
   5173869.59449   4019194.99246  21201370.7714   21201367.0524
     -2897.7354
   9531438.79347   7405680.78543  23355319.2004   23355318.3964
     -4860.5324
   6934082.64547   5387324.40643  23774648.4814   23774644.7434
     -3697.1704
   6708706.84048   5211058.03544  22946479.8254   22946475.2784
     -3392.0804
  -3938821.09847  -3059332.00044  22490509.4504   22490507.3724
      1570.3614
 04  9  2 15 31  0.0010000  0  7G 1G11G14G15G19G22G25
  -3674639.31246  -2863335.89843  23237801.8104   23237801.3494
      1604.3054
  -2716169.37949  -2114822.90644  22436353.5834   22436350.1694
       846.8794
   5217416.48449   4053127.62146  21209657.5364   21209653.9314
     -2903.1264
   9604401.63347   7462534.89142  23369203.4584   23369202.9314
     -4864.1894
   6989606.52348   5430589.73843  23785214.3494   23785210.4814
     -3701.5924
   6759628.25848   5250737.04344  22956169.9894   22956165.3024
     -3394.7614
  -3962296.09048  -3077624.18744  22486042.4584   22486040.8414
      1564.9994
 04  9  2 15 31 15.0010000  0  7G 1G11G14G15G19G22G25
  -3698642.34446  -2882039.52743  23233234.7164   23233233.7984
      1600.2024
  -2728768.43449  -2124640.34444  22433955.9814   22433952.5634
       839.9374
   5261043.34449   4087122.57046  21217959.1774   21217955.8174
     -2908.4574
   9677418.19947   7519430.87942  23383098.9664   23383098.4354
     -4867.7714
   7045195.67647   5473905.93443  23795792.8884   23795788.8804
     -3705.9434
   6810588.93448   5290446.64844  22965867.4814   22965863.0284
     -3397.3784
  -3985690.96148  -3095853.93444  22481590.2164   22481588.4194
      1559.6584
 04  9  2 15 31 30.0010000  0  7G 1G11G14G15G19G22G25
  -3722583.58247  -2900695.02043  23228679.0214   23228677.8294
      1596.0834
  -2741262.66849  -2134376.11344  22431578.7244   22431575.0874
       832.9494
   5304750.16849   4121179.82846  21226276.3564   21226273.0174
     -2913.7884
   9750488.30947   7576368.58642  23397003.4814   23397002.6774
     -4871.3414
   7100849.75448   5517272.72343  23806384.0674   23806379.4074
     -3710.2724
   6861588.94148   5330186.89844  22975572.3724   22975567.4814
     -3400.0014
  -4009005.21148  -3114020.86745  22477153.8964   22477151.6144
      1554.2834
 04  9  2 15 31 45.0010000  0  7G 1G11G14G15G19G22G25
  -3746465.22748  -2919304.08243  23224134.4114   23224133.2244
      1592.1104
  -2753654.37149  -2144031.98044  22429220.3964   22429216.9544
       826.1144
   5348534.19949   4155297.24646  21234608.2634   21234604.6574
     -2918.9354
   9823609.41447   7633346.03542  23410918.0214   23410917.9974
     -4874.7404
   7156566.02348   5560687.98043  23816985.9664   23816982.2554
     -3714.4184
   6912626.02748   5369956.04344  22985284.2164   22985279.7514
     -3402.4724
  -4032241.00448  -3132126.65645  22472732.2164   22472730.2514
      1549.0534
 04  9  2 15 32  0.0010000  0  7G 1G11G14G15G19G22G25
  -3770286.57048  -2937866.16443  23219601.5054   23219599.8494
      1588.0904
  -2765942.57849  -2153607.20745  22426882.1774   22426878.7714
       819.2144
   5392395.84849   4189475.14146  21242954.7634   21242951.7314
     -2924.1104
   9896781.82447   7690363.46542  23424841.8884   23424841.8414
     -4878.1614
   7212344.83248   5604151.94143  23827601.2634   23827596.8064
     -3718.5874
   6963700.87548   5409754.61744  22995003.5524   22994999.0714
     -3404.9904
  -4055397.44948  -3150170.61744  22468325.7864   22468323.6034
      1543.7634
 04  9  2 15 32 15.0010000  0  7G 1G11G14G15G19G22G25
  -3794046.41447  -2956380.31243  23215079.2004   23215078.6184
      1583.9904
  -2778125.84849  -2163100.66844  22424564.1614   22424560.3134
       812.2184
   5436335.92649   4223714.16446  21251316.3414   21251313.0564
     -2929.3394
   9970006.43047   7747421.52343  23438776.9814   23438775.7824
     -4881.6404
   7268186.82848   5647665.16043  23838226.7394   23838222.7004
     -3722.8004
   7014814.49248   5449583.39144  23004730.3494   23004725.5794
     -3407.5744
  -4078473.12548  -3168151.64844  22463934.5994   22463932.4234
      1538.3784
 04  9  2 15 32 30.0010000  0  7G 1G11G14G15G19G22G25
  -3817745.82447  -2974847.38743  23210570.0444   23210568.7904
      1579.9614
  -2790205.17249  -2172513.12544  22422264.8024   22422261.5874
       805.2884
   5480353.08649   4258013.23446  21259692.8334   21259689.1424
     -2934.4774
  10043281.66447   7804519.07043  23452720.9114   23452719.5564
     -4885.0164
   7324090.42248   5691226.37143  23848864.8174   23848861.0524
     -3726.9064
   7065965.62948   5489441.40244  23014463.7554   23014459.2434
     -3410.0764
  -4101468.82048  -3186070.35944  22459558.7554   22459556.5914
      1533.0464
 04  9  2 15 32 45.0010000  0  7G 1G11G14G15G19G22G25
  -3841383.30948  -2993266.18743  23206072.2714   23206070.4464
      1575.8324
  -2802178.90249  -2181843.30544  22419986.4974   22419983.1814
       798.2494
   5524448.42649   4292373.23046  21268083.7164   21268080.0794
     -2939.6894
  10116608.77747   7861657.02743  23466674.7084   23466673.8724
     -4888.4744
   7380056.68447   5734836.41443  23859515.1774   23859511.2394
     -3731.0844
   7117155.78148   5529329.81344  23024205.3644   23024200.6854
     -3412.6774
  -4124382.76648  -3203925.35245  22455198.3564   22455196.2124
      1527.5964
 04  9  2 15 33  0.0010000  0  7G 1G11G14G15G19G22G25
  -3864959.89548  -3011637.55143  23201585.6614   23201584.2084
      1571.7724
  -2814047.99649  -2191091.94544  22417728.2314   22417724.4584
       791.2734
   5568620.60949   4326793.10546  21276489.0674   21276485.9974
     -2944.8124
  10189986.28147   7918834.26243  23480637.8964   23480636.4314
     -4891.8344
   7436084.18048   5778494.17643  23870176.7084   23870173.0324
     -3735.1664
   7168383.69948   5569247.65644  23033953.2784   23033949.3884
     -3415.1954
  -4147215.84448  -3221717.34444  22450852.9504   22450850.9544
      1522.2054
 04  9  2 15 33 15.0010000  0  7G 1G11G14G15G19G22G25
  -3888476.24648  -3029961.95743  23197110.6694   23197109.0484
      1567.7574
  -2825812.89149  -2200259.40644  22415489.3254   22415485.4114
       784.3264
   5612868.62949   4361272.07846  21284909.3964   21284906.1104
     -2949.8684
  10263413.06347   7976049.90243  23494610.1614   23494609.5214
     -4895.1194
   7492171.59447   5822198.62943  23880849.2864   23880846.0914
     -3739.1614
   7219648.59048   5609194.30544  23043708.8024   23043704.7354
     -3417.6594
  -4169968.51648  -3239446.68444  22446523.5054   22446521.0994
      1516.8454
 04  9  2 15 33 30.0010000  0  7G 1G11G14G15G19G22G25
  -3911930.52348  -3048238.00043  23192647.8334   23192646.0444
      1563.6184
  -2837471.69949  -2209344.19544  22413270.9424   22413266.7904
       777.2544
   5657193.93449   4395811.26646  21293344.0524   21293340.7394
     -2955.0204
  10336890.60948   8033305.09043  23508592.5994   23508592.0914
     -4898.5034
   7548320.28547   5865950.82043  23891534.1144   23891531.2084
     -3743.2464
   7270952.19548   5649171.11744  23053471.0914   23053467.4784
     -3420.2404
  -4192638.85248  -3257111.86744  22442209.5914   22442207.1654
      1511.3564
 04  9  2 15 33 45.0010000  0  7G 1G11G14G15G19G22G25
  -3935323.69548  -3066466.43043  23188195.9504   23188194.4154
      1559.5454
  -2849025.19549  -2218346.91844  22411072.0054   22411068.5914
       770.2334
   5701595.21149   4430409.66046  21301793.5674   21301790.4354
     -2960.0854
  10410417.57847   8090598.78543  23522584.5444   23522583.3374
     -4901.7984
   7604528.83247   5909749.65643  23902230.6224   23902226.8884
     -3747.2364
   7322293.44148   5689177.27044  23063241.3174   23063237.4274
     -3422.7504
  -4215227.60248  -3274713.47744  22437910.7314   22437909.0834
      1505.9174
 04  9  2 15 34  0.0010000  0  7G 1G11G14G15G19G22G25
  -3958655.56248  -3084647.08243  23183755.7714   23183754.2634
      1555.4584
  -2860473.08249  -2227267.34044  22408893.3104   22408890.2164
       763.1924
   5746072.31349   4465067.13346  21310257.3804   21310254.2354
     -2965.1404
  10483993.72747   8147930.79743  23536585.9274   23536584.7164
     -4905.0774
   7660797.01247   5953594.95343  23912937.9894   23912934.2634
     -3751.2124
   7373672.37148   5729212.78144  23073018.7864   23073014.6224
     -3425.2624
  -4237734.25449  -3292251.10545  22433628.3644   22433625.9424
      1500.4434
 04  9  2 15 34 15.0010000  0  7G 1G11G14G15G19G22G25
  -3981924.96548  -3102779.08243  23179327.5284   23179326.0054
      1551.2934
  -2871814.11349  -2236104.50444  22406735.2394   22406731.5794
       756.0694
   5790626.14849   4499784.39846  21318735.5444   21318732.2354
     -2970.2564
  10557619.82847   8205301.75843  23550596.0754   23550595.1304
     -4908.4074
   7717125.43047   5997487.19543  23923656.7944   23923653.0054
     -3755.2284
   7425090.13348   5769278.54744  23082803.0604   23082799.0324
     -3427.8514
  -4260157.53949  -3309723.78144  22429360.7944   22429358.5054
      1494.8864
 04  9  2 15 34 30.0010000  0  7G 1G11G14G15G19G22G25
  -4005131.16048  -3120861.82043  23174911.4744   23174910.4974
      1547.0804
  -2883047.22749  -2244857.58644  22404597.8964   22404594.1814
       748.8744
   5835257.14549   4534561.78946  21327228.6064   21327225.3334
     -2975.4004
  10631296.26247   8262711.92243  23564616.7164   23564615.7744
     -4911.7624
   7773514.47348   6041426.68443  23934387.9424   23934383.8994
     -3759.2704
   7476547.28548   5809375.00044  23092595.1304   23092591.4154
     -3430.4774
  -4282496.46148  -3327130.71144  22425110.2004   22425108.1304
      1489.2614
 04  9  2 15 34 45.0010000  0  7G 1G11G14G15G19G22G25
  -4028275.66848  -3138896.48043  23170507.5604   23170505.9544
      1542.9674
  -2894173.97749  -2253527.77744  22402480.5054   22402477.1064
       741.7834
   5879963.33649   4569397.77046  21335735.9114   21335732.5324
     -2980.4134
  10705021.05148   8320159.77343  23578645.6304   23578644.6534
     -4914.9864
   7829961.93847   6085411.69143  23945129.3644   23945125.8214
     -3763.1644
   7528042.06348   5849500.78144  23102394.2314   23102390.4624
     -3432.9854
  -4304752.35949  -3344472.94944  22420874.4744   22420872.3334
      1483.7274
 04  9  2 15 35  0.0010000  0  7G 1G11G14G15G19G22G25
  -4051357.90247  -3156882.61343  23166115.2244   23166113.8024
      1538.8164
  -2905193.52749  -2262114.44144  22400383.5914   22400380.0444
       734.6374
   5924744.96149   4604292.53146  21344257.3644   21344254.3604
     -2985.4424
  10778794.52348   8377645.55943  23592685.0604   23592682.8564
     -4918.2324
   7886468.05548   6129442.39843  23955882.4424   23955878.1734
     -3767.0744
   7579575.03548   5889656.31344  23112200.5364   23112196.7744
     -3435.5324
  -4326924.39549  -3361749.84044  22416655.8334   22416653.1264
      1478.1364
 04  9  2 15 35 15.0010000  0  7G 1G11G14G15G19G22G25
  -4074378.38747  -3174820.64543  23161734.2394   23161732.8134
      1534.6994
  -2916106.39549  -2270617.98045  22398307.1064   22398303.6224
       727.5244
   5969601.14849   4639245.39146  21352793.4974   21352790.2044
     -2990.4124
  10852615.73047   8435168.52743  23606732.0134   23606731.4274
     -4921.4144
   7943031.73847   6173517.95743  23966645.8104   23966641.9704
     -3770.9124
   7631145.53548   5929841.10544  23122013.9114   23122009.9934
     -3438.0334
  -4349012.92249  -3378961.66844  22412452.4274   22412450.2314
      1472.5684
 04  9  2 15 35 30.0010000  0  7G 1G11G14G15G19G22G25
  -4097336.88747  -3192710.35943  23157365.3414   23157364.2744
      1530.5674
  -2926912.03949  -2279037.96145  22396250.6774   22396247.2244
       720.3764
   6014531.80549   4674256.28946  21361343.3884   21361340.3964
     -2995.3774
  10926484.46948   8492728.54342  23620789.0914   23620788.2244
     -4924.5834
   7999652.74647   6217638.18843  23977420.3884   23977417.1534
     -3774.7344
   7682753.78148   5970055.29744  23131834.8644   23131831.2314
     -3440.5504
  -4371017.44149  -3396108.02744  22408265.4274   22408262.8494
      1466.9684
 04  9  2 15 35 45.0010000  0  7G 1G11G14G15G19G22G25
  -4120230.79748  -3210549.75843  23153009.1774   23153007.6264
      1526.2614
  -2937607.69149  -2287372.24245  22394215.5994   22394211.7354
       713.0434
   6059539.18449   4709326.96546  21369908.0524   21369904.8724
     -3000.4924
  11000403.03147   8550327.38342  23634855.2084   23634854.3254
     -4927.9044
   8056333.25048   6261804.78143  23988206.5054   23988202.9504
     -3778.7004
   7734402.16448   6010300.76644  23141663.4424   23141659.5364
     -3443.2264
  -4392935.20749  -3413186.79344  22404094.3644   22404091.8844
      1461.1844
 04  9  2 15 36  0.0010000  0  7G 1G11G14G15G19G22G25
  -4143062.16047  -3228340.43743  23148664.2164   23148663.1854
      1522.0914
  -2948195.31249  -2295622.33644  22392200.5524   22392197.0524
       705.8414
   6104621.00449   4744455.64146  21378486.6924   21378483.4314
     -3005.4554
  11074368.91447   8607963.11742  23648930.3334   23648929.1774
     -4931.0594
   8113070.68848   6306015.73843  23999003.4114   23999000.0714
     -3782.4964
   7786088.52748   6050575.84044  23151499.1304   23151495.0874
     -3445.7584
  -4414767.99248  -3430199.33244  22399939.6384   22399937.0874
      1455.5194
 04  9  2 15 36 15.0010000  0  7G 1G11G14G15G19G22G25
  -4165829.82847  -3246081.46143  23144331.7714   23144330.6534
      1517.8454
  -2958673.64149  -2303787.27045  22390206.7004   22390203.1464
       698.5554
   6149777.88349   4779642.81346  21387079.9114   21387076.7474
     -3010.4594
  11148382.92647   8665636.30142  23663014.8414   23663014.4544
     -4934.2674
   8169865.69947   6350271.55543  24009811.5214   24009807.5324
     -3786.3344
   7837813.96948   6090881.35244  23161342.0914   23161337.9784
     -3448.3634
  -4436514.56649  -3447144.69945  22395801.0524   22395798.8104
      1449.7724
 04  9  2 15 36 30.0010000  0  7G 1G11G14G15G19G22G25
  -4188532.94148  -3263772.18044  23140011.8104   23140010.2554
      1513.5414
  -2969041.56649  -2311866.17245  22388233.9974   22388230.2434
       691.1954
   6195010.44949   4814888.95746  21395687.4194   21395684.0994
     -3015.5044
  11222445.49247   8723347.35542  23677107.9504   23677107.0834
     -4937.5044
   8226718.73848   6394572.58643  24020630.2314   24020626.0324
     -3790.2034
   7889579.27748   6131217.93044  23171192.8884   23171188.6104
     -3451.0214
  -4458173.86349  -3464022.05144  22391679.4114   22391677.4114
      1443.9534
 04  9  2 15 36 45.0010000  0  7G 1G11G14G15G19G22G25
  -4211174.21947  -3281414.72744  23135703.3724   23135701.8534
      1509.4184
  -2979301.82449  -2319861.18045  22386281.0134   22386277.7714
       684.0174
   6240315.69949   4850191.74246  21404308.5834   21404305.2594
     -3020.3504
  11296553.61347   8781093.87942  23691211.0444   23691209.9114
     -4940.5414
   8283626.51648   6438916.27743  24031459.3644   24031455.6774
     -3793.8524
   7941381.49248   6171583.27744  23181050.3174   23181046.1224
     -3453.4814
  -4479748.40649  -3480833.36745  22387574.0134   22387571.7984
      1438.3034
 04  9  2 15 37  0.0010000  0  7G 1G11G14G15G19G22G25
  -4233753.36748  -3299008.84444  23131406.3964   23131405.0914
      1505.2774
  -2989453.89149  -2327771.87545  22384349.4894   22384346.0174
       676.8044
   6285693.59849   4885551.13346  21412944.0364   21412940.6384
     -3025.1934
  11370707.03547   8838875.73842  23705321.9744   23705320.9034
     -4943.5614
   8340588.92248   6483302.55143  24042298.2164   24042295.7634
     -3797.4944
   7993220.85948   6211977.57044  23190914.6774   23190910.4584
     -3455.9584
  -4501237.51249  -3497578.10545  22383484.9274   22383482.8334
      1432.6074
 04  9  2 15 37 15.0010000  0  7G 1G11G14G15G19G22G25
  -4256269.17648  -3316553.62143  23127121.7394   23127120.6304
      1501.0544
  -2999496.52049  -2335597.30545  22382438.5524   22382435.2004
       669.5094
   6331144.87149   4920967.70746  21421593.0674   21421589.7474
     -3030.0854
  11444906.63747   8896693.56342  23719441.4584   23719440.8844
     -4946.6404
   8397606.59847   6527731.87143  24053148.3564   24053145.0284
     -3801.1784
   8045098.44148   6252401.64544  23200786.8494   23200783.0714
     -3458.5054
  -4522639.84849  -3514255.23044  22379412.2394   22379409.8134
      1426.8224
 04  9  2 15 37 30.0010000  0  7G 1G11G14G15G19G22G25
  -4278721.80547  -3334049.17244  23122849.2004   23122847.9664
      1496.8424
  -3009429.62949  -2343337.39145  22380548.0604   22380544.9194
       662.2074
   6376669.11349   4956441.13346  21430256.1614   21430252.6344
     -3034.9494
  11519151.93847   8954547.00842  23733570.2084   23733568.7244
     -4949.6874
   8454678.94148   6572203.80143  24064009.3334   24064005.4974
     -3804.8234
   8097014.04348   6292855.34044  23210666.2084   23210662.3454
     -3461.0404
  -4543955.50049  -3530864.80945  22375355.9114   22375353.6104
      1421.0434
 04  9  2 15 37 45.0010000  0  7G 1G11G14G15G19G22G25
  -4301112.39148  -3351496.36744  23118588.4504   23118587.1224
      1492.7064
  -3019254.24249  -2350992.93445  22378678.7004   22378675.1464
       654.9744
   6422264.85949   4991970.27746  21438932.8024   21438929.1384
     -3039.7164
  11593441.49647   9012434.95342  23747706.9894   23747704.7204
     -4952.6374
   8511804.34448   6616717.07443  24074879.9114   24074876.4384
     -3808.3604
   8148966.34048   6333337.63744  23220552.0834   23220548.1924
     -3463.4864
  -4565185.32849  -3547407.51245  22371315.8174   22371313.8724
      1415.3224
 04  9  2 15 38  0.0020000  0  7G 1G11G14G15G19G22G25
  -4323441.13347  -3368895.38743  23114339.3544   23114337.8264
      1488.5834
  -3028969.58649  -2358563.33245  22376829.9794   22376826.3384
       647.6904
   6467936.10249   5027558.25846  21447623.4474   21447620.4324
     -3044.7494
  11667781.09047   9070361.85942  23761853.3304   23761852.2174
     -4955.9734
   8568987.40247   6661275.28543  24085761.2214   24085757.8544
     -3812.2044
   8200960.03148   6373852.18444  23230446.3144   23230442.4084
     -3466.2464
  -4586329.28148  -3563883.30144  22367292.2054   22367290.3774
      1409.5974
 04  9  2 15 38 15.0020000  0  7G 1G11G14G15G19G22G25
  -4345704.88348  -3386243.74644  23110102.5254   23110101.4164
      1484.2504
  -3038574.00449  -2366047.28945  22375001.8544   22374998.6004
       640.2954
   6513676.69149   5063200.26246  21456327.8304   21456324.2994
     -3049.3734
  11742160.52047   9128319.82842  23776007.3854   23776005.8464
     -4958.6294
   8626220.25447   6705872.27043  24096652.4714   24096649.0254
     -3815.5234
   8252988.20748   6414393.60244  23240346.8934   23240342.9794
     -3468.5454
  -4607384.05149  -3580289.59045  22363285.8934   22363283.4864
      1403.6514
 04  9  2 15 38 30.0020000  0  7G 1G11G14G15G19G22G25
  -4367906.18048  -3403543.44544  23105878.0104   23105876.4124
      1480.0864
  -3048069.06249  -2373446.03545  22373195.0964   22373191.8114
       633.0044
   6559488.21949   5098897.54746  21465045.2754   21465042.0294
     -3054.1024
  11816583.36748   9186311.61742  23790169.7134   23790168.6114
     -4961.5234
   8683505.09848   6750509.77043  24107553.8384   24107549.6504
     -3818.9904
   8305053.25448   6454963.75444  23250254.7754   23250250.6784
     -3471.0034
  -4628351.93049  -3596628.17245  22359295.5884   22359293.7214
      1397.8594
 04  9  2 15 38 45.0020000  0  7G 1G11G14G15G19G22G25
  -4390044.46148  -3420794.05544  23101665.2914   23101663.7994
      1475.8854
  -3057454.06649  -2380759.03145  22371409.1044   22371405.5414
       625.6674
   6605370.87549   5134650.25846  21473776.2524   21473773.0884
     -3058.8444
  11891049.82847   9244337.37542  23804339.2684   23804339.2254
     -4964.4314
   8740842.12947   6795187.95743  24118464.5574   24118460.8424
     -3822.4694
   8357155.59048   6495562.96944  23260169.2364   23260165.0644
     -3473.4894
  -4649232.07449  -3612898.38745  22355321.8304   22355320.1004
      1392.0104
 04  9  2 15 39  0.0020000  0  7G 1G11G14G15G19G22G25
  -4412119.00048  -3437994.98044  23097464.4554   23097462.8734
      1471.6364
  -3066728.22349  -2387985.64144  22369644.8074   22369641.4244
       618.2774
   6651325.05949   5170458.69946  21482521.3224   21482518.2524
     -3063.6124
  11965560.21547   9302397.37143  23818518.9244   23818518.4754
     -4967.3594
   8798231.49647   6839906.91443  24129385.2604   24129381.4324
     -3825.9584
   8409295.68048   6536191.59044  23270091.4794   23270087.2404
     -3476.0064
  -4670023.72749  -3629099.65245  22351365.5184   22351363.5414
      1386.1104
 04  9  2 15 39 15.0020000  0  7G 1G11G14G15G19G22G25
  -4434130.57448  -3455146.85244  23093275.7914   23093274.4084
      1467.4384
  -3075892.15649  -2395126.37945  22367900.4394   22367897.5214
       610.9294
   6697349.61749   5206321.98446  21491279.3304   21491276.5684
     -3068.3044
  12040113.41047   9360490.71942  23832706.1894   23832705.5374
     -4970.2134
   8855671.96947   6884665.69543  24140316.0184   24140312.7404
     -3829.3654
   8461472.79748   6576849.06644  23280020.4944   23280015.9714
     -3478.4744
  -4690727.39549  -3645232.35245  22347425.9794   22347423.6584
      1380.2454
 04  9  2 15 39 30.0020000  0  7G 1G11G14G15G19G22G25
  -4456079.84848  -3472250.17243  23089098.9864   23089097.2014
      1463.2854
  -3084946.37949  -2402181.61345  22366177.6744   22366174.4864
       603.6154
   6743443.59849   5242239.36346  21500050.8144   21500047.7134
     -3072.9324
  12114708.24248   9418616.53142  23846900.9714   23846899.8774
     -4972.9894
   8913162.42647   6929463.42643  24151256.0104   24151252.7754
     -3832.6974
   8513686.19948   6617534.80944  23289956.4164   23289952.3574
     -3480.8934
  -4711343.62549  -3661296.93045  22343502.9474   22343500.3894
      1374.4154
 04  9  2 15 39 45.0020000  0  7G 1G11G14G15G19G22G25
  -4477967.07448  -3489305.16044  23084934.1504   23084932.5294
      1459.1484
  -3093891.02749  -2409151.47745  22364475.5964   22364471.9434
       596.3104
   6789606.41849   5278210.38346  21508835.2604   21508832.3034
     -3077.5214
  12189344.12947   9476774.31342  23861103.5494   23861103.5064
     -4975.7264
   8970702.10948   6974299.52043  24162205.8224   24162202.0724
     -3835.9794
   8565935.44948   6658248.49644  23299898.9244   23299895.0884
     -3483.2834
  -4731872.40649  -3677293.36345  22339596.1114   22339594.2254
      1368.5854
 04  9  2 15 40  0.0020000  0  7G 1G11G14G15G19G22G25
  -4499790.49248  -3506310.41044  23080781.2214   23080779.6934
      1454.8954
  -3102724.10249  -2416034.39545  22362794.8934   22362791.2714
       588.8724
   6835839.43849   5314236.09846  21517633.0644   21517630.1234
     -3082.2014
  12264022.50847   9534965.20343  23875314.4714   23875314.4944
     -4978.5594
   9028292.31647   7019174.95743  24173164.6974   24173161.2254
     -3839.3474
   8618222.21948   6698991.41444  23309848.5574   23309844.9794
     -3485.7854
  -4752311.64149  -3693220.01245  22335706.7684   22335704.4984
      1362.6164
 04  9  2 15 40 15.0020000  0  7G 1G11G14G15G19G22G25
  -4521550.74248  -3523266.45344  23076640.4244   23076639.0374
      1450.6834
  -3111446.12549  -2422830.77745  22361134.9324   22361131.3934
       581.4684
   6882141.84449   5350315.89146  21526444.2754   21526441.1234
     -3086.8274
  12338742.42247   9593188.46943  23889533.2684   23889532.8344
     -4981.3284
   9085931.81347   7064088.83243  24184133.5184   24184129.1864
     -3842.6334
   8670545.76648   6739762.98444  23319805.3544   23319801.7174
     -3488.2364
  -4772661.92649  -3709077.35245  22331834.1894   22331831.9594
      1356.6864
 04  9  2 15 40 30.0020000  0  7G 1G11G14G15G19G22G25
  -4543247.06648  -3540172.67644  23072512.1584   23072510.2134
      1446.4224
  -3120056.30149  -2429540.00845  22359496.3304   22359493.2364
       574.0124
   6928513.93049   5386449.97346  21535268.5724   21535265.2754
     -3091.4724
  12413504.18848   9651444.33642  23903760.3074   23903759.5214
     -4984.1184
   9143620.97347   7109041.38743  24195111.1824   24195107.5884
     -3845.9444
   8722906.73048   6780563.71544  23329769.9084   23329765.6934
     -3490.7314
  -4792922.33649  -3724864.67245  22327978.5254   22327976.5254
      1350.6944
 04  9  2 15 40 45.0020000  0  7G 1G11G14G15G19G22G25
  -4564879.47748  -3557029.09844  23068395.4794   23068393.5884
      1442.1614
  -3128554.56249  -2436162.02745  22357879.2524   22357875.4124
       566.5514
   6974955.35549   5422638.09846  21544105.8614   21544102.8144
     -3096.0954
  12488307.33247   9709732.45342  23917994.5184   23917994.3964
     -4986.8764
   9201359.26647   7154032.24243  24206098.3304   24206095.1194
     -3849.2204
   8775304.87548   6821393.42244  23339740.4324   23339736.8894
     -3493.2104
  -4813092.63749  -3740581.77045  22324140.5334   22324138.5614
      1344.6874
 04  9  2 15 41  0.0020000  0  7G 1G11G14G15G19G22G25
  -4586448.60948  -3573836.21143  23064290.6044   23064289.2294
      1437.9424
  -3136941.18049  -2442697.05945  22356283.7364   22356279.5644
       559.1084
   7021465.24649   5458879.56346  21552956.7684   21552953.5184
     -3100.6594
  12563150.89547   9768052.06342  23932236.5414   23932236.0184
     -4989.5714
   9259145.57847   7199060.52343  24217094.5494   24217091.5184
     -3852.4214
   8827739.45348   6862251.51244  23349718.8854   23349714.5644
     -3495.6394
  -4833173.27349  -3756228.98845  22320319.1664   22320317.2994
      1338.7094
 04  9  2 15 41 15.0020000  0  7G 1G11G14G15G19G22G25
  -4607953.73448  -3590593.43043  23060198.3614   23060196.8894
      1433.6754
  -3145215.39548  -2449144.49645  22354708.6894   22354705.4434
       551.6144
   7068043.98849   5495174.67646  21561820.1894   21561816.8934
     -3105.2494
  12638035.24647   9826403.44942  23946487.0184   23946486.4244
     -4992.2904
   9316980.16847   7244126.39543  24228101.0414   24228096.4714
     -3855.6394
   8880211.27048   6903138.61344  23359703.9004   23359699.8344
     -3498.1214
  -4853163.26249  -3771805.59045  22316515.0254   22316513.1974
      1332.6664
 04  9  2 15 41 30.0020000  0  7G 1G11G14G15G19G22G25
  -4629394.60948  -3607300.59843  23056118.3774   23056116.7564
      1429.3924
  -3153376.87149  -2455504.09045  22353155.9324   22353152.1434
       544.0984
   7114691.44549   5531523.33646  21570697.0024   21570693.7954
     -3109.8304
  12712960.22347   9884786.49642  23960744.7214   23960743.5844
     -4994.9984
   9374862.92647   7289229.82443  24239114.9394   24239110.9004
     -3858.8514
   8932720.30548   6944054.71944  23369696.1824   23369692.1824
     -3500.6024
  -4873062.20349  -3787311.22745  22312728.7834   22312726.2644
      1326.5964
 04  9  2 15 41 45.0020000  0  7G 1G11G14G15G19G22G25
  -4650772.60248  -3623958.76243  23052049.8074   23052048.6274
      1425.1994
  -3161426.88349  -2461776.82845  22351623.9244   22351620.5104
       536.6674
   7161405.88749   5567924.19546  21579586.5104   21579583.1314
     -3114.2964
  12787924.10247   9943199.85542  23975009.5494   23975009.3934
     -4997.5924
   9432791.83647   7334369.21143  24250137.6354   24250134.9474
     -3861.9274
   8985265.17248   6984998.75844  23379694.8694   23379691.1784
     -3502.9914
  -4892871.22749  -3802746.80545  22308959.0574   22308956.8384
      1320.6024
 04  9  2 15 42  0.0020000  0  7G 1G11G14G15G19G22G25
  -4672086.89148  -3640567.27743  23047994.1354   23047992.8264
      1420.9534
  -3169364.36749  -2467961.87945  22350113.1894   22350110.1354
       529.1664
   7208187.87149   5604377.68446  21588488.7994   21588485.3934
     -3118.7994
  12862927.38347  10001643.91842  23989282.4244   23989281.8734
     -5000.2194
   9490767.42647   7379544.96143  24261171.1434   24261167.2444
     -3865.0394
   9037846.54748   7025971.22344  23389701.0334   23389697.1934
     -3505.4254
  -4912589.43049  -3818111.62145  22305206.8774   22305204.6544
      1314.5474
 04  9  2 15 42 15.0020000  0  7G 1G11G14G15G19G22G25
  -4693335.76248  -3657124.82043  23043950.2994   23043949.4634
      1416.5914
  -3177187.53549  -2474057.85545  22348624.8224   22348621.2994
       521.5454
   7255038.79749   5640884.89846  21597404.2214   21597400.9634
     -3123.3954
  12937971.34447  10060119.69942  24003562.5964   24003562.2134
     -5002.9314
   9548790.74247   7424757.89543  24272212.5184   24272208.5254
     -3868.2214
   9090466.06648   7066973.43844  23399713.9634   23399710.5184
     -3507.9684
  -4932214.72749  -3833404.04345  22301472.6504   22301469.8894
      1308.3534
 04  9  2 15 42 30.0020000  0  7G 1G11G14G15G19G22G25
  -4714519.57448  -3673631.68043  23039919.5024   23039917.8384
      1412.2544
  -3184896.62949  -2480064.94545  22347158.0494   22347154.1354
       513.9404
   7301957.99249   5677445.29746  21606332.3544   21606329.1434
     -3127.9464
  13013055.23847  10118626.56642  24017851.1044   24017850.0644
     -5005.5934
   9606861.01647   7470007.42643  24283262.7294   24283258.9794
     -3871.3524
   9143123.26248   7108004.98044  23409734.6504   23409730.3774
     -3510.4804
  -4951747.41449  -3848624.30145  22297755.5724   22297753.1544
      1302.1794
 04  9  2 15 42 45.0020000  0  7G 1G11G14G15G19G22G25
  -4735639.70348  -3690088.89544  23035900.2134   23035898.8934
      1408.0094
  -3192492.75449  -2485984.01245  22345712.3694   22345708.9124
       506.4084
   7348943.72749   5714057.55146  21615273.6894   21615270.6934
     -3132.3824
  13088177.27747  10177163.18842  24032145.6664   24032145.8384
     -5008.1364
   9664976.43447   7515292.14143  24294321.6664   24294317.9634
     -3874.3614
   9195816.72748   7149064.80144  23419761.6824   23419757.8144
     -3512.8984
  -4971188.57049  -3863773.23445  22294055.7294   22294052.9634
      1296.0774
 04  9  2 15 43  0.0020000  0  7G 1G11G14G15G19G22G25
  -4756694.59048  -3706495.28944  23031894.3544   23031891.9474
      1403.6594
  -3199974.25049  -2491813.74645  22344288.3304   22344285.2684
       498.7664
   7395997.29349   5750722.66046  21624227.6044   21624224.4244
     -3136.9044
  13163338.66847  10235730.44142  24046449.2914   24046448.6894
     -5010.7594
   9723138.10247   7560612.87943  24305388.8074   24305386.0684
     -3877.4454
   9248547.85548   7190153.97744  23429796.2604   23429792.3694
     -3515.4094
  -4990536.42649  -3878849.46145  22290373.7994   22290371.5494
      1289.8574
 04  9  2 15 43 15.0020000  0  7G 1G11G14G15G19G22G25
  -4777684.18048  -3722850.80144  23027899.6744   23027897.8144
      1399.3064
  -3207341.12549  -2497554.16445  22342886.8854   22342883.7954
       491.1254
   7443118.36749   5787440.36746  21633194.5184   21633191.3304
     -3141.4054
  13238539.04747  10294328.10242  24060759.5254   24060758.5924
     -5013.3594
   9781345.53147   7605969.27743  24316465.9324   24316462.9944
     -3880.4954
   9301316.60948   7231272.46944  23439837.8384   23439833.7794
     -3517.9174
  -5009790.80149  -3893852.85545  22286709.9794   22286707.8304
      1283.6254
 04  9  2 15 43 30.0020000  0  7G 1G11G14G15G19G22G25
  -4798606.98848  -3739154.26243  23023918.3384   23023916.6394
      1394.8544
  -3214591.53549  -2503203.84045  22341507.1434   22341503.7954
       483.3614
   7490308.14149   5824211.60946  21642174.5024   21642171.4754
     -3145.9854
  13313779.65647  10352957.08242  24075077.2604   24075077.0614
     -5016.0414
   9839599.78547   7651362.16842  24327551.0184   24327547.8224
     -3883.6174
   9354124.37948   7272421.35244  23449886.5724   23449882.8814
     -3520.5184
  -5028950.00449  -3908782.08245  22283064.0724   22283061.6544
      1277.2804
 04  9  2 15 43 45.0020000  0  7G 1G11G14G15G19G22G25
  -4819464.12548  -3755406.56244  23019948.8854   23019947.4594
      1390.4764
  -3221726.63749  -2508763.66445  22340148.8544   22340145.8184
       475.6734
   7537565.03949   5861035.16046  21651167.1354   21651164.2094
     -3150.4604
  13389058.88747  10411616.18042  24089402.5104   24089401.2994
     -5018.6154
   9897899.17247   7696790.24242  24338645.4324   24338641.6744
     -3886.6264
   9406969.91048   7313599.66444  23459943.1824   23459939.0574
     -3523.0354
  -5048014.84849  -3923637.78945  22279436.1354   22279433.8114
      1270.9904
 04  9  2 15 44  0.0020000  0  7G 1G11G14G15G19G22G25
  -4840255.12548  -3771607.32044  23015992.7054   23015991.4004
      1386.0674
  -3228745.75849  -2514233.09845  22338813.5574   22338810.0414
       467.9414
   7584889.33649   5897911.22346  21660172.6894   21660169.4324
     -3154.9534
  13464376.85248  10470305.45742  24103735.1434   24103734.2794
     -5021.1984
   9956243.79347   7742253.54742  24349747.6274   24349744.2324
     -3889.6414
   9459853.56648   7354807.68844  23470006.0184   23470002.2134
     -3525.5774
  -5066984.78149  -3938419.54745  22275826.1274   22275824.0294
      1264.6624
 04  9  2 15 44 15.0020000  0  7G 1G11G14G15G19G22G25
  -4860980.02048  -3787756.57044  23012048.4004   23012047.4124
      1381.6604
  -3235648.82449  -2519612.11745  22337500.0334   22337496.6544
       460.2044
   7632280.68049   5934839.53946  21669191.0644   21669187.8574
     -3159.4234
  13539733.17247  10529024.62542  24118074.5414   24118073.8034
     -5023.7554
  10014633.12947   7787751.68042  24360859.6504   24360855.9044
     -3892.6224
   9512775.30148   7396045.38744  23480076.8614   23480073.2684
     -3528.1164
  -5085859.47749  -3953127.07845  22272234.7214   22272232.0064
      1258.3134
 04  9  2 15 44 30.0020000  0  7G 1G11G14G15G19G22G25
  -4881639.13748  -3803854.56644  23008117.6504   23008116.1894
      1377.2744
  -3242435.91049  -2524900.75044  22336207.8774   22336204.8694
       452.4724
   7679738.49249   5971819.64146  21678222.0884   21678218.7954
     -3163.8544
  13615127.10548  10587773.12942  24132422.3694   24132420.7364
     -5026.2624
  10073066.44947   7833284.11342  24371979.8774   24371975.0574
     -3895.5554
   9565734.62148   7437312.36344  23490155.2994   23490151.1824
     -3530.6214
  -5104639.19549  -3967760.60945  22268660.8464   22268658.4084
      1251.9814
 04  9  2 15 44 45.0020000  0  7G 1G11G14G15G19G22G25
  -4902232.06648  -3819900.98444  23004198.8384   23004197.3654
      1372.8624
  -3249106.50848  -2530098.62145  22334938.9634   22334935.4164
       444.7074
   7727262.83649   6008851.59446  21687265.7054   21687262.1974
     -3168.2904
  13690558.73447  10646550.96942  24146776.5724   24146775.8464
     -5028.7754
  10131543.62547   7878850.71942  24383106.8694   24383102.8854
     -3898.4784
   9618731.87548   7478608.90644  23500239.9794   23500235.8814
     -3533.1504
  -5123323.29749  -3982319.64145  22265105.4634   22265103.0924
      1245.6074
 04  9  2 15 45  0.0020000  0  7G 1G11G14G15G19G22G25
  -4922760.35948  -3835897.03944  23000292.2054   23000291.0644
      1368.5534
  -3255662.09049  -2535206.87144  22333691.6584   22333688.2954
       437.0394
   7774851.77049   6045933.86746  21696321.5254   21696318.0964
     -3172.5964
  13766026.16847  10705356.71542  24161136.9164   24161136.2484
     -5031.1624
  10190062.62147   7924449.89842  24394242.9324   24394239.0534
     -3901.2664
   9671765.40648   7519933.70743  23510331.9864   23510327.5614
     -3535.5694
  -5141913.19149  -3996805.26245  22261567.8774   22261565.0764
      1239.3264
 04  9  2 15 45 15.0020000  0  7G 1G11G14G15G19G22G25
  -4943222.62948  -3851841.64844  22996398.7294   22996397.0964
      1364.1514
  -3262101.29349  -2540224.43445  22332466.0104   22332462.9394
       429.2804
   7822506.37549   6083067.31646  21705389.9474   21705386.7714
     -3176.9744
  13841530.28947  10764191.07042  24175505.4714   24175504.1624
     -5033.6084
  10248624.35247   7970082.39542  24405385.9794   24405382.8344
     -3904.1154
   9724836.43048   7561287.73843  23520431.0494   23520426.8264
     -3538.0684
  -5160407.33249  -4011216.25045  22258048.4554   22258045.7874
      1232.9434
 04  9  2 15 45 30.0020000  0  7G 1G11G14G15G19G22G25
  -4963617.87948  -3867734.03544  22992517.6894   22992516.1274
      1359.6834
  -3268422.77748  -2545150.26644  22331263.0884   22331259.7254
       421.4324
   7870227.28149   6120252.43846  21714470.7524   21714467.5144
     -3181.3944
  13917071.77047  10823054.51642  24189880.5884   24189879.2914
     -5036.0994
  10307229.36747   8015748.60242  24416538.4944   24416535.3694
     -3907.0014
   9777945.86348   7602671.69143  23530537.2834   23530533.2684
     -3540.6294
  -5178804.50049  -4025551.69945  22254547.6434   22254545.3184
      1226.4784
 04  9  2 15 45 45.0020000  0  7G 1G11G14G15G19G22G25
  -4983947.81248  -3883575.52044  22988648.8694   22988647.3694
      1355.3294
  -3274628.15248  -2549985.62545  22330082.5884   22330079.1154
       413.6924
   7918012.53549   6157487.69146  21723564.0964   21723560.7684
     -3185.6844
  13992648.47747  10881945.40642  24204261.7524   24204261.3224
     -5038.4474
  10365875.55147   8061446.89142  24427699.0574   24427695.2754
     -3909.7464
   9831091.99248   7644084.25443  23540650.5884   23540646.6044
     -3543.0754
  -5197106.05949  -4039812.64145  22251064.6664   22251062.7994
      1220.1044
 04  9  2 15 46  0.0020000  0  7G 1G11G14G15G19G22G25
  -5004211.69948  -3899365.54744  22984793.1354   22984791.1544
      1350.9264
  -3280716.61348  -2554729.87945  22328923.5724   22328920.3184
       405.8974
   7965862.52349   6194773.38745  21732669.3694   21732666.2404
     -3189.9994
  14068260.81647  10940864.07042  24218650.9084   24218649.7214
     -5040.8234
  10424563.02347   8107177.35943  24438866.5334   24438863.5534
     -3912.4984
   9884275.42248   7685525.86343  23550771.2214   23550767.0574
     -3545.5624
  -5215311.15649  -4053998.41045  22247600.6894   22247598.1504
      1213.6734
 04  9  2 15 46 15.0020000  0  7G 1G11G14G15G19G22G25
  -5024409.74648  -3915104.27044  22980949.2524   22980947.7254
      1346.5364
  -3286688.14148  -2559383.01645  22327787.3854   22327784.0144
       398.1024
   8013776.76649   6232109.14846  21741787.3304   21741783.9204
     -3194.2834
  14143908.29347  10999810.09442  24233046.0254   24233045.6394
     -5043.1654
  10483291.17647   8152939.51643  24450041.7294   24450039.1504
     -3915.2104
   9937495.78548   7726996.24643  23560899.0254   23560894.3544
     -3548.0244
  -5233419.82049  -4068109.05145  22244154.9004   22244152.5104
      1207.2444
 04  9  2 15 46 30.0020000  0  7G 1G11G14G15G19G22G25
  -5044542.98048  -3930792.48444  22977118.0964   22977116.3114
      1342.2164
  -3292543.62149  -2563945.73044  22326673.6354   22326669.8544
       390.3654
   8061753.91049   6269493.92246  21750917.1114   21750913.9434
     -3198.4764
  14219589.48047  11058782.39842  24247447.3074   24247447.4004
     -5045.4124
  10542058.50047   8198732.20743  24461225.0804   24461221.6004
     -3917.8224
   9990752.02048   7768494.59843  23571033.2914   23571028.8654
     -3550.4164
  -5251432.87549  -4082145.18045  22240726.8074   22240724.6354
      1200.8704
 04  9  2 15 46 45.0020000  0  7G 1G11G14G15G19G22G25
  -5064610.56648  -3946429.55144  22973299.3614   22973297.5184
      1337.8394
  -3298282.04749  -2568417.23045  22325581.2604   22325577.7604
       382.5624
   8109794.50849   6306928.14546  21760059.0494   21760055.6704
     -3202.7074
  14295304.84847  11117781.33242  24261855.6274   24261855.6894
     -5047.6914
  10600865.45747   8244555.79343  24472416.0414   24472412.1434
     -3920.4644
  10044044.80548   7810021.42243  23581174.1894   23581170.2094
     -3552.8524
  -5269349.27349  -4096105.99645  22237317.1434   22237315.0494
      1194.4274
 04  9  2 15 47  0.0020000  0  7G 1G11G14G15G19G22G25
  -5084613.14547  -3962015.95344  22969492.9394   22969491.3074
      1333.5054
  -3303904.00848  -2572797.97745  22324511.4164   22324507.8854
       374.7974
   8157897.61749   6344411.08246  21769212.6504   21769209.4824
     -3206.8744
  14371053.44147  11176806.14842  24276269.7294   24276270.2874
     -5049.9064
  10659710.85948   8290409.31343  24483613.6664   24483610.2214
     -3923.0274
  10097373.52348   7851576.24643  23591322.3614   23591318.4634
     -3555.2484
  -5287169.43449  -4109991.81645  22233926.1744   22233923.9634
      1188.0114
 04  9  2 15 47 15.0020000  0  7G 1G11G14G15G19G22G25
  -5104549.66048  -3977550.89544  22965699.0494   22965696.9634
      1329.1014
  -3309408.41049  -2577087.12945  22323463.9084   22323460.2094
       366.9604
   8206063.89849   6381943.23446  21778378.3774   21778375.3424
     -3211.0854
  14446835.82447  11235857.25942  24290691.0964   24290690.7254
     -5052.1594
  10718595.26647   8336293.25043  24494819.3934   24494815.9794
     -3925.6274
  10150738.97348   7893159.68843  23601477.6114   23601473.3544
     -3557.6974
  -5304892.17649  -4123801.73045  22230553.7914   22230551.6464
      1181.5164
 04  9  2 15 47 30.0020000  0  7G 1G11G14G15G19G22G25
  -5124420.21148  -3993034.43044  22961917.6194   22961915.6354
      1324.7034
  -3314795.25049  -2581284.66445  22322439.0574   22322435.4674
       359.1234
   8254293.00849   6419524.34446  21787556.2214   21787552.7714
     -3215.2744
  14522651.64847  11294934.50842  24305118.5494   24305118.7524
     -5054.3884
  10777518.34847   8382207.31643  24506031.7294   24506028.3614
     -3928.2054
  10204141.02348   7934771.64844  23611639.8934   23611635.6784
     -3560.1374
  -5322517.41449  -4137535.66845  22227199.5804   22227197.6114
      1175.0164
 04  9  2 15 47 45.0020000  0  7G 1G11G14G15G19G22G25
  -5144225.08648  -4008466.77744  22958148.9714   22958147.3734
      1320.3254
  -3320064.53149  -2585390.60245  22321436.1354   22321432.5844
       351.2854
   8302584.32849   6457153.93446  21796745.7134   21796742.6544
     -3219.4214
  14598500.22347  11354037.23442  24319551.9864   24319551.8264
     -5056.5724
  10836479.19147   8428150.75842  24517251.8074   24517248.6274
     -3930.7234
  10257579.31648   7976411.85544  23621808.7294   23621804.8504
     -3562.5534
  -5340045.25049  -4151193.70345  22223864.5104   22223862.1974
      1168.5224
 04  9  2 15 48  0.0020000  0  7G 1G11G14G15G19G22G25
  -5163965.65648  -4023849.02744  22954392.6044   22954390.6394
      1316.0384
  -3325217.54749  -2589405.94145  22320455.1114   22320452.0334
       343.5344
   8350936.16449   6494830.68046  21805946.9634   21805943.9324
     -3223.4564
  14674379.67647  11413164.04742  24333990.9004   24333991.1744
     -5058.6304
  10895475.84047   8474122.16042  24528478.7524   24528475.1934
     -3933.1104
  10311052.41448   8018079.18844  23631984.5884   23631980.5214
     -3564.8734
  -5357476.79349  -4164776.71545  22220547.2524   22220545.6824
      1162.1034
 04  9  2 15 48 15.0020000  0  7G 1G11G14G15G19G22G25
  -5183640.59048  -4039180.12544  22950648.5724   22950646.4864
      1311.6624
  -3330252.91448  -2593329.60245  22319497.1434   22319493.9554
       335.6914
   8399349.57049   6532555.40246  21815159.4714   21815156.3424
     -3227.5604
  14750291.15247  11472315.77742  24348436.4794   24348436.9864
     -5060.7654
  10954509.18847   8520122.12542  24539711.7134   24539708.5574
     -3935.5574
  10364561.53548   8059774.58244  23642166.9324   23642162.6434
     -3567.2754
  -5374810.48449  -4178283.46545  22217248.9244   22217246.7644
      1155.5794
 04  9  2 15 48 30.0020000  0  7G 1G11G14G15G19G22G25
  -5203250.07848  -4054460.23444  22946916.5334   22946915.3144
      1307.2994
  -3335170.57449  -2597161.54745  22318561.2444   22318558.0334
       327.8444
   8447824.10249   6570327.75446  21824383.9394   21824380.7014
     -3231.6354
  14826233.99247  11531491.96542  24362888.3144   24362888.2404
     -5062.8564
  11013578.68047   8566150.25842  24550953.2134   24550949.4634
     -3937.9664
  10418106.39548   8101497.82844  23652356.4084   23652352.5104
     -3569.6574
  -5392046.30949  -4191713.96145  22213968.8384   22213966.9164
      1149.0554
 04  9  2 15 48 45.0020000  0  7G 1G11G14G15G19G22G25
  -5222794.77348  -4069689.84444  22943197.2214   22943195.9394
      1302.9804
  -3339971.07449  -2600902.19945  22317647.6894   22317644.2444
       320.0334
   8496358.77349   6608146.96946  21833619.9634   21833616.3964
     -3235.6454
  14902207.22747  11590691.85542  24377345.9474   24377345.3504
     -5064.8824
  11072683.23047   8612205.72742  24562200.2914   24562196.3854
     -3940.3034
  10471686.23048   8143248.31344  23662552.1894   23662547.9394
     -3571.9894
  -5409184.82849  -4205068.63745  22210707.2524   22210705.6704
      1142.5684
 04  9  2 15 49  0.0020000  0  7G 1G11G14G15G19G22G25
  -5242274.10548  -4084868.52744  22939490.8224   22939488.8854
      1298.6224
  -3344653.69949  -2604551.00045  22316757.0574   22316753.7444
       312.1754
   8544953.79349   6646013.20746  21842867.0644   21842863.9824
     -3239.6684
  14978210.96947  11649915.48042  24391808.8694   24391808.4674
     -5066.9164
  11131822.87947   8658288.55943  24573453.9084   24573450.6354
     -3942.6434
  10525301.44948   8185026.38344  23672755.1974   23672750.9754
     -3574.3484
  -5426225.16449  -4218346.80945  22207464.8144   22207462.6934
      1136.0224
 04  9  2 15 49 15.0020000  0  7G 1G11G14G15G19G22G25
  -5261687.91048  -4099996.16044  22935796.1894   22935794.8574
      1294.2544
  -3349218.24249  -2608107.78945  22315888.3774   22315885.2054
       304.3034
   8593609.08249   6683926.41046  21852125.7444   21852122.9204
     -3243.6864
  15054245.07047  11709162.77042  24406276.7524   24406277.8934
     -5068.9404
  11190997.32847   8704398.48442  24584714.6044   24584712.0024
     -3944.9634
  10578952.25048   8226832.17644  23682963.8464   23682960.2054
     -3576.7204
  -5443167.02349  -4231548.22745  22204241.1354   22204238.6234
      1129.4574
 04  9  2 15 49 30.0020000  0  7G 1G11G14G15G19G22G25
  -5281036.32448  -4115072.84044  22932114.3384   22932113.0214
      1289.8944
  -3353664.65649  -2611572.53145  22315042.4004   22315039.0614
       296.4284
   8642324.19549   6721886.21945  21861395.9554   21861392.8504
     -3247.6744
  15130309.03947  11768433.34042  24420752.1194   24420751.9244
     -5070.9314
  11250206.04747   8750535.10942  24595981.6894   24595978.5294
     -3947.2484
  10632638.30948   8268665.43844  23693180.4864   23693176.3504
     -3579.0714
  -5460010.43449  -4244672.95345  22201035.9714   22201033.0374
      1122.8944
 04  9  2 15 49 45.0020000  0  7G 1G11G14G15G19G22G25
  -5300319.16448  -4130098.41844  22928444.9864   22928443.7404
      1285.5234
  -3357992.61349  -2614944.96945  22314218.6434   22314215.2914
       288.5304
   8691098.97749   6759892.53545  21870677.7364   21870674.4634
     -3251.6524
  15206402.63347  11827727.01642  24435232.2364   24435232.3224
     -5072.9064
  11309448.68447   8796698.17642  24607255.1744   24607252.3574
     -3949.5094
  10686359.80548   8310526.32444  23703403.3544   23703399.0494
     -3581.4334
  -5476754.99649  -4257720.64845  22197849.4474   22197847.1114
      1116.3044
 04  9  2 15 50  0.0020000  0  7G 1G11G14G15G19G22G25
  -5319536.21548  -4145072.73044  22924788.2444   22924786.6354
      1281.1374
  -3362201.82849  -2618224.88345  22313417.5024   22313414.0254
       280.6144
   8739933.33249   6797945.26645  21879970.7364   21879967.1434
     -3255.6244
  15282525.80547  11887043.70342  24449718.0184   24449718.3894
     -5074.8784
  11368724.93047   8842887.43042  24618535.3464   24618532.1864
     -3951.7504
  10740116.83248   8352414.88744  23713632.7444   23713628.9324
     -3583.8024
  -5493400.25849  -4270690.97345  22194681.8144   22194679.8184
      1109.6844
 04  9  2 15 50 15.0020000  0  7G 1G11G14G15G19G22G25
  -5338686.33648  -4159994.88744  22921143.8144   22921142.2444
      1276.6754
  -3366291.06649  -2621411.30145  22312639.4164   22312636.0254
       272.6164
   8788828.07449   6836045.05545  21889274.9164   21889271.6114
     -3259.6494
  15358679.37947  11946384.10242  24464209.6744   24464209.6194
     -5076.9054
  11428035.66446   8889103.56642  24629821.3544   24629818.1704
     -3954.0494
  10793910.42648   8394331.94144  23723869.2214   23723865.7174
     -3586.2404
  -5509944.79749  -4283582.80145  22191533.4004   22191531.0684
      1102.9694
 04  9  2 15 50 30.0020000  0  7G 1G11G14G15G19G22G25
  -5357769.06648  -4174864.53944  22917512.9864   22917511.0414
      1272.1824
  -3370259.76249  -2624503.78545  22311884.4394   22311881.0064
       264.5804
   8837783.34049   6874192.00445  21898590.6744   21898587.2794
     -3263.6844
  15434863.25847  12005748.11742  24478706.6584   24478707.2484
     -5078.9254
  11487380.72746   8935346.42642  24641114.4634   24641111.3854
     -3956.3374
  10847740.91848   8436277.75044  23734113.0644   23734109.5214
     -3588.6994
  -5526388.05149  -4296395.71545  22188404.3854   22188401.9244
      1096.2174
 04  9  2 15 50 45.0020000  0  7G 1G11G14G15G19G22G25
  -5376786.87148  -4189683.59844  22913893.8694   22913892.3654
      1267.8544
  -3374110.10249  -2627504.06245  22311151.7134   22311148.2564
       256.6894
   8886796.42249   6912384.01245  21907917.4244   21907914.2174
     -3267.5394
  15511074.68047  12065133.57842  24493210.1044   24493209.7214
     -5080.7614
  11546757.33646   8981613.89142  24652413.0804   24652410.5184
     -3958.4414
  10901605.78548   8478250.34443  23744362.5964   23744359.2874
     -3590.9914
  -5542732.19949  -4309131.39545  22185294.0184   22185291.6314
      1089.6104
 04  9  2 15 51  0.0020000  0  7G 1G11G14G15G19G22G25
  -5395739.53148  -4204451.89844  22910287.4004   22910285.4204
      1263.5114
  -3377841.93749  -2630411.98845  22310441.5104   22310438.0334
       248.7894
   8935867.23449   6950620.99646  21917255.5184   21917252.2994
     -3271.3874
  15587313.43447  12124540.36742  24507717.1504   24507717.1314
     -5082.5844
  11606165.10247   9027905.61342  24663718.1504   24663715.6504
     -3960.5184
  10955505.23448   8520249.88744  23754619.7684   23754616.2484
     -3593.2974
  -5558976.96949  -4321789.64145  22182202.8934   22182200.3304
      1082.9854
 04  9  2 15 51 15.0020000  0  7G 1G11G14G15G19G22G25
  -5414624.81248  -4219167.69144  22906693.3774   22906691.6464
      1259.0194
  -3381452.78949  -2633225.64145  22309754.4714   22309751.0764
       240.7234
   8984997.69149   6988904.46546  21926605.0104   21926601.2874
     -3275.3644
  15663581.58247  12183970.03942  24522231.1354   24522230.9394
     -5084.5434
  11665605.91446   9074223.09442  24675029.5964   24675026.4364
     -3962.7214
  11009441.32448   8562277.96944  23764883.6044   23764880.0614
     -3595.7394
  -5575119.98049  -4334368.59845  22179131.3614   22179128.5334
      1076.2014
 04  9  2 15 51 30.0020000  0  7G 1G11G14G15G19G22G25
  -5433443.19148  -4233831.35944  22903112.5804   22903110.4674
      1254.5594
  -3384943.00049  -2635945.28545  22309090.1824   22309086.8464
       232.6814
   9034187.11349   7027233.86346  21935965.1894   21935962.1664
     -3279.2954
  15739878.24647  12243421.93842  24536749.6044   24536748.9864
     -5086.4444
  11725078.80547   9120565.59442  24686347.0644   24686343.5764
     -3964.8594
  11063413.57448   8604334.24644  23775153.9164   23775150.7874
     -3598.1504
  -5591161.49249  -4346868.46145  22176078.3614   22176075.9714
      1069.4344
 04  9  2 15 51 45.0020000  0  7G 1G11G14G15G19G22G25
  -5452196.05148  -4248443.97344  22899543.7684   22899542.1194
      1250.1914
  -3388313.86749  -2638571.94145  22308448.8144   22308445.5534
       224.7244
   9083433.68449   7065607.81346  21945336.5724   21945333.2254
     -3283.1054
  15816201.65647  12302894.70742  24551273.0494   24551273.2834
     -5088.2274
  11784581.80546   9166931.51642  24697669.6974   24697666.7404
     -3966.8674
  11117420.35948   8646417.43043  23785431.1664   23785427.6234
     -3600.4524
  -5607102.57049  -4359290.06245  22173044.9714   22173042.7364
      1062.7394
 04  9  2 15 52  0.0020000  0  7G 1G11G14G15G19G22G25
  -5470882.19548  -4263004.59444  22895987.5254   22895986.2364
      1245.7434
  -3391564.12149  -2641104.60945  22307830.5414   22307826.8854
       216.6844
   9132738.41049   7104027.06646  21954718.8464   21954715.9324
     -3286.9824
  15892552.69547  12362388.95742  24565802.4864   24565803.1784
     -5090.0694
  11844115.85546   9213321.65242  24708998.9324   24708996.0764
     -3968.9374
  11171462.89548   8688528.47343  23795715.1744   23795711.6194
     -3602.8364
  -5622941.74249  -4371632.25845  22170030.7914   22170028.7524
      1055.9454
 04  9  2 15 52 15.0020000  0  7G 1G11G14G15G19G22G25
  -5489501.66848  -4277513.27044  22892444.7134   22892443.2254
      1241.2984
  -3394693.58249  -2643543.15645  22307235.1504   22307231.3264
       208.6314
   9182100.96149   7142491.38346  21964112.3774   21964109.3774
     -3290.8374
  15968930.92647  12421904.40642  24580337.8304   24580337.0064
     -5091.8824
  11903680.34846   9259735.50042  24720333.1194   24720331.3694
     -3970.9664
  11225541.01248   8730667.22743  23806006.1974   23806002.0534
     -3605.2084
  -5638679.00049  -4383895.04745  22167036.1274   22167033.9984
      1049.1514
 04  9  2 15 52 30.0020000  0  7G 1G11G14G15G19G22G25
  -5508053.38348  -4291969.13744  22888914.5724   22888913.2644
      1236.7814
  -3397701.17649  -2645886.73845  22306662.5024   22306658.8264
       200.5064
   9231522.07849   7181001.32846  21973516.6434   21973513.8114
     -3294.7414
  16045336.83647  12481441.46142  24594876.0964   24594876.2714
     -5093.7274
  11963275.89146   9306173.54342  24731674.0254   24731671.8304
     -3973.0364
  11279655.68848   8772834.49243  23816303.6974   23816300.0024
     -3607.6454
  -5654313.16049  -4396077.49245  22164060.7294   22164058.7714
      1042.2774
 04  9  2 15 52 45.0020000  0  7G 1G11G14G15G19G22G25
  -5526537.39147  -4306372.25044  22885397.4164   22885395.3814
      1232.2674
  -3400586.70748  -2648135.20745  22306113.4324   22306110.0144
       192.3694
   9281001.33649   7219556.57846  21982932.1354   21982929.4284
     -3298.6174
  16121770.23846  12540999.88742  24609421.2994   24609421.2644
     -5095.5604
  12022901.97346   9352635.38742  24743021.0184   24743018.1824
     -3975.0724
  11333806.76648   8815030.09843  23826608.0184   23826604.5804
     -3610.0724
  -5669844.01649  -4408179.44946  22161105.5184   22161103.2294
      1035.3904
 04  9  2 15 53  0.0020000  0  7G 1G11G14G15G19G22G25
  -5544952.87548  -4320721.96944  22881893.0334   22881891.7364
      1227.6994
  -3403349.34049  -2650287.91045  22305587.6354   22305584.1434
       184.1764
   9330539.33649   7258157.60946  21992359.0644   21992356.0334
     -3302.5334
  16198231.56647  12600580.09842  24623971.7754   24623970.6704
     -5097.4224
  12082559.11346   9399121.43042  24754373.3224   24754371.0254
     -3977.1434
  11387995.14548   8857254.78943  23836920.1114   23836916.4164
     -3612.5594
  -5685270.58649  -4420200.13745  22158169.8934   22158167.6314
      1028.4384
 04  9  2 15 53 15.0020000  0  7G 1G11G14G15G19G22G25
  -5563300.23848  -4335018.60244  22878401.6274   22878400.0764
      1223.1584
  -3405989.37549  -2652345.07445  22305085.3144   22305081.9284
       176.0024
   9380135.41849   7296803.89146  22001796.9794   22001793.9554
     -3306.4054
  16274720.05146  12660181.49242  24638526.1434   24638526.6664
     -5099.2324
  12142246.35546   9445630.92242  24765731.4714   24765728.7684
     -3979.1494
  11442220.20748   8899508.06643  23847239.0644   23847235.0024
     -3615.0044
  -5700593.06649  -4432139.71545  22155254.4324   22155251.8074
      1021.4994
 04  9  2 15 53 30.0020000  0  6G 1G11G14G19G22G25
  -5581578.90648  -4349261.71144  22874922.9084   22874921.8304
      1218.5784
  -3408506.04749  -2654306.12545  22304606.7294   22304603.1784
       167.7784
   9429789.77349   7335495.59045  22011245.7214   22011242.8074
     -3310.2904
  12201963.85546   9492164.02742  24777095.2294   24777092.6504
     -3981.1674
  11496482.50848   8941790.34443  23857564.9794   23857560.5724
     -3617.4874
  -5715810.78149  -4443997.65645  22152358.3304   22152356.0184
      1014.5144
 04  9  2 15 53 45.0020000  0  6G 1G11G14G19G22G25
  -5599788.96548  -4363451.35244  22871457.7684   22871456.3934
      1214.0044
  -3410899.34049  -2656171.03545  22304151.0334   22304147.3304
       159.5534
   9479502.09849   7374232.44945  22020705.7444   22020702.6154
     -3314.1554
  12261711.09446   9538720.28542  24788465.3384   24788462.3614
     -3983.1494
  11550781.83648   8984101.48843  23867897.3304   23867893.2134
     -3619.9554
  -5730923.45349  -4455773.74645  22149482.3544   22149480.0334
      1007.5114
 04  9  2 15 54  0.0020000  0  6G 1G11G14G19G22G25
  -5617928.63348  -4377586.15244  22868005.4474   22868004.1744
      1209.3114
  -3413167.33649  -2657938.31245  22303719.5254   22303715.5574
       151.2004
   9529273.81349   7413015.59045  22030177.4554   22030173.6934
     -3318.1144
  12321489.32846   9585300.66442  24799840.9164   24799837.6974
     -3985.2164
  11605119.95748   9026442.85943  23878237.6354   23878233.7684
     -3622.5414
  -5745929.07449  -4467466.43045  22146627.0414   22146624.7014
      1000.3754
 04  9  2 15 54 15.0020000  0  6G 1G11G14G19G22G25
  -5635997.38348  -4391665.68744  22864567.6664   22864565.8654
      1204.5834
  -3415309.39849  -2659607.44945  22303311.7604   22303308.1704
       142.8044
   9579105.26249   7451845.28545  22039659.7914   22039656.5294
     -3322.0974
  12381298.72746   9631905.36742  24811221.4944   24811218.4514
     -3987.2934
  11659497.24648   9068814.76643  23888585.2834   23888581.2404
     -3625.1534
  -5760827.07849  -4479075.25445  22143791.9944   22143789.8344
       993.2004
 04  9  2 15 54 30.0020000  0  5G 1G11G14G22G25
  -5653994.17248  -4405689.14144  22861142.8774   22861141.3074
      1199.7864
  -3417324.38349  -2661177.57045  22302928.2994   22302924.6004
       134.3324
   9628997.17249   7490722.09045  22049153.8144   22049150.5494
     -3326.1274
  11713914.66848   9111217.93043  23898940.5964   23898936.9284
     -3627.8284
  -5775616.24649  -4490599.26245  22140977.4394   22140975.1544
       985.9454
 04  9  2 15 54 45.0020000  0  5G 1G11G14G22G25
  -5671919.27048  -4419656.74644  22857732.1044   22857730.3304
      1195.0074
  -3419212.39849  -2662648.76245  22302569.0574   22302565.6824
       125.8684
   9678948.87549   7529645.48845  22058659.3614   22058655.8894
     -3330.1144
  11768371.82448   9153652.05143  23909303.5724   23909299.7754
     -3630.4774
  -5790296.59049  -4502038.48045  22138184.2214   22138181.5804
       978.6904
 04  9  2 15 55  0.0020000  0  6G 1G20G11G14G22G25
  -5689771.97748  -4433567.93744  22854334.9084   22854332.8074
      1190.1804
    -54511.10557    -38432.92652  24841531.4864   24841528.4434

  -3420972.61749  -2664020.36345  22302234.0494   22302230.6074
       117.3484
   9728960.89149   7568615.88345  22068176.4164   22068172.8614
     -3334.1344
  11822869.37148   9196117.64843  23919674.3074   23919670.2484
     -3633.1704
  -5804867.27749  -4513392.24645  22135411.5024   22135409.1394
       971.3794
 04  9  2 15 55 15.0020000  0  6G 1G20G11G14G22G25
  -5707553.25848  -4447423.46944  22850950.9324   22850949.3964
      1185.4194
    -81637.12147    -59570.08642  24836369.2364   24836366.3384
      1808.4014
  -3422605.87949  -2665293.03545  22301923.2444   22301919.8934
       108.8844
   9779032.03149   7607632.34445  22077704.4634   22077700.9714
     -3338.0764
  11877406.23848   9238613.86743  23930052.4864   23930048.7644
     -3635.7914
  -5819329.06649  -4524661.16045  22132659.2364   22132656.6934
       964.1194
 04  9  2 15 55 30.0020000  0  6G 1G20G11G14G22G25
  -5725263.04348  -4461223.28544  22847580.7994   22847579.3544
      1180.6524
   -108759.37547    -80704.32442  24831208.6044   24831204.9714
      1808.1504
  -3424112.13349  -2666466.74645  22301636.8224   22301633.3814
       100.4174
   9829161.95349   7646694.61345  22087244.0964   22087240.5724
     -3341.9954
  11931982.41848   9281140.73443  23940437.7914   23940434.0184
     -3638.4124
  -5833681.67249  -4535845.00445  22129928.0644   22129925.8224
       956.8404
 04  9  2 15 55 45.0020000  0  6G 1G20G11G14G22G25
  -5742903.11749  -4474968.78944  22844224.2214   22844222.4754
      1176.0054
   -135879.68447   -101837.02042  24826047.5104   24826044.6154
      1808.0214
  -3425492.96149  -2667542.72345  22301373.9634   22301370.5884
        92.0554
   9879348.60949   7685801.08645  22096794.3074   22096791.0184
     -3345.7774
  11986596.05548   9323696.78943  23950830.5494   23950826.6114
     -3640.9094
  -5847926.61749  -4546944.94545  22127217.2834   22127215.1894
       949.6634
 04  9  2 15 56  0.0020000  0  6G 1G20G11G14G22G25
  -5760471.74249  -4488658.61744  22840880.7054   22840879.1504
      1171.2424
   -162996.19547   -122966.76242  24820886.7914   24820885.1464
      1807.7674
  -3426746.39149  -2668519.41845  22301135.1894   22301131.8304
        83.5624
   9929593.55149   7724952.96945  22106355.4634   22106352.5764
     -3349.6634
  12041248.87548   9366283.37543  23961230.4004   23961226.1044
     -3643.5214
  -5862062.01249  -4557959.52345  22124527.4244   22124525.4394
       942.3604
 04  9  2 15 56 15.0020000  0  6G 1G20G11G14G22G25
  -5777968.21149  -4502292.22344  22837551.2444   22837549.6584
      1166.4314
   -190108.09447   -144092.89542  24815728.0334   24815725.9434
      1807.4604
  -3427871.73849  -2669396.31645  22300921.4004   22300918.0254
        75.0234
   9979897.13749   7764150.55545  22115927.9324   22115924.8544
     -3353.5724
  12095941.43848   9408900.93443  23971638.7134   23971634.9324
     -3646.1714
  -5876087.09049  -4568888.14545  22121858.6974   22121856.8424
       935.0054
 04  9  2 15 56 30.0020000  0  6G 1G20G11G14G22G25
  -5795392.41448  -4515869.51244  22834235.8464   22834234.0684
      1161.6144
   -217215.10247   -165215.23842  24810569.4324   24810567.0884
      1807.1344
  -3428868.66449  -2670173.14845  22300731.4324   22300728.2054
        66.4624
  10030259.25449   7803393.74245  22125511.7684   22125508.7444
     -3357.4744
  12150673.91048   9451549.58643  23982053.6274   23982049.6934
     -3648.8324
  -5890001.46949  -4579730.50845  22119210.7604   22119208.5414
       927.6254
 04  9  2 15 56 45.0020000  0  6G 1G20G11G14G22G25
  -5812744.15248  -4529390.33644  22830934.1894   22830932.1314
      1156.7834
   -244317.14147   -186333.72742  24805411.8304   24805410.2014
      1806.8034
  -3429736.95749  -2670849.75045  22300566.6664   22300563.0534
        57.8864
  10080679.68849   7842682.37145  22135106.0254   22135103.4474
     -3361.3624
  12205446.30548   9494229.34843  23992476.1974   23992472.9394
     -3651.4934
  -5903804.78149  -4590486.32046  22116583.9944   22116581.7254
       920.2214
 04  9  2 15 57  0.0020000  0  6G 1G20G11G14G22G25
  -5830026.02348  -4542856.71944  22827644.7214   22827643.2404
      1152.1254
   -271416.79347   -207450.32442  24800255.2294   24800253.2754
      1806.6434
  -3430479.13349  -2671428.06645  22300425.1434   22300421.7714
        49.4784
  10131155.60549   7882014.23445  22144711.6974   22144708.6154
     -3365.0614
  12260255.88748   9536938.08643  24002905.7214   24002902.6934
     -3653.9724
  -5917499.51249  -4601157.52745  22113978.0254   22113975.6044
       912.9824
 04  9  2 15 57 15.0020000  0  6G 1G20G11G14G22G25
  -5847234.60248  -4556265.98844  22824370.4084   22824368.4794
      1147.2394
   -298510.63347   -228562.43042  24795100.3854   24795097.1004
      1806.2564
  -3431091.71549  -2671905.40645  22300308.6894   22300305.1464
        40.8394
  10181690.03149   7921391.69945  22154327.8854   22154325.0064
     -3368.9624
  12315106.00848   9579678.40643  24013343.1044   24013340.4004
     -3656.6754
  -5931082.10949  -4611741.35545  22111393.5494   22111390.9124
       905.5074
 04  9  2 15 57 30.0020000  0  6G 1G20G11G14G22G25
  -5864371.60548  -4569619.47344  22821109.1584   22821107.6114
      1142.4674
   -325600.31647   -249671.27042  24789944.7684   24789942.1584
      1805.9794
  -3431576.17649  -2672282.91445  22300216.3384   22300212.7484
        32.2974
  10232281.21149   7960813.37145  22163955.3614   22163952.0534
     -3372.7454
  12369994.89548   9622448.93043  24023788.5414   24023785.1044
     -3659.2594
  -5944553.84849  -4622238.80945  22108829.6824   22108827.1784
       898.1164
 04  9  2 15 57 45.0020000  0  6G 1G20G11G14G22G25
  -5881437.39848  -4582917.48444  22817861.7834   22817860.2604
      1137.7204
   -352686.25046   -270777.17242  24784789.9474   24784787.7954
      1805.7294
  -3431932.93449  -2672560.91045  22300148.5184   22300145.1544
        23.7844
  10282928.31349   8000278.63345  22173592.8694   22173589.5844
     -3376.4734
  12424922.02748   9665249.27043  24034240.8384   24034237.4324
     -3661.8094
  -5957915.14149  -4632650.19145  22106287.1504   22106284.3894
       890.7534
 04  9  2 15 58  0.0020000  0  6G 1G20G11G14G22G25
  -5898430.68748  -4596159.00844  22814627.6274   22814626.4554
      1132.8864
   -379766.94546   -291879.01242  24779637.0494   24779634.5494
      1805.3804
  -3432160.35549  -2672738.11745  22300105.1354   22300101.9084
        15.1614
  10333632.41049   8039788.30145  22183241.8934   22183238.5644
     -3380.2734
  12479888.74248   9708080.43843  24044700.6744   24044697.6544
     -3664.4484
  -5971164.43749  -4642974.31245  22103765.6824   22103763.2214
       883.2864
 04  9  2 15 58 15.0020000  0  6G 1G20G11G14G22G25
  -5915352.86349  -4609345.09844  22811407.9004   22811406.5574
      1128.1454
   -406843.77046   -312977.85242  24774484.9324   24774481.7014
      1805.1224
  -3432259.89149  -2672815.69145  22300086.4244   22300082.9634
         6.6364
  10384391.94949   8079341.17645  22192901.2054   22192897.7714
     -3383.9694
  12534893.48848   9750941.24243  24055168.1434   24055164.1154
     -3666.9834
  -5984303.06249  -4653212.19146  22101265.8074   22101263.2794
       875.9084
 04  9  2 15 58 30.0020000  0  6G 1G20G11G14G22G25
  -5932202.42248  -4622474.61344  22808201.3774   22808199.4984
      1123.3044
   -433915.07046   -334072.35242  24769332.6354   24769330.2294
      1804.7534
  -3432229.69549  -2672792.16445  22300092.1274   22300088.5334
        -2.0134
  10435208.14149   8118938.19945  22202570.7994   22202567.6544
     -3387.7464
  12589937.81348   9793832.89543  24065642.9004   24065639.1504
     -3669.6224
  -5997329.05549  -4663362.30545  22098786.7754   22098784.5534
       868.3994
 04  9  2 15 58 45.0020000  0  6G 1G20G11G14G22G25
  -5948981.57048  -4635549.26644  22805008.4554   22805006.9944
      1118.6104
   -460983.19146   -355164.41042  24764181.5414   24764179.1434
      1804.5414
  -3432072.27749  -2672669.50445  22300121.8774   22300118.6504
       -10.4954
  10486078.27349   8158577.24645  22212251.1354   22212247.8574
     -3391.3424
  12645019.18848   9836753.41443  24076123.6354   24076120.6864
     -3672.0924
  -6010244.78149  -4673426.50045  22096328.9944   22096326.8144
       861.0484
 04  9  2 15 59  0.0020000  0  6G 1G20G11G14G22G25
  -5965687.39548  -4648566.78144  22801829.9794   22801828.3424
      1113.7224
   -488045.13746   -376251.62142  24759032.1584   24759030.1234
      1804.1304
  -3431784.42649  -2672445.21145  22300176.6434   22300173.4514
       -19.1904
  10537005.21149   8198260.57045  22221942.0494   22221939.1114
     -3395.1294
  12700140.66848   9879705.19143  24086613.2604   24086610.1894
     -3674.7654
  -6023046.98849  -4683402.23045  22093892.8304   22093890.4864
       853.4804
 04  9  2 15 59 15.0020000  0  6G 1G20G11G14G22G25
  -5982321.69549  -4661528.55944  22798664.0574   22798662.4864
      1108.9534
   -515102.51246   -397335.28142  24753884.1744   24753880.8934
      1803.8254
  -3431367.79349  -2672120.56245  22300256.1584   22300252.5374
       -27.7764
  10587986.82049   8237986.48445  22231643.8224   22231640.5064
     -3398.7744
  12755300.36348   9922686.73843  24097110.0494   24097106.3774
     -3677.3134
  -6035737.26649  -4693290.75445  22091478.0494   22091475.3384
       846.0184
 04  9  2 15 59 30.0020000  0  6G 1G20G11G14G22G25
  -5998883.89548  -4674434.17244  22795512.3934   22795510.6824
      1104.1474
   -542154.79746   -418414.96942  24748735.8384   24748733.7364
      1803.4864
  -3430821.67249  -2671695.01645  22300359.9394   22300356.5414
       -36.4084
  10639023.32049   8277755.17245  22241355.5334   22241352.3344
     -3402.4334
  12810498.73448   9965698.41843  24107614.6354   24107610.4904
     -3679.8914
  -6048314.81249  -4703091.42645  22089084.5494   22089082.1824
       838.5034
 04  9  2 15 59 45.0020000  0  6G 1G20G11G14G22G25
  -6015373.17649  -4687282.94544  22792374.9244   22792373.1274
      1099.2854
   -569201.12546   -439490.05542  24743588.7294   24743586.6004
      1803.0894
  -3430145.18049  -2671167.88345  22300488.6354   22300485.2994
       -45.0994
  10690115.43049   8317567.19145  22251078.2054   22251075.2684
     -3406.1414
  12865736.56348  10008740.87143  24118125.9634   24118121.8504
     -3682.5224
  -6060778.53949  -4712803.41845  22086712.9084   22086710.3734
       830.9154
 04  9  2 16  0  0.0020000  0  6G 1G20G11G14G22G25
  -6031790.87548  -4700075.95744  22789250.1434   22789248.9944
      1094.5134
   -596242.74246   -460561.42242  24738443.5414   24738440.1704
      1802.7744
  -3429339.56649  -2670540.14145  22300642.3224   22300638.7834
       -53.7084
  10741261.35549   8357421.13745  22260810.9324   22260808.1074
     -3409.7284
  12921012.38348  10051812.92243  24128644.3694   24128640.6044
     -3685.0554
  -6073129.69149  -4722427.68445  22084362.4084   22084359.9514
       823.4104
 04  9  2 16  0 15.0030000  0  6G 1G20G11G14G22G25
  -6048138.79748  -4712814.58644  22786139.6554   22786137.8704
      1089.8614
   -623282.16447   -481631.09042  24733297.7804   24733295.5774
      1802.6284
  -3428405.30549  -2669812.15245  22300820.1244   22300816.2064
       -62.2844
  10792463.57849   8397318.95745  22270554.2334   22270551.3274
     -3413.4824
  12976329.09048  10094916.82843  24139170.9684   24139167.3084
     -3687.7804
  -6085369.78149  -4731965.40245  22082033.4214   22082031.1634
       816.0064
 04  9  2 16  0 30.0030000  0  6G 1G20G11G14G22G25
  -6064413.69949  -4725496.31644  22783042.4914   22783040.6984
      1084.9934
   -650314.66046   -502695.37542  24728154.2574   24728150.6794
      1802.1664
  -3427341.38749  -2668983.13345  22301022.3824   22301018.9604
       -70.9284
  10843716.05949   8437255.94145  22280307.1474   22280304.0654
     -3416.8324
  13031680.31348  10138047.62543  24149703.7264   24149700.2454
     -3690.0824
  -6097496.02049  -4741414.41046  22079726.1164   22079723.6364
       808.4164
 04  9  2 16  0 45.0030000  0  6G 1G20G11G14G22G25
  -6080615.84048  -4738121.34844  22779959.4914   22779957.9294
      1080.1434
   -677341.09446   -523754.91842  24723010.4684   24723007.9834
      1801.7624
  -3426146.81649  -2668052.30545  22301249.6404   22301246.1244
       -79.6384
  10895022.85949   8477235.25045  22290070.8044   22290067.7804
     -3420.4534
  13087070.52348  10181208.80143  24160243.9524   24160240.3584
     -3692.6814
  -6109508.06649  -4750774.43446  22077439.9214   22077437.4444
       800.8034
 04  9  2 16  1  0.0030000  0  6G 1G20G11G14G22G25
  -6096746.11748  -4750690.38744  22776890.2884   22776888.0194
      1075.3524
   -704362.32046   -544810.42242  24717868.1714   24717865.9174
      1801.4154
  -3424822.38749  -2667020.28145  22301501.7804   22301498.3234
       -88.2954
  10946382.72349   8517255.89545  22299844.3124   22299841.3624
     -3423.9914
  13142498.65248  10224399.52343  24170792.0854   24170788.2534
     -3695.2094
  -6121406.68749  -4760046.09046  22075175.8124   22075173.2924
       793.2414
 04  9  2 16  1 15.0030000  0  6G 1G20G11G14G22G25
  -6112804.45748  -4763203.37944  22773834.0464   22773832.1634
      1070.5564
   -731378.19947   -565861.73842  24712727.8974   24712725.3664
      1801.0594
  -3423368.00049  -2665886.99645  22301778.5074   22301774.8784
       -96.9594
  10997795.60549   8557317.85945  22309628.0854   22309625.0544
     -3427.5264
  13197964.80548  10267619.88343  24181346.8194   24181342.8194
     -3697.7434
  -6133191.55549  -4769229.09446  22072933.1084   22072930.8354
       785.6584
 04  9  2 16  1 30.0030000  0  6G 1G20G11G14G22G25
  -6128789.96548  -4775659.60944  22770792.0224   22770790.3584
      1065.7014
   -758387.77046   -586908.14842  24707588.0934   24707585.6834
      1800.6384
  -3421782.59449  -2664651.61745  22302079.8744   22302076.5034
      -105.6944
  11049262.02049   8597421.55145  22319421.5074   22319418.7574
     -3431.0944
  13253469.81348  10310870.50443  24191909.3744   24191905.6014
     -3700.3344
  -6144861.53149  -4778322.56646  22070712.3974   22070709.9374
       777.9984
 04  9  2 16  1 45.0030000  0  6G 1G20G11G14G22G25
  -6144703.62148  -4788059.85544  22767763.7654   22767762.4404
      1060.9104
   -785391.91446   -607950.34042  24702449.1794   24702446.2804
      1800.2764
  -3420067.13349  -2663314.89845  22302406.6324   22302403.4214
      -114.3644
  11100780.68849   8637565.94545  22329225.4374   22329222.3084
     -3434.5784
  13309012.52348  10354150.50843  24202478.4834   24202475.1284
     -3702.8474
  -6156417.49649  -4787327.20746  22068513.4134   22068511.1404
       770.3984
 04  9  2 16  2  0.0030000  0  6G 1G20G11G14G22G25
  -6160545.09448  -4800403.84444  22764749.5544   22764747.9914
      1056.0984
   -812390.25446   -628988.00042  24697312.1244   24697308.6124
      1799.8894
  -3418221.06649  -2661876.40645  22302757.9834   22302754.7494
      -123.0714
  11152351.79749   8677751.20745  22339039.0224   22339035.9014
     -3438.0744
  13364593.23448  10397460.13743  24213054.8974   24213051.7804
     -3705.3814
  -6167858.95749  -4796242.62546  22066335.9994   22066333.4174
       762.7644
 04  9  2 16  2 15.0030000  0  6G 1G20G11G14G22G25
  -6176314.27048  -4812691.50444  22761748.7494   22761746.8904
      1051.2784
   -839382.66846   -650021.04742  24692175.7334   24692172.0624
      1799.4944
  -3416244.30549  -2660336.08245  22303133.8824   22303130.5734
      -131.7844
  11203975.10549   8717977.14845  22348862.5304   22348859.5154
     -3441.5544
  13420212.02348  10440799.42243  24223638.8434   24223635.6084
     -3707.9194
  -6179185.79349  -4805068.71946  22064180.6554   22064178.2414
       755.1224
 04  9  2 16  2 30.0030000  0  6G 1G20G11G14G22G25
  -6192010.09049  -4824922.01244  22758761.9294   22758760.0504
      1046.3884
   -866368.03146   -671048.60942  24687040.2884   24687037.1554
      1799.0244
  -3414135.48849  -2658692.84445  22303535.2024   22303532.0464
      -140.5884
  11255651.41849   8758244.39145  22358695.9764   22358692.9644
     -3445.0874
  13475869.87148  10484169.12543  24234229.8194   24234226.2494
     -3710.5234
  -6190396.52749  -4813804.35246  22062047.5074   22062044.7144
       747.3824
 04  9  2 16  2 45.0030000  0  6G 1G20G11G14G22G25
  -6207633.03548  -4837095.72744  22755788.6874   22755787.0544
      1041.5304
   -893346.72346   -692070.98042  24681905.9134   24681902.4644
      1798.5794
  -3411895.14549  -2656947.12945  22303961.8904   22303958.3664
      -149.3564
  11307380.01649   8798552.37545  22368539.9764   22368536.6634
     -3448.5734
  13531566.22348  10527568.85243  24244828.5464   24244825.5034
     -3713.0904
  -6201491.71949  -4822449.94546  22059936.2414   22059933.7574
       739.6794
 04  9  2 16  3  0.0030000  0  6G 1G20G11G14G22G25
  -6223183.61749  -4849213.05944  22752829.6794   22752827.8124
      1036.7054
   -920319.16846   -713088.47342  24676774.0074   24676770.1794
      1798.1634
  -3409523.64849  -2655099.21545  22304413.0384   22304409.2184
      -158.1004
  11359160.16849   8838900.53145  22378393.1714   22378390.1164
     -3452.0104
  13587300.51648  10570998.14843  24255434.1084   24255431.0264
     -3715.6204
  -6212471.51649  -4831005.62146  22057846.7574   22057844.3234
       731.9864
 04  9  2 16  3 15.0030000  0  6G 1G20G11G14G22G25
  -6238661.32848  -4861273.60944  22749884.3824   22749882.3744
      1031.8474
   -947284.84446   -734100.68442  24671641.8194   24671639.1444
      1797.7124
  -3407020.35549  -2653148.59445  22304889.4444   22304885.6474
      -166.8864
  11410992.01249   8879288.96945  22388256.3744   22388253.3154
     -3455.4564
  13643073.18848  10614457.33643  24266048.0384   24266044.5544
     -3718.1784
  -6223335.14149  -4839470.77346  22055779.1634   22055776.8784
       724.2424
 04  9  2 16  3 30.0030000  0  6G 1G20G11G14G22G25
  -6254066.65649  -4873277.76244  22746952.7724   22746951.1124
      1027.0224
   -974244.23446   -755107.97742  24666511.2414   24666509.3154
      1797.2934
  -3404385.66849  -2651095.59845  22305390.6014   22305386.8474
      -175.6464
  11462874.89149   8919717.16845  22398129.3274   22398126.1944
     -3458.8594
  13698883.63748  10657945.97343  24276668.4524   24276664.9834
     -3720.6974
  -6234083.05149  -4847845.76246  22053734.3824   22053731.8664
       716.5274
 04  9  2 16  3 45.0030000  0  6G 1G20G11G14G22G25
  -6269399.07849  -4885225.09044  22744034.9374   22744033.2414
      1022.1614
  -1001196.52746   -776109.74242  24661382.8194   24661380.0894
      1796.8204
  -3401619.00449  -2648939.76645  22305917.1014   22305913.2614
      -184.4444
  11514809.05949   8960185.34045  22408012.4524   22408009.0074
     -3462.2784
  13754732.32848  10701464.39543  24287295.7264   24287292.4484
     -3723.2464
  -6244714.50449  -4856130.00846  22051710.9214   22051708.5624
       708.7644
 04  9  2 16  4  0.0030000  0  6G 1G20G11G14G22G25
  -6284658.43049  -4897115.48444  22741131.1014   22741129.3824
      1017.2904
  -1028141.62146   -797105.93442  24656255.3274   24656252.7104
      1796.3404
  -3398720.11349  -2646680.89145  22306468.9604   22306465.3154
      -193.2594
  11566794.38349   9000693.37145  22417904.5224   22417901.6794
     -3465.6884
  13810619.36348  10745012.69543  24297931.0854   24297927.6514
     -3725.8024
  -6255229.21149  -4864323.27746  22049710.0224   22049708.0194
       700.9804
 04  9  2 16  4 15.0030000  0  6G 1G20G11G14G22G25
  -6299844.35949  -4908948.66845  22738241.9054   22738239.7534
      1012.3954
  -1055078.99246   -818096.06242  24651129.2104   24651127.2764
      1795.8254
  -3395688.57849  -2644318.66445  22307045.9524   22307041.8274
      -202.1024
  11618831.03549   9041241.39845  22427806.9054   22427803.8474
     -3469.1104
  13866545.10248  10788591.16443  24308573.8194   24308570.1554
     -3728.3834
  -6265626.57449  -4872425.10946  22047731.4994   22047729.4174
       693.1584
 04  9  2 16  4 30.0030000  0  6G 1G20G11G14G22G25
  -6314956.77049  -4920724.55944  22735365.6244   22735363.6944
      1007.4944
  -1082008.53147   -839080.10942  24646005.2104   24646002.3514
      1795.3034
  -3392524.03949  -2641852.78545  22307647.8584   22307644.4524
      -210.9694
  11670918.88349   9081829.32045  22437719.2964   22437715.7104
     -3472.5234
  13922509.49648  10832199.77043  24319222.8824   24319219.5034
     -3730.9604
  -6275906.46149  -4880435.39846  22045775.4524   22045773.0194
       685.3264
 04  9  2 16  4 45.0030000  0  6G 1G20G11G14G22G25
  -6329995.10948  -4932442.73845  22732503.7414   22732502.3584
      1002.5564
  -1108929.69946   -860057.63742  24640881.6554   24640879.9724
      1794.7454
  -3389226.02749  -2639282.91845  22308275.6474   22308271.9294
      -219.8674
  11723058.11749   9122457.27045  22447640.8274   22447637.8544
     -3475.9494
  13978513.09448  10875838.89843  24329880.4834   24329876.5694
     -3733.5734
  -6286068.14549  -4888353.59046  22043841.6794   22043839.1714
       677.4464
 04  9  2 16  5  0.0030000  0  6G 1G20G11G14G22G25
  -6344958.45748  -4944102.47344  22729656.1944   22729654.8944
       997.5574
  -1135841.55947   -881027.90242  24635760.9214   24635758.0304
      1794.1244
  -3385793.54749  -2636608.25845  22308928.7184   22308925.1124
      -228.8324
  11775249.38349   9163125.78145  22457572.6944   22457569.6044
     -3479.4184
  14034556.66448  10919509.18443  24340545.4604   24340541.0854
     -3736.2384
  -6296110.47749  -4896178.78546  22041930.3514   22041928.3274
       669.4894
 04  9  2 16  5 15.0030000  0  6G 1G20G11G14G22G25
  -6359848.49648  -4955705.09044  22726822.8904   22726821.2574
       992.6694
  -1162745.66847   -901992.14842  24630640.8974   24630638.3864
      1793.6074
  -3382228.22749  -2633830.09445  22309606.9524   22309603.7184
      -237.6884
  11827490.69949   9203833.28545  22467513.9374   22467510.8314
     -3482.7544
  14090638.53548  10963209.32443  24351216.9444   24351213.5854
     -3738.7914
  -6306035.03549  -4903912.19146  22040042.0384   22040039.4444
       661.6374
 04  9  2 16  5 30.0030000  0  6G 1G20G11G14G22G25
  -6374664.36348  -4967249.91444  22724003.8514   22724001.7804
       987.7244
  -1189640.96146   -922949.52042  24625523.1554   24625520.9524
      1793.0204
  -3378529.00849  -2630947.58645  22310310.8044   22310307.5504
      -246.6154
  11879782.78949   9244580.34845  22477464.7184   22477461.8044
     -3486.1394
  14146759.40248  11006939.82843  24361896.7964   24361893.1834
     -3741.3914
  -6315840.61749  -4911552.89846  22038176.1404   22038173.6014
       653.7054
 04  9  2 16  5 45.0030000  0  6G 1G20G11G14G22G25
  -6389405.28548  -4978736.33245  22721198.8904   22721196.9724
       982.7284
  -1216526.67247   -943899.39842  24620406.9994   24620404.3314
      1792.3814
  -3374695.07049  -2627960.10545  22311040.7884   22311037.0584
      -255.5964
  11932126.23849   9285367.43445  22487425.4374   22487422.5224
     -3489.5634
  14202920.05148  11050701.34443  24372583.9834   24372580.0194
     -3744.0434
  -6325526.34449  -4919100.21146  22036332.9764   22036330.6794
       645.7154
 04  9  2 16  6  0.0030000  0  6G 1G20G11G14G22G25
  -6404070.86749  -4990164.05144  22718407.6164   22718406.0384
       977.7054
  -1243402.35547   -964841.48842  24615293.1404   24615290.1124
      1791.7124
  -3370725.98049  -2624867.31245  22311795.5774   22311792.4374
      -264.6064
  11984521.05949   9326194.55545  22497395.8274   22497392.8194
     -3492.9884
  14259120.76248  11094494.08643  24383278.2884   24383275.0224
     -3746.7144
  -6335091.88749  -4926553.87146  22034512.6324   22034510.3274
       637.7034
 04  9  2 16  6 15.0030000  0  6G 1G20G11G14G22G25
  -6418662.39848  -5001534.05945  22715630.9684   22715629.2104
       972.7694
  -1270269.21947   -985776.70342  24610180.4604   24610177.2454
      1791.1244
  -3366622.80149  -2621670.03145  22312576.7184   22312573.2924
      -273.5454
  12036965.73449   9367060.51645  22507375.7804   22507372.6124
     -3496.3124
  14315360.10948  11138316.93043  24393979.9684   24393977.2724
     -3749.2904
  -6344538.18049  -4933914.62146  22032715.2334   22032712.9564
       629.7534
 04  9  2 16  6 30.0030000  0  6G 1G20G11G14G22G25
  -6433179.00848  -5012845.70345  22712868.4054   22712866.7454
       967.7744
  -1297126.35547  -1006704.33242  24605069.6714   24605066.5194
      1790.4764
  -3362384.58649  -2618367.53545  22313383.4524   22313379.4054
      -282.5484
  12089460.97749   9407965.88745  22517364.9134   22517362.3744
     -3499.6834
  14371638.96148  11182170.53943  24404689.8904   24404686.0584
     -3751.9234
  -6353864.19949  -4941181.63746  22030940.5774   22030938.0154
       621.7354
 04  9  2 16  6 45.0030000  0  6G 1G20G11G14G22G25
  -6447621.33248  -5024099.45344  22710120.1164   22710118.4834
       962.8224
  -1323974.21947  -1027624.73842  24599960.6404   24599957.7964
      1789.8584
  -3358011.94949  -2614960.28145  22314215.4914   22314211.6794
      -291.5094
  12142005.90649   9448909.96945  22527363.8904   22527361.2064
     -3502.9954
  14427956.67648  11226054.45343  24415406.8274   24415402.9764
     -3754.5144
  -6363070.55549  -4948355.41846  22029188.3194   22029186.0584
       613.7574
 04  9  2 16  7  0.0030000  0  6G 1G20G11G14G22G25
  -6461988.00449  -5035294.25445  22707386.2414   22707384.3084
       957.7784
  -1350811.26247  -1048536.69942  24594853.7574   24594851.0384
      1789.1364
  -3353503.40649  -2611447.13745  22315073.1794   22315070.0384
      -300.5704
  12194601.57849   9489893.59445  22537372.4294   22537369.7694
     -3506.3784
  14484314.51648  11269969.62143  24426131.6084   24426127.6044
     -3757.1894
  -6372155.57849  -4955434.65646  22027459.6794   22027456.9334
       605.6684
 04  9  2 16  7 15.0030000  0  6G 1G20G11G14G22G25
  -6476281.14548  -5046431.75445  22704666.5464   22704664.7414
       952.8764
  -1377639.59847  -1069441.89542  24589748.0774   24589745.4444
      1788.5564
  -3348860.96549  -2607829.65645  22315956.7574   22315953.2924
      -309.4964
  12247245.63349   9530914.91845  22547390.4054   22547387.7264
     -3509.6044
  14540710.26648  11313914.34043  24436863.0464   24436859.7144
     -3759.7174
  -6381121.29749  -4962420.92646  22025753.4214   22025751.1674
       597.7154
 04  9  2 16  7 30.0030000  0  6G 1G20G11G14G22G25
  -6490499.62549  -5057511.09045  22701960.8124   22701958.9764
       947.8994
  -1404458.14847  -1090339.44942  24584644.3194   24584641.7924
      1787.9034
  -3344083.39849  -2604106.87945  22316866.1324   22316862.1714
      -318.5044
  12299938.96949   9571974.64145  22557417.5774   22557414.9764
     -3512.8894
  14597144.96548  11357889.39543  24447602.3124   24447598.9834
     -3762.3134
  -6389966.33649  -4969313.16046  22024070.4374   22024068.2064
       589.6694
 04  9  2 16  7 45.0030000  0  6G 1G20G11G14G22G25
  -6504645.14549  -5068533.55145  22699269.0224   22699267.3704
       943.0354
  -1431268.39847  -1111230.53142  24579542.6084   24579540.3744
      1787.3504
  -3339172.43449  -2600280.16045  22317800.3434   22317797.1204
      -327.3984
  12352679.59449   9613071.21945  22567454.0464   22567450.8194
     -3516.0424
  14653616.92648  11401893.50842  24458348.5304   24458345.0814
     -3764.7974
  -6398692.23449  -4976112.55546  22022409.4684   22022407.0224
       581.7274
 04  9  2 16  8  0.0030000  0  6G 1G20G11G14G22G25
  -6518716.68049  -5079498.36745  22696591.3194   22696589.5974
       938.1024
  -1458069.32447  -1132114.35942  24574442.6874   24574440.0464
      1786.7284
  -3334126.95349  -2596348.62145  22318760.1874   22318756.9764
      -336.3654
  12405468.28549   9654205.24645  22577499.3354   22577496.2884
     -3519.2464
  14710127.03148  11445927.32043  24469101.4054   24469099.0974
     -3767.3404
  -6407297.91849  -4982818.27346  22020772.1474   22020769.6444
       573.7124
 04  9  2 16  8 15.0030000  0  6G 1G20G11G14G22G25
  -6532714.51248  -5090405.75845  22693927.6554   22693925.8744
       933.1894
  -1484861.06647  -1152991.03142  24569344.4524   24569341.2534
      1786.1164
  -3328946.99649  -2592312.29745  22319746.2494   22319742.7614
      -345.3304
  12458304.56649   9695376.36345  22587554.0154   22587551.0464
     -3522.4194
  14766674.95348  11489990.59043  24479862.8514   24479859.4564
     -3769.8614
  -6415783.36349  -4989430.30546  22019157.3974   22019155.1014
       565.6964
 04  9  2 16  8 30.0030000  0  6G 1G20G11G14G22G25
  -6546636.97349  -5101254.41445  22691277.9834   22691276.1794
       928.1644
  -1511641.82447  -1173859.16042  24564248.1164   24564245.4334
      1785.3844
  -3323630.83249  -2588169.83645  22320757.7574   22320754.4684
      -354.4114
  12511189.89149   9736585.69545  22597617.5074   22597614.1204
     -3525.6884
  14823262.41848  11534084.68443  24490630.9134   24490627.5224
     -3772.4984
  -6424146.76649  -4995947.23446  22017566.2334   22017563.8584
       557.5604
 04  9  2 16  8 45.0030000  0  6G 1G20G11G14G22G25
  -6560485.70348  -5112045.61745  22688642.8584   22688641.0154
       923.2494
  -1538413.17647  -1194719.93042  24559153.5624   24559151.1794
      1784.7574
  -3318179.96149  -2583922.40245  22321795.0694   22321791.7184
      -363.3914
  12564122.39849   9777831.78945  22607690.2804   22607687.5934
     -3528.8344
  14879887.67248  11578208.21943  24501406.1474   24501402.8584
     -3775.0174
  -6432389.77749  -5002370.35946  22015997.5224   22015994.7694
       549.5344
 04  9  2 16  9  0.0030000  0  6G 1G20G11G14G22G25
  -6574259.50049  -5122778.43045  22686021.9134   22686020.2614
       918.2534
  -1565173.91047  -1215572.44542  24554061.4914   24554058.8624
      1784.0494
  -3312593.34449  -2579569.20345  22322857.8904   22322854.8744
      -372.4414
  12617102.94949   9819115.31345  22617772.1874   22617769.0424
     -3532.0374
  14936551.82848  11622362.08243  24512189.3124   24512185.8084
     -3777.6104
  -6440511.03149  -5008698.59446  22014452.2574   22014449.5974
       541.4174
 04  9  2 16  9 15.0030000  0  6G 1G20G11G14G22G25
  -6587957.38748  -5133452.09045  22683414.8974   22683413.3664
       913.1924
  -1591922.87147  -1236415.80142  24548970.8274   24548968.6324
      1783.2644
  -3306869.93749  -2575109.41445  22323947.2414   22323943.8004
      -381.5604
  12670132.29349   9860436.85545  22627863.2184   22627859.9604
     -3535.2904
  14993255.68048  11666546.85543  24522980.0074   24522976.0344
     -3780.2574
  -6448509.27349  -5014930.98846  22012930.0304   22012927.6834
       533.2164
 04  9  2 16  9 30.0030000  0  6G 1G20G11G14G22G25
  -6601578.72749  -5144066.10945  22680823.0544   22680821.4254
       908.0894
  -1618659.37547  -1257249.42242  24543883.8904   24543880.8624
      1782.4344
  -3301009.04749  -2570542.48845  22325062.4914   22325059.3124
      -390.7264
  12723210.73848   9901796.67245  22637963.9764   22637960.8434
     -3538.5634
  15049999.82448  11710763.05543  24533777.7334   24533774.5344
     -3782.9434
  -6456383.70749  -5021066.90246  22011431.3584   22011429.2334
       524.9624
 04  9  2 16  9 45.0030000  0  6G 1G20G11G14G22G25
  -6615125.23848  -5154621.81645  22678245.0304   22678243.5504
       903.1014
  -1645385.04347  -1278074.61342  24538797.6084   24538795.0934
      1781.7114
  -3295012.18449  -2565869.61345  22326203.8434   22326200.2654
      -399.7914
  12776336.52348   9943193.36745  22648073.0224   22648070.3974
     -3541.7194
  15106782.52048  11755009.27343  24544583.5384   24544579.8314
     -3785.5134
  -6464135.93049  -5027107.59846  22009956.3354   22009953.8944
       516.8154
 04  9  2 16 10  0.0030000  0  6G 1G20G11G14G22G25
  -6628596.14549  -5165118.60545  22675681.6014   22675679.9834
       898.0604
  -1672099.07447  -1298890.73442  24533714.1634   24533711.0114
      1780.9354
  -3288878.58249  -2561090.18045  22327371.0224   22327367.4994
      -408.9074
  12829510.05148   9984627.25845  22658191.8124   22658188.9054
     -3544.9024
  15163604.58648  11799286.16843  24555396.4444   24555392.7294
     -3788.1384
  -6471764.96149  -5033052.28146  22008504.4294   22008501.6754
       508.6024
 04  9  2 16 10 15.0030000  0  6G 1G20G11G14G22G25
  -6641991.46148  -5175556.50445  22673132.3974   22673131.2334
       893.0214
  -1698801.27747  -1319697.64542  24528633.3124   24528630.2064
      1780.1474
  -3282608.04349  -2556204.05545  22328564.2494   22328560.9214
      -418.0364
  12882731.16448  10026098.24245  22668319.4604   22668316.4404
     -3548.0744
  15220465.91848  11843593.66443  24566217.0074   24566213.4094
     -3790.7554
  -6479270.70749  -5038900.91046  22007076.1244   22007073.8394
       500.3834
 04  9  2 16 10 30.0030000  0  6G 1G20G11G14G22G25
  -6655310.42648  -5185934.89845  22670598.0774   22670596.3474
       887.9314
  -1725490.87547  -1340494.73442  24523554.6244   24523551.0264
      1779.3074
  -3276199.82449  -2551210.64845  22329783.8194   22329780.5464
      -427.2154
  12936000.37148  10067606.69545  22678456.1944   22678453.5264
     -3551.2804
  15277367.16048  11887932.26643  24577044.2334   24577041.2884
     -3793.4164
  -6486652.29749  -5044652.79346  22005671.4054   22005668.8824
       492.1064
 04  9  2 16 10 45.0030000  0  6G 1G20G11G14G22G25
  -6668552.20748  -5196253.15645  22668078.4294   22668076.2884
       882.7854
  -1752166.92647  -1361281.25442  24518477.9684   24518474.9444
      1778.4034
  -3269652.93049  -2546109.18045  22331029.7804   22331026.4174
      -436.4604
  12989318.21948  10109153.04745  22688602.3434   22688599.6904
     -3554.5234
  15334309.05148  11932302.53543  24587880.2804   24587877.1124
     -3796.1264
  -6493908.63748  -5050307.07846  22004290.5694   22004288.5624
       483.7564
 04  9  2 16 11  0.0030000  0  6G 1G20G11G14G22G25
  -6681717.59049  -5206511.88745  22665572.9524   22665571.1754
       877.6924
  -1778830.06647  -1382057.71942  24513404.0154   24513401.4444
      1777.5434
  -3262967.95349  -2540900.10945  22332301.8514   22332298.2064
      -445.6654
  13042683.76248  10150736.56645  22698757.3194   22698754.6204
     -3557.7034
  15391290.84848  11976703.89543  24598723.8514   24598720.2224
     -3798.7864
  -6501040.48849  -5055864.36346  22002933.4684   22002931.1944
       475.4574
 04  9  2 16 11 15.0030000  0  6G 1G20G11G14G22G25
  -6694804.80148  -5216709.69145  22663082.5854   22663080.8274
       872.4814
  -1805478.45347  -1402822.68742  24508333.2724   24508330.4764
      1776.5594
  -3256143.21149  -2535582.14145  22333599.9914   22333596.7654
      -454.9834
  13096098.61348  10192358.50445  22708922.3194   22708919.2264
     -3560.9904
  15448314.17648  12021137.62543  24609574.5074   24609571.3084
     -3801.5554
  -6508045.83249  -5061323.06646  22001600.5544   22001598.0624
       467.0234
 04  9  2 16 11 30.0030000  0  6G 1G20G11G14G22G25
  -6707814.83249  -5226847.36745  22660606.5464   22660605.1594
       867.3354
  -1832112.99647  -1423576.87142  24503264.1634   24503261.6444
      1775.6364
  -3249179.64549  -2530155.98845  22334925.5384   22334922.0974
      -464.2384
  13149561.39148  10234017.79745  22719095.8044   22719092.7804
     -3564.1854
  15505378.06648  12065602.98043  24620433.2884   24620430.0504
     -3804.2594
  -6514925.52049  -5066683.86346  22000291.4054   22000288.6514
       458.6464
 04  9  2 16 11 45.0030000  0  6G 1G20G11G14G22G25
  -6720748.52749  -5236925.56245  22658145.7024   22658144.3784
       862.2464
  -1858734.28147  -1444320.72342  24498198.6404   24498195.6754
      1774.7524
  -3242077.99649  -2524622.23845  22336276.4764   22336273.2104
      -473.4434
  13203071.16848  10275713.71145  22729278.3824   22729275.4374
     -3567.3184
  15562481.65648  12110099.25443  24631300.0694   24631296.4994
     -3806.9064
  -6521680.23049  -5071947.26646  21999005.7104   21999003.3394
       450.3144
 04  9  2 16 12  0.0030000  0  6G 1G20G11G14G22G25
  -6733607.06649  -5246945.19145  22655698.7024   22655697.2024
       857.2364
  -1885343.53947  -1465055.19542  24493135.0224   24493132.3704
      1773.9514
  -3234839.32049  -2518981.72745  22337654.4604   22337651.2024
      -482.5784
  13256626.44149  10317445.07444  22739469.7264   22739466.6944
     -3570.3524
  15619623.56348  12154625.36742  24642174.6324   24642170.4644
     -3809.4604
  -6528311.07049  -5077114.14146  21997744.0624   21997741.7534
       442.0564
 04  9  2 16 12 15.0030000  0  6G 1G20G11G14G22G25
  -6746389.86349  -5256905.80545  22653266.3584   22653264.9254
       852.1864
  -1911940.05147  -1485779.73842  24488073.3354   24488071.1554
      1773.1014
  -3227462.91849  -2513233.88345  22339058.1324   22339054.4374
      -491.7604
  13310227.61348  10359212.20745  22749669.5154   22749666.6284
     -3573.4114
  15676804.37948  12199181.82843  24653055.3584   24653051.4564
     -3812.0544
  -6534817.24649  -5082183.88346  21996506.0304   21996503.7884
       433.7454
 04  9  2 16 12 30.0030000  0  6G 1G20G11G14G22G25
  -6759094.48049  -5266805.50045  22650848.7804   22650847.3824
       846.9744
  -1938521.19947  -1506492.30942  24483015.0304   24483013.1324
      1772.0774
  -3219946.34449  -2507376.82045  22340488.5154   22340485.1044
      -501.1054
  13363876.91049  10401016.84045  22759878.4684   22759876.2614
     -3576.6204
  15734026.50448  12243770.44942  24663944.3974   24663940.4994
     -3814.8084
  -6541196.12149  -5087154.43746  21995292.3354   21995289.8904
       425.2584
 04  9  2 16 12 45.0030000  0  6G 1G20G11G14G22G25
  -6771722.77049  -5276645.70345  22648445.6164   22648444.1014
       841.8864
  -1965088.77047  -1527194.30542  24477959.7414   24477957.1944
      1771.1714
  -3212291.45349  -2501411.97745  22341945.0774   22341941.6904
      -510.3264
  13417572.20749  10442857.31644  22770096.4294   22770093.5194
     -3579.6864
  15791288.05147  12288389.82842  24674840.4834   24674837.1124
     -3817.4364
  -6547449.50049  -5092027.18446  21994102.1944   21994099.8824
       416.8924
 04  9  2 16 13  0.0030000  0  6G 1G20G11G14G22G25
  -6784274.77049  -5286426.47745  22646057.1474   22646055.4254
       836.8004
  -1991642.84047  -1547885.79742  24472907.2494   24472903.8624
      1770.2714
  -3204498.15649  -2495339.28145  22343428.2264   22343424.6514
      -519.5534
  13471313.14848  10484733.36344  22780323.2264   22780320.0544
     -3582.7294
  15848588.79747  12333039.71142  24685744.9134   24685740.9374
     -3820.0504
  -6553577.28149  -5096802.07846  21992936.2264   21992933.7374
       408.5194
 04  9  2 16 13 15.0030000  0  6G 1G20G11G14G22G25
  -6796749.73049  -5296147.21945  22643683.4914   22643681.5074
       831.6644
  -2018182.31247  -1568565.91042  24467856.3664   24467853.5264
      1769.2984
  -3196565.58249  -2489158.05945  22344937.3664   22344934.2454
      -528.8384
  13525100.41448  10526645.50445  22790558.3514   22790555.9054
     -3585.8184
  15905929.63747  12377720.85242  24696656.2024   24696652.8514
     -3822.7234
  -6559578.48049  -5101478.33246  21991794.0624   21991792.1084
       400.0804
 04  9  2 16 13 30.0030000  0  6G 1G20G11G14G22G25
  -6809146.91849  -5305807.35245  22641324.4764   22641322.3084
       826.4794
  -2044706.53547  -1589234.12542  24462808.9134   24462806.5774
      1768.2824
  -3188492.99648  -2482867.73845  22346473.7804   22346470.4764
      -538.1724
  13578934.42648  10568594.06644  22800802.5854   22800800.0074
     -3588.9344
  15963311.11347  12422433.65642  24707575.0304   24707572.3744
     -3825.4324
  -6565452.23049  -5106055.27046  21990676.1714   21990673.9994
       391.5834
 04  9  2 16 13 45.0030000  0  6G 1G20G11G14G22G25
  -6821466.96549  -5315407.37945  22638979.5154   22638977.8004
       821.3364
  -2071215.95347  -1609890.78942  24457764.3974   24457761.6084
      1767.2954
  -3180281.05148  -2476468.83245  22348036.4994   22348033.3154
      -547.4634
  13632814.45348  10610578.48045  22811055.7414   22811052.9014
     -3592.0024
  16020732.49647  12467177.56642  24718502.1944   24718498.8234
     -3828.0924
  -6571199.11749  -5110533.35246  21989582.6944   21989580.1444
       383.1264
 04  9  2 16 14  0.0030000  0  6G 1G20G11G14G22G25
  -6833710.75849  -5324947.99245  22636649.7724   22636648.1944
       816.2534
  -2097711.44947  -1630536.63742  24452723.0544   24452719.8274
      1766.3664
  -3171930.56248  -2469961.96545  22349625.2414   22349622.2294
      -556.6994
  13686739.21948  10652597.76644  22821317.9294   22821315.0194
     -3594.9844
  16078192.77047  12511951.75442  24729436.3824   24729433.1044
     -3830.6854
  -6576819.93449  -5114913.20746  21988512.9294   21988510.5264
       374.7214
 04  9  2 16 14 15.0030000  0  6G 1G20G11G14G22G25
  -6845875.36749  -5334426.89145  22634335.0774   22634332.7884
       810.9744
  -2124189.95747  -1651169.22742  24447683.9444   24447681.1714
      1765.2344
  -3163438.52748  -2463344.80145  22351241.2264   22351238.1244
      -566.1364
  13740711.43048  10694654.01644  22831588.1554   22831585.1674
     -3598.1474
  16135694.83647  12556758.52342  24740379.0304   24740375.8544
     -3833.4714
  -6582311.46548  -5119192.31646  21987468.4214   21987465.8974
       366.1024
 04  9  2 16 14 30.0030000  0  6G 1G20G11G14G22G25
  -6857963.74249  -5343846.39845  22632034.5774   22632032.4174
       805.8924
  -2150654.23047  -1671790.73442  24442648.2334   24442645.2724
      1764.2854
  -3154807.81248  -2456619.57445  22352883.7574   22352880.5934
      -575.3814
  13794728.03548  10736744.86344  22841866.8824   22841864.2844
     -3601.1074
  16193235.71547  12601595.53142  24751328.7024   24751325.6204
     -3836.0594
  -6587676.48049  -5123372.83646  21986447.6794   21986444.7534
       357.6684
 04  9  2 16 14 45.0030000  0  6G 1G20G11G14G22G25
  -6869976.02748  -5353206.60545  22629748.9214   22629747.2924
       800.8194
  -2177104.30946  -1692401.16442  24437615.1324   24437612.0504
      1763.3394
  -3146038.46149  -2449786.31645  22354552.5464   22354549.5734
      -584.6234
  13848788.63348  10778869.98445  22852154.2804   22852151.7924
     -3604.0404
  16250815.28147  12646462.68042  24762286.0154   24762282.6874
     -3838.6384
  -6592915.04349  -5127454.82446  21985450.5854   21985448.1124
       349.2384
 04  9  2 16 15  0.0030000  0  6G 1G20G11G14G22G25
  -6881912.54349  -5362507.78145  22627477.3434   22627475.5974
       795.7684
  -2203540.48846  -1713000.77342  24432584.1634   24432581.7374
      1762.4124
  -3137130.66449  -2442845.18745  22356247.6554   22356244.3784
      -593.8534
  13902892.64848  10821028.93444  22862450.3664   22862447.3194
     -3606.9344
  16308433.12547  12691359.68042  24773250.6404   24773247.3904
     -3841.1904
  -6598027.45349  -5131438.52046  21984477.2884   21984475.0504
       340.8274
 04  9  2 16 15 15.0030000  0  6G 1G20G11G14G22G25
  -6893772.98049  -5371749.67645  22625220.1014   22625218.1904
       790.6964
  -2229962.24647  -1733589.15642  24427555.8664   24427554.3584
      1761.4514
  -3128084.14549  -2435795.95745  22357969.3194   22357965.9604
      -603.1014
  13957040.21548  10863221.83245  22872754.0224   22872751.0344
     -3609.8384
  16366089.46148  12736286.64542  24784222.3904   24784218.8004
     -3843.7564
  -6603013.13749  -5135323.45346  21983528.6794   21983526.4254
       332.3794
 04  9  2 16 15 30.0030000  0  6G 1G20G11G14G22G25
  -6905555.76249  -5380931.04745  22622978.3514   22622976.3124
       785.5194
  -2256367.92647  -1754164.99243  24422531.6164   24422529.3864
      1760.3794
  -3118897.22349  -2428637.32445  22359717.1874   22359713.8584
      -612.4614
  14011232.60548  10905449.65244  22883066.5694   22883063.9254
     -3612.8264
  16423785.80147  12781244.78942  24795201.8124   24795198.1204
     -3846.4234
  -6607870.48449  -5139108.39546  21982604.4764   21982602.0734
       323.8234
 04  9  2 16 15 45.0030000  0  6G 1G20G11G14G22G25
  -6917261.68049  -5390052.53945  22620750.3124   22620748.9954
       780.3954
  -2282758.26247  -1774728.87943  24417509.5074   24417507.4954
      1759.3564
  -3109570.69549  -2421369.90645  22361492.1554   22361488.9054
      -621.7684
  14065468.93049  10947711.70744  22893387.6554   22893384.5224
     -3615.7554
  16481521.44548  12826233.55943  24806188.2334   24806184.6594
     -3849.0434
  -6612599.93749  -5142793.66846  21981704.5544   21981701.7144
       315.2974
 04  9  2 16 16  0.0030000  0  6G 1G20G11G14G22G25
  -6928890.80149  -5399114.18045  22618537.4294   22618535.7884
       775.2754
  -2309133.19147  -1795280.77343  24412490.4994   24412487.8514
      1758.3294
  -3100104.55548  -2413993.69545  22363293.5774   22363290.0464
      -631.0764
  14119748.78148  10990007.68045  22903716.7334   22903713.6834
     -3618.6574
  16539296.18448  12871252.81643  24817182.4134   24817179.3544
     -3851.6494
  -6617201.54348  -5146379.32846  21980828.7104   21980826.3584
       306.7744
 04  9  2 16 16 15.0030000  0  6G 1G20G11G14G22G25
  -6940443.89549  -5408116.58245  22616339.0384   22616336.8864
       770.2064
  -2335493.39148  -1815821.15643  24407474.2964   24407471.8624
      1757.3474
  -3090499.47349  -2406509.21545  22365121.3584   22365118.1164
      -640.3394
  14174071.29348  11032336.89544  22914053.8824   22914050.9094
     -3621.5014
  16597109.17648  12916301.85543  24828184.0934   24828181.0154
     -3854.1994
  -6621676.07849  -5149865.97346  21979977.5154   21979975.1474
       298.3024
 04  9  2 16 16 30.0030000  0  6G 1G20G11G14G22G25
  -6951922.90649  -5417061.26245  22614154.5544   22614152.3514
       765.2674
  -2361840.46147  -1836351.34043  24402460.9134   24402458.3664
      1756.4714
  -3080757.18748  -2398917.84045  22366975.1634   22366972.0424
      -649.4864
  14228434.29348  11074697.66044  22924398.8124   22924395.7804
     -3624.2004
  16654958.42648  12961379.14843  24839192.4914   24839189.6714
     -3856.6174
  -6626025.18449  -5153254.87946  21979149.6634   21979147.2264
       289.9404
 04  9  2 16 16 45.0030000  0  6G 1G20G11G14G22G25
  -6963326.02749  -5425946.80145  22611984.8044   22611982.5814
       760.2084
  -2388172.73847  -1856869.98443  24397449.7804   24397447.0624
      1755.4854
  -3070876.15248  -2391218.33245  22368855.7654   22368852.1204
      -658.7364
  14282839.28148  11117091.14844  22934751.3904   22934748.5974
     -3626.9994
  16712845.55948  13006485.98043  24850208.0224   24850204.9684
     -3859.1424
  -6630247.07049  -5156544.66046  21978346.1944   21978343.8274
       281.4594
 04  9  2 16 17  0.0030000  0  6G 1G20G11G14G22G25
  -6974653.70349  -5434773.54745  22609829.1944   22609826.9214
       755.1784
  -2414490.43747  -1877377.27342  24392441.6634   24392438.9054
      1754.5134
  -3060856.66048  -2383410.94545  22370762.1084   22370759.1984
      -667.9664
  14337285.69148  11159516.90644  22945112.3514   22945109.1404
     -3629.7614
  16770770.15248  13051622.00442  24861230.4134   24861227.6714
     -3861.6404
  -6634341.91849  -5159735.44546  21977567.1794   21977564.7024
       272.9904
 04  9  2 16 17 15.0030000  0  6G 1G20G11G14G22G25
  -6985906.50449  -5443541.96145  22607687.7494   22607685.7374
       750.1874
  -2440793.98847  -1897873.54742  24387435.9684   24387433.6794
      1753.5704
  -3050699.14848  -2375496.01245  22372694.9294   22372691.7414
      -677.1674
  14391772.70348  11201974.30544  22955480.9374   22955477.7724
     -3632.4674
  16828731.71548  13096786.80943  24872260.0694   24872257.6514
     -3864.1044
  -6638310.22749  -5162827.61746  21976812.0544   21976809.4564
       264.5544
 04  9  2 16 17 30.0030000  0  6G 1G20G11G14G22G25
  -6997084.56649  -5452252.12945  22605560.5544   22605558.6754
       745.2044
  -2467083.39147  -1918358.77742  24382433.6794   24382431.1084
      1752.6274
  -3040403.76649  -2367473.64145  22374654.1164   22374650.9214
      -686.3594
  14446299.96948  11244463.06344  22965857.3904   22965854.2264
     -3635.1514
  16886730.03548  13141980.26643  24883297.1554   24883293.9014
     -3866.5554
  -6642151.96949  -5165821.18046  21976081.0074   21976078.3864
       256.1164
 04  9  2 16 17 45.0030000  0  6G 1G20G11G14G22G25
  -7008187.91449  -5460904.07445  22603447.5464   22603445.9524
       740.2234
  -2493358.57847  -1938832.93442  24377433.6554   24377430.5464
      1751.6794
  -3029970.39549  -2359343.74245  22376639.6944   22376636.1794
      -695.5584
  14500867.27048  11286983.02744  22976241.1324   22976238.0894
     -3637.8204
  16944764.90248  13187202.20743  24894340.9604   24894337.3944
     -3868.9914
  -6645867.01649  -5168716.02346  21975373.7184   21975371.0854
       247.6704
 04  9  2 16 18  0.0030000  0  6G 1G20G11G14G22G25
  -7019213.40249  -5469495.35545  22601349.7024   22601347.6204
       735.0334
  -2519616.36347  -1959293.54742  24372436.8194   24372434.6164
      1750.5194
  -3019395.92249  -2351103.89545  22378651.8434   22378648.5304
      -704.9654
  14555477.57848  11329536.50844  22986633.3824   22986629.8314
     -3640.6874
  17002839.47748  13232455.09842  24905392.2724   24905388.8824
     -3871.6384
  -6649452.01249  -5171509.51246  21974691.5694   21974689.4564
       239.0004
 04  9  2 16 18 15.0030000  0  6G 1G20G11G14G22G25
  -7030165.21149  -5478029.21945  22599265.2334   22599263.6124
       730.1214
  -2545860.71547  -1979743.66442  24367442.6874   24367440.1364
      1749.6234
  -3008684.47349  -2342757.32045  22380690.7414   22380687.1874
      -714.0974
  14610126.48848  11372120.05544  22997032.2574   22997029.4444
     -3643.2614
  17060949.53147  13277735.62142  24916450.2334   24916446.5774
     -3874.0044
  -6652911.08649  -5174204.89146  21974033.6404   21974030.9954
       230.6054
 04  9  2 16 18 30.0030000  0  6G 1G20G11G14G22G25
  -7041041.73849  -5486504.42245  22597195.5074   22597194.0424
       725.1024
  -2572089.86747  -2000181.96942  24362451.1404   24362449.3904
      1748.6104
  -2997834.34048  -2334302.67245  22382754.9834   22382751.7184
      -723.3424
  14664815.37948  11414734.75844  23007439.6084   23007436.5544
     -3645.9264
  17119096.60247  13323044.99242  24927514.3044   24927511.9794
     -3876.4714
  -6656242.46549  -5176800.76246  21973399.5224   21973396.7224
       222.0924
 04  9  2 16 18 45.0030000  0  6G 1G20G11G14G22G25
  -7051842.48049  -5494920.58245  22595140.4684   22595138.9054
       720.0494
  -2598303.25446  -2020607.95342  24357462.8514   24357460.8194
      1747.5594
  -2986844.97348  -2325739.53146  22384846.4054   22384842.8124
      -732.6244
  14719544.56349  11457380.85244  23017854.0774   23017850.9954
     -3648.6124
  17177281.09047  13368383.52042  24938587.0074   24938584.1324
     -3878.9664
  -6659445.66449  -5179296.76246  21972789.7184   21972787.3394
       213.5474
 04  9  2 16 19  0.0030000  0  6G 1G20G11G14G22G25
  -7062567.31249  -5503277.58645  22593099.6714   22593097.7844
       714.9894
  -2624500.62147  -2041021.48042  24352477.8124   24352475.6014
      1746.4914
  -2975716.20349  -2317067.76645  22386964.1944   22386961.0464
      -741.9184
  14774313.94148  11500058.27344  23028276.2414   23028273.3974
     -3651.2924
  17235503.12147  13413751.28542  24949665.9764   24949663.4374
     -3881.4694
  -6662520.27349  -5181692.55546  21972205.0774   21972202.1674
       204.9744
 04  9  2 16 19 15.0030000  0  6G 1G20G11G14G22G25
  -7073215.64549  -5511574.98845  22591073.3274   22591071.3434
       709.8894
  -2650681.22346  -2061421.92642  24347495.9294   24347493.6514
      1745.3734
  -2964447.43049  -2308286.92245  22389108.3744   22389105.2294
      -751.2524
  14829123.91449  11542767.32844  23038706.2334   23038703.6324
     -3653.9984
  17293763.24247  13459148.73842  24960752.5624   24960750.0194
     -3884.0084
  -6665465.63749  -5183987.63346  21971644.4604   21971641.6984
       196.3584
 04  9  2 16 19 30.0030000  0  6G 1G20G11G14G22G25
  -7083787.61349  -5519812.88345  22589061.3824   22589059.2224
       704.7984
  -2676845.15247  -2081809.39142  24342516.8904   24342514.6754
      1744.2624
  -2953038.76649  -2299397.05145  22391279.1794   22391276.4334
      -760.5784
  14883974.25849  11585507.83644  23049143.8824   23049141.2024
     -3656.6904
  17352061.23046  13504575.68442  24971846.2184   24971843.1904
     -3886.5334
  -6668281.68049  -5186181.94946  21971108.5934   21971105.9334
       187.7364
 04  9  2 16 19 45.0030000  0  6G 1G20G11G14G22G25
  -7094284.13349  -5527991.98445  22587064.2024   22587062.2144
       699.7684
  -2702993.06647  -2102184.39142  24337541.3744   24337538.4914
      1743.1944
  -2941491.05149  -2290398.84045  22393476.7184   22393473.6634
      -769.8484
  14938863.77749  11628278.87144  23059589.2414   23059586.2494
     -3659.3014
  17410396.21547  13550031.48042  24982947.1244   24982944.3664
     -3888.9994
  -6670969.24249  -5188276.14546  21970597.0854   21970594.6204
       179.1714
 04  9  2 16 20  0.0030000  0  6G 1G20G11G14G22G25
  -7104704.29749  -5536111.58645  22585080.9604   22585079.1014
       694.6784
  -2729123.91447  -2122546.07842  24332568.8514   24332566.4294
      1742.0574
  -2929803.21548  -2281291.43745  22395700.8274   22395697.7654
      -779.1894
  14993793.20349  11671081.00444  23070041.6874   23070038.9954
     -3661.9624
  17468768.98047  13595516.70342  24994055.1474   24994052.4254
     -3891.5184
  -6673527.32449  -5190269.45346  21970110.3044   21970107.8514
       170.5394
 04  9  2 16 20 15.0030000  0  6G 1G20G11G14G22G25
  -7115047.51649  -5544171.22745  22583112.9994   22583110.5224
       689.5484
  -2755236.98047  -2142893.91042  24327600.0304   24327596.7454
      1740.8714
  -2917974.74648  -2272074.44946  22397951.6164   22397948.4294
      -788.5654
  15048762.82449  11713914.45744  23080502.2494   23080499.4914
     -3664.6414
  17527180.12946  13641031.82842  25005170.9684   25005167.3784
     -3894.0774
  -6675955.19149  -5192161.28946  21969648.5154   21969645.6474
       161.8584
 04  9  2 16 20 30.0030000  0  6G 1G20G11G14G22G25
  -7125313.44549  -5552170.64545  22581159.3744   22581157.2224
       684.3954
  -2781331.83647  -2163227.56642  24322634.1554   24322630.3274
      1739.6574
  -2906005.26249  -2262747.58646  22400229.4764   22400226.8394
      -797.9664
  15103772.83649  11756779.38344  23090970.4764   23090967.4094
     -3667.3344
  17585629.83247  13686577.03142  25016293.9604   25016290.7064
     -3896.6474
  -6678252.48449  -5193951.38346  21969211.1794   21969208.3864
       153.1534
 04  9  2 16 20 45.0030000  0  6G 1G20G11G14G22G25
  -7135502.08649  -5560109.84045  22579220.5464   22579218.7764
       679.2434
  -2807408.33248  -2183546.94542  24317671.7964   24317668.3044
      1738.4334
  -2893894.73849  -2253310.82045  22402534.3044   22402530.9094
      -807.3684
  15158823.09449  11799675.66444  23101445.7334   23101443.1404
     -3670.0174
  17644118.15246  13732152.31642  25027423.8194   25027420.2884
     -3899.2214
  -6680418.96549  -5195639.54346  21968798.8824   21968796.1554
       144.4324
 04  9  2 16 21  0.0030000  0  6G 1G20G11G14G22G25
  -7145613.43749  -5567988.80545  22577296.4444   22577294.6164
       674.0904
  -2833466.35948  -2203851.88342  24312713.3824   24312709.8394
      1737.2024
  -2881643.18448  -2243764.15245  22404865.2654   22404862.2804
      -816.7704
  15213913.22749  11842603.02744  23111929.1014   23111926.6244
     -3672.6764
  17702644.91847  13777757.55942  25038560.7574   25038557.8354
     -3901.7844
  -6682454.63349  -5197225.77346  21968411.6714   21968408.8314
       135.7114
 04  9  2 16 21 15.0030000  0  6G 1G20G11G14G22G25
  -7155647.83249  -5575807.80145  22575386.9524   22575384.7224
       668.9604
  -2859506.10948  -2224142.59842  24307757.9134   24307754.6634
      1735.9834
  -2869250.90249  -2234107.84045  22407223.4764   22407220.2374
      -826.1524
  15269042.77349  11885561.09844  23122420.0624   23122417.0544
     -3675.3034
  17761209.70746  13823392.41842  25049705.4604   25049702.4794
     -3904.3194
  -6684359.68049  -5198710.22346  21968049.2654   21968046.2024
       127.0034
 04  9  2 16 21 30.0030000  0  6G 1G20G11G14G22G25
  -7165604.15649  -5583565.96145  22573492.4444   22573490.3704
       663.7554
  -2885526.40648  -2244418.17642  24302806.6164   24302802.7614
      1734.6864
  -2856716.50048  -2224340.78145  22409608.6324   22409605.8944
      -835.6274
  15324212.64849  11928550.58644  23132918.5544   23132916.0504
     -3677.9924
  17819813.60246  13869057.75442  25060856.6944   25060854.2724
     -3906.9264
  -6686132.81648  -5200091.87946  21967711.4684   21967708.5894
       118.2094
 04  9  2 16 21 45.0030000  0  6G 1G20G11G14G22G25
  -7175484.28949  -5591264.75845  22571612.1714   22571610.5694
       658.6764
  -2911528.95748  -2264679.88743  24297858.4214   24297855.8354
      1733.5034
  -2844042.10248  -2214464.62545  22412020.7494   22412017.3744
      -844.9604
  15379420.77748  11971569.88744  23143424.4834   23143421.4484
     -3680.5424
  17878454.70746  13914752.08242  25072016.6084   25072013.5584
     -3909.4074
  -6687775.91449  -5201372.21146  21967399.0304   21967396.3124
       109.5404
 04  9  2 16 22  0.0030000  0  6G 1G20G11G14G22G25
  -7185286.30149  -5598902.68045  22569746.6944   22569745.0734
       653.4674
  -2937511.51248  -2284926.02743  24292913.8124   24292911.4564
      1732.1704
  -2831225.53948  -2204477.69945  22414459.2184   22414456.2884
      -854.4374
  15434668.89548  12014620.35244  23153937.5544   23153934.9294
     -3683.2084
  17937135.00846  13960476.94942  25083183.4134   25083179.9794
     -3912.0204
  -6689286.73848  -5202549.46546  21967111.5624   21967108.6284
       100.7224
 04  9  2 16 22 15.0040000  0  6G 1G20G11G14G22G25
  -7195012.47349  -5606481.50445  22567896.0194   22567894.4024
       648.4114
  -2963477.48048  -2305159.25043  24287972.8484   24287970.1644
      1731.0654
  -2818267.70348  -2194380.68745  22416925.5044   22416922.0704
      -863.8564
  15489958.92649  12057703.47744  23164459.2074   23164456.3054
     -3686.0024
  17995856.61747  14006234.00843  25094357.8014   25094354.4104
     -3914.7744
  -6690667.01648  -5203625.00446  21966848.6764   21966845.7304
        92.0184
 04  9  2 16 22 30.0040000  0  6G 1G20G11G14G22G25
  -7204659.65649  -5613998.78545  22566060.2464   22566058.2424
       643.1464
  -2989421.30948  -2325375.20743  24283035.7154   24283033.6874
      1729.5894
  -2805168.28548  -2184173.35546  22419417.9494   22419415.1804
      -873.2954
  15545285.22748  12100814.85544  23174987.0984   23174984.5274
     -3688.4204
  18054613.53946  14052018.60542  25105538.7154   25105535.6804
     -3917.1284
  -6691914.50448  -5204597.05946  21966611.3484   21966608.5164
        83.1664
 04  9  2 16 22 45.0040000  0  6G 1G20G11G14G22G25
  -7214230.02349  -5621456.21545  22564239.0744   22564237.3244
       638.0244
  -3015346.14148  -2345576.36343  24278102.3794   24278099.8284
      1728.3224
  -2791927.79748  -2173856.09445  22421937.7154   22421934.6764
      -882.6994
  15600649.75848  12143956.03144  23185523.0744   23185519.9614
     -3690.9694
  18113408.16846  14097832.57842  25116726.1374   25116723.9024
     -3919.6424
  -6693030.62149  -5205466.75446  21966398.9574   21966396.1844
        74.4084
 04  9  2 16 23  0.0040000  0  6G 1G20G11G14G22G25
  -7223722.92249  -5628853.26245  22562432.5664   22562430.8674
       632.8604
  -3041251.17248  -2365762.09043  24273173.3484   24273170.6844
      1727.0024
  -2778545.82448  -2163428.58645  22424484.0274   22424480.9104
      -892.1324
  15656052.93848  12187127.32444  23196065.9734   23196063.0624
     -3693.5454
  18172241.11346  14143676.39142  25127921.9574   25127919.4344
     -3922.1964
  -6694014.77748  -5206233.62146  21966211.6374   21966208.9454
        65.6104
 04  9  2 16 23 15.0040000  0  6G 1G20G11G14G22G25
  -7233139.20749  -5636190.61745  22560640.7304   22560639.2664
       627.7524
  -3067137.19548  -2385933.00443  24268246.7544   24268244.9574
      1725.7354
  -2765023.12948  -2152891.43045  22427057.6054   22427054.0194
      -901.5134
  15711493.61748  12230327.83644  23206615.8094   23206612.6644
     -3696.0454
  18231111.46146  14189549.33242  25139125.0194   25139121.6374
     -3924.6904
  -6694867.62149  -5206898.16846  21966049.1994   21966046.5234
        56.8564
 04  9  2 16 23 30.0040000  0  6G 1G20G11G14G22G25
  -7242478.30149  -5643467.82445  22558863.3944   22558862.0164
       622.6064
  -3093003.40648  -2406088.47343  24263325.2624   24263322.6294
      1724.4144
  -2751359.10548  -2142244.14145  22429657.8244   22429654.5124
      -910.9354
  15766972.32048  12273557.98044  23217173.0514   23217170.2464
     -3698.5804
  18290019.70746  14235451.83242  25150334.7464   25150331.3094
     -3927.2164
  -6695588.55549  -5207459.93046  21965912.0744   21965909.5594
        48.0624
 04  9  2 16 23 45.0040000  0  6G 1G20G11G14G22G25
  -7251739.29349  -5650684.16845  22557101.4104   22557099.6294
       617.3994
  -3118848.80548  -2426227.73843  24258406.6764   24258404.2154
      1723.0274
  -2737552.81648  -2131486.00045  22432284.9104   22432281.9454
      -920.4194
  15822489.63748  12316818.20744  23227737.9884   23227734.8944
     -3701.1544
  18348966.68446  14281384.48842  25161551.6684   25161548.8524
     -3929.7984
  -6696176.56249  -5207918.10546  21965800.2384   21965797.6684
        39.2014
 04  9  2 16 24  0.0040000  0  6G 1G20G11G14G22G25
  -7260923.75049  -5657840.88345  22555353.4574   22555351.5744
       612.2974
  -3144674.72348  -2446351.81643  24253492.1444   24253489.9144
      1721.7284
  -2723605.73049  -2120618.14845  22434938.9574   22434935.8874
      -929.8064
  15878043.91448  12360107.23844  23238309.4734   23238306.6024
     -3703.6184
  18407950.75446  14327346.07042  25172776.5594   25172773.6954
     -3932.2714
  -6696633.01249  -5208273.78146  21965713.3244   21965710.5624
        30.4304
 04  9  2 16 24 15.0040000  0  6G 1G20G11G14G22G25
  -7270031.19949  -5664937.59445  22553620.0664   22553618.7194
       607.1634
  -3170480.51248  -2466460.20743  24248581.1994   24248578.8984
      1720.3864
  -2709517.32849  -2109640.17245  22437620.0044   22437616.7384
      -939.2274
  15933635.50048  12403425.33244  23248888.2624   23248885.5124
     -3706.1064
  18466972.46946  14373336.97742  25184007.7234   25184004.5864
     -3934.7814
  -6696957.32849  -5208526.48846  21965651.9804   21965649.1414
        21.6214
 04  9  2 16 24 30.0040000  0  6G 1G20G11G14G22G25
  -7279060.18049  -5671973.14845  22551902.2154   22551900.5274
       601.9324
  -3196264.63348  -2486551.72743  24243674.9884   24243672.1174
      1718.9414
  -2695286.16849  -2098550.97345  22440328.2234   22440325.0274
      -948.7444
  15989265.64848  12446773.47744  23259474.3944   23259471.6644
     -3708.6774
  18526033.15646  14419358.24642  25195246.0904   25195243.9064
     -3937.3794
  -6697147.94549  -5208675.01646  21965615.3484   21965612.7774
        12.7084
 04  9  2 16 24 45.0040000  0  6G 1G20G11G14G22G25
  -7288009.98849  -5678947.02046  22550199.2154   22550197.6844
       596.6544
  -3222026.28947  -2506625.73043  24238772.3404   24238769.7074
      1717.4444
  -2680911.45748  -2087349.90245  22443063.4264   22443060.2854
      -958.3144
  16044934.86749  12490152.07444  23270067.5824   23270065.5904
     -3711.2814
  18585133.46545  14465410.39842  25206492.9654   25206490.5704
     -3940.0214
  -6697204.14149  -5208718.79746  21965604.8094   21965601.8914
         3.7464
 04  9  2 16 25  0.0040000  0  6G 1G20G11G14G22G25
  -7296883.10949  -5685861.13345  22548510.6604   22548508.9064
       591.5414
  -3247767.77748  -2526684.02343  24233874.3484   24233871.6724
      1716.0994
  -2666395.78948  -2076038.99646  22445825.8794   22445822.7114
      -967.7114
  16100640.43049  12533558.98444  23280667.8634   23280665.2624
     -3713.7044
  18644270.89546  14511491.44542  25217746.7774   25217744.0194
     -3942.4954
  -6697128.23448  -5208659.64146  21965619.0904   21965616.5194
        -5.0604
 04  9  2 16 25 15.0040000  0  6G 1G20G11G14G22G25
  -7305678.61749  -5692714.76645  22546837.0124   22546834.7154
       586.3674
  -3273487.98847  -2546725.71543  24228979.4264   24228977.3634
      1714.6814
  -2651738.23048  -2064617.52745  22448615.1444   22448611.7424
      -977.1714
  16156383.00448  12576994.73444  23291275.5904   23291272.9654
     -3716.1724
  18703446.31346  14557602.10942  25229007.0664   25229004.3404
     -3945.0284
  -6696919.05148  -5208496.63346  21965658.7154   21965656.1954
       -13.9464
 04  9  2 16 25 30.0040000  0  6G 1G20G11G14G22G25
  -7314396.88749  -5699508.22345  22545177.9494   22545175.8794
       581.2184
  -3299187.09047  -2566750.98042  24224089.0274   24224086.7814
      1713.2734
  -2636939.15249  -2053085.78145  22451431.3094   22451427.6874
      -986.6054
  16212162.14849  12620458.98444  23301889.8794   23301887.5744
     -3718.6104
  18762659.30546  14603742.05942  25240276.0904   25240272.3404
     -3947.5334
  -6696576.86349  -5208229.97746  21965724.0434   21965721.4304
       -22.8124
 04  9  2 16 25 45.0040000  0  6G 1G20G11G14G22G25
  -7323037.82449  -5706241.41045  22543533.5744   22543531.6954
       576.0634
  -3324864.90247  -2586759.65242  24219202.4804   24219200.0434
      1711.8544
  -2621998.25049  -2041443.52345  22454274.1684   22454271.0434
      -996.0604
  16267977.87949  12663951.74644  23312511.4804   23312508.7464
     -3721.0494
  18821909.90646  14649911.33242  25251550.6214   25251547.3164
     -3950.0404
  -6696101.56649  -5207859.61746  21965814.5124   21965811.8484
       -31.6864
 04  9  2 16 26  0.0040000  0  6G 1G20G11G14G22G25
  -7331601.51649  -5712914.41046  22541903.9734   22541902.3444
       570.9134
  -3350521.32047  -2606751.66043  24214319.9654   24214318.2154
      1710.4284
  -2606915.63748  -2029690.83645  22457144.5904   22457141.2624
     -1005.5084
  16323829.85549  12707472.73444  23323139.8164   23323136.8674
     -3723.4654
  18881197.91846  14696109.74642  25262832.7694   25262829.8284
     -3952.5344
  -6695493.19548  -5207385.55546  21965929.9184   21965927.6214
       -40.5584
 04  9  2 16 26 15.0040000  0  6G 1G20G11G14G22G25
  -7340087.06649  -5719526.52045  22540289.2304   22540287.3754
       565.7034
  -3376155.41448  -2626726.26643  24209442.3094   24209440.1334
      1708.9404
  -2591690.46548  -2017827.07446  22460041.8484   22460038.4184
     -1015.0114
  16379718.73448  12751022.49244  23333775.3714   23333772.6484
     -3725.9254
  18940524.34446  14742338.08642  25274121.4184   25274119.0314
     -3955.0954
  -6694750.78149  -5206807.04346  21966071.3014   21966069.1134
       -49.4944
 04  9  2 16 26 30.0040000  0  6G 1G20G11G14G22G25
  -7348494.94949  -5726078.11346  22538689.2544   22538687.1374
       560.5264
  -3401767.34048  -2646683.59843  24204568.7154   24204566.5514
      1707.4624
  -2576323.09849  -2005852.50845  22462966.2774   22462962.8674
     -1024.4914
  16435644.00448  12794600.60544  23344417.1604   23344414.5394
     -3728.3514
  18999888.60547  14788595.91442  25285418.6294   25285415.7934
     -3957.6174
  -6693874.67649  -5206124.36346  21966238.1374   21966235.7544
       -58.4074
 04  9  2 16 26 45.0040000  0  6G 1G20G11G14G22G25
  -7356825.14549  -5732569.16846  22537104.1134   22537102.4924
       555.3464
  -3427357.05948  -2666623.62543  24199699.3944   24199696.9304
      1705.9814
  -2560813.56249  -1993767.16045  22465917.5744   22465914.2814
     -1033.9694
  16491605.28548  12838206.77744  23355066.3714   23355063.9884
     -3730.7524
  19059290.52347  14834883.07442  25296722.4104   25296719.7344
     -3960.1284
  -6692864.70349  -5205337.35946  21966430.1524   21966427.5824
       -67.3324
 04  9  2 16 27  0.0040000  0  6G 1G20G11G14G22G25
  -7365079.57849  -5739001.18745  22535533.5274   22535531.5904
       550.2964
  -3452926.12948  -2686547.57043  24194833.9184   24194831.2344
      1704.6054
  -2545163.61748  -1981572.39846  22468895.3164   22468892.2974
     -1043.3304
  16547600.58248  12881839.45744  23365721.5354   23365719.3674
     -3733.0204
  19118728.21947  14881198.12142  25308033.1604   25308030.0514
     -3962.5134
  -6691722.55149  -5204447.36746  21966647.6844   21966645.2074
       -76.1434
 04  9  2 16 27 15.0040000  0  6G 1G20G11G14G22G25
  -7373258.36349  -5745374.25846  22533976.9024   22533974.9024
       545.2524
  -3478474.63348  -2706455.48443  24189971.8404   24189969.7154
      1703.2344
  -2529373.57048  -1969268.47346  22471900.3014   22471897.0594
     -1052.6704
  16603629.58648  12925498.39544  23376383.8714   23376381.2194
     -3735.2674
  19178201.49647  14927540.87942  25319350.4804   25319347.7274
     -3964.8854
  -6690448.36749  -5203454.48846  21966889.8404   21966887.6054
       -84.9464
 04  9  2 16 27 30.0040000  0  6G 1G20G11G14G22G25
  -7381360.55149  -5751687.64545  22532434.9734   22532433.3754
       540.1464
  -3504001.55548  -2726346.58243  24185114.3094   24185111.8634
      1701.7954
  -2513442.44948  -1956854.61345  22474931.9104   22474928.4414
     -1062.0754
  16659693.05949  12969184.20344  23387052.3484   23387050.0394
     -3737.5654
  19237711.35247  14973912.16442  25330675.0664   25330672.3364
     -3967.3244
  -6689041.18448  -5202357.97346  21967157.8944   21967155.5394
       -93.8124
 04  9  2 16 27 45.0040000  0  6G 1G20G11G14G22G25
  -7389385.04349  -5757940.48445  22530908.0354   22530906.4964
       534.9664
  -3529505.49648  -2746219.78143  24180260.9264   24180258.3324
      1700.2634
  -2497369.14148  -1944329.95345  22477990.0354   22477987.4264
     -1071.5544
  16715792.01649  13012897.66044  23397727.2234   23397725.0664
     -3739.9304
  19297258.77047  15020312.71942  25342006.9964   25342003.6484
     -3969.8284
  -6687499.66449  -5201156.78546  21967451.0664   21967448.8524
      -102.7684
 04  9  2 16 28  0.0040000  0  5G 1G20G11G14G25
  -7397332.97349  -5764133.66845  22529395.6134   22529393.9304
       529.8624
  -3554987.44948  -2766075.85243  24175411.9344   24175409.6094
      1698.7974
  -2481154.71548  -1931695.34446  22481075.8324   22481072.8944
     -1080.9624
  16771925.12949  13056637.72744  23408409.2154   23408407.2934
     -3742.2084
  -6685824.88749  -5199851.75846  21967770.0514   21967767.7234
      -111.6524
 04  9  2 16 28 15.0040000  0  5G 1G20G11G14G25
  -7405203.38749  -5770266.45745  22527897.9414   22527896.2154
       524.6944
  -3580446.34848  -2785913.92643  24170566.8244   24170564.3364
      1697.2604
  -2464798.18049  -1918949.99246  22484188.5744   22484185.5944
     -1090.4364
  16828093.09448  13100404.95344  23419098.2074   23419095.4694
     -3744.5314
  -6684015.84849  -5198442.10946  21968114.3714   21968111.7154
      -120.6034
 04  9  2 16 28 30.0040000  0  5G 1G20G11G14G25
  -7412997.25449  -5776339.59045  22526414.7384   22526412.9414
       519.5914
  -3605882.92248  -2805734.62543  24165726.8244   24165723.7624
      1695.7724
  -2448300.42648  -1906094.60245  22487327.8094   22487324.8204
     -1099.8504
  16884294.85548  13144198.52044  23429792.7624   23429790.4304
     -3746.7844
  -6682073.43449  -5196928.54346  21968483.9024   21968481.3364
      -129.4944
 04  9  2 16 28 45.0040000  0  5G 1G20G11G14G25
  -7420713.19549  -5782352.00445  22524946.3794   22524944.9694
       514.3964
  -3631295.75848  -2825536.83643  24160891.1054   24160888.0784
      1694.1894
  -2431660.14549  -1893128.15645  22490494.4104   22490491.1174
     -1109.3524
  16940531.54748  13188019.30144  23440494.1374   23440491.7814
     -3749.1134
  -6679996.15249  -5195309.86746  21968878.8554   21968876.9264
      -138.4854
 04  9  2 16 29  0.0040000  0  5G 1G20G11G14G25
  -7428351.27749  -5788303.75445  22523492.9414   22523491.1684
       509.2054
  -3656684.68748  -2845320.41443  24156059.0824   24156056.5354
      1692.5954
  -2414877.47749  -1880050.75845  22493688.1134   22493684.9694
     -1118.8454
  16996803.02048  13231867.19144  23451202.6914   23451199.7734
     -3751.4324
  -6677783.91849  -5193586.05146  21969300.2384   21969297.5474
      -147.4824
 04  9  2 16 29 15.0040000  0  5G 1G20G11G14G25
  -7435910.49649  -5794194.03545  22522054.5044   22522052.6414
       503.9484
  -3682048.53148  -2865084.44143  24151232.7624   24151230.0274
      1690.9234
  -2397951.38748  -1866861.59845  22496909.5044   22496905.7734
     -1128.4064
  17053110.07048  13275742.80144  23461917.5664   23461915.3094
     -3753.8034
  -6675435.67649  -5191756.24246  21969747.0904   21969744.5434
      -156.5494
 04  9  2 16 29 30.0040000  0  5G 1G20G11G14G25
  -7443390.43049  -5800022.55546  22520631.4414   22520629.4804
       498.6624
  -3707386.72348  -2884828.48442  24146411.3164   24146408.4494
      1689.2134
  -2380881.39548  -1853560.30945  22500157.2074   22500154.1334
     -1137.9994
  17109452.89148  13319646.27344  23472639.1294   23472636.3054
     -3756.1884
  -6672951.06249  -5189820.17646  21970219.7694   21970217.3634
      -165.6414
 04  9  2 16 29 45.0040000  0  5G 1G20G11G14G25
  -7450792.71549  -5805790.55945  22519222.2304   22519220.5704
       493.4864
  -3732700.54348  -2904553.53542  24141593.9964   24141591.3794
      1687.5884
  -2363669.14848  -1840148.16846  22503433.0044   22503429.8244
     -1147.4834
  17165829.78149  13363576.30544  23483367.6684   23483364.8284
     -3758.4594
  -6670331.40649  -5187778.88346  21970718.1054   21970715.7894
      -174.6444
 04  9  2 16 30  0.0040000  0  5G 1G20G11G14G25
  -7458117.57849  -5811498.23445  22517828.3014   22517826.7304
       488.3244
  -3757990.23848  -2924259.78943  24136781.6994   24136778.6874
      1685.9804
  -2346314.80149  -1826625.31245  22506735.3244   22506732.2154
     -1156.9574
  17222240.27749  13407532.51244  23494101.8554   23494099.2304
     -3760.7004
  -6667576.91449  -5185632.51246  21971242.2304   21971239.6724
      -183.6334
 04  9  2 16 30 15.0040000  0  5G 1G20G11G14G25
  -7465364.55949  -5817145.21545  22516449.3944   22516447.6294
       483.1324
  -3783255.18048  -2943946.73843  24131973.9884   24131971.5984
      1684.3294
  -2328817.99648  -1812991.43445  22510064.7624   22510061.5234
     -1166.4544
  17278684.80948  13451515.24244  23504842.8794   23504840.2584
     -3762.9694
  -6664686.93049  -5183380.57846  21971792.1684   21971789.8944
      -192.6664
 04  9  2 16 30 30.0040000  0  5G 1G20G11G14G25
  -7472533.67649  -5822731.52746  22515085.2544   22515083.6684
       477.9414
  -3808495.17248  -2963614.25443  24127170.6054   24127168.4844
      1682.6664
  -2311178.64148  -1799246.48445  22513421.2304   22513417.9304
     -1175.9574
  17335163.10248  13495524.28944  23515590.5274   23515587.2694
     -3765.2204
  -6661661.45748  -5181023.05946  21972368.0904   21972365.4344
      -201.6984
 04  9  2 16 30 45.0040000  0  5G 1G20G11G14G25
  -7479626.09449  -5828258.07846  22513735.6764   22513733.9344
       472.8284
  -3833711.12148  -2983263.04343  24122372.6604   24122369.6994
      1681.0634
  -2293397.95348  -1785391.40645  22516804.8404   22516801.7074
     -1185.3794
  17391673.83648  13539558.60544  23526344.1764   23526341.3284
     -3767.3824
  -6658501.62949  -5178560.84446  21972969.4344   21972966.9804
      -210.6554
 04  9  2 16 31  0.0040000  0  5G 1G20G11G14G25
  -7486641.68049  -5833724.75846  22512400.7694   22512398.6914
       467.7064
  -3858902.76648  -3002892.87943  24117578.7384   24117576.5624
      1679.4434
  -2275475.66448  -1771425.99645  22520215.1914   22520212.2584
     -1194.8194
  17448217.02348  13583618.20744  23537103.8714   23537101.3094
     -3769.5464
  -6655207.23449  -5175993.78146  21973596.3554   21973593.6564
      -219.6264
 04  9  2 16 31 15.0040000  0  5G 1G20G11G14G25
  -7493580.71949  -5839131.79346  22511080.3554   22511078.2664
       462.6034
  -3884070.34048  -3022503.96943  24112789.5744   24112787.2034
      1677.8384
  -2257412.25048  -1757350.60545  22523652.7934   22523649.3634
     -1204.2284
  17504792.07048  13627702.64544  23547869.8874   23547867.0904
     -3771.6704
  -6651778.50849  -5173322.03946  21974248.5824   21974246.4064
      -228.5824
 04  9  2 16 31 30.0040000  0  5G 1G20G11G14G25
  -7500444.44149  -5844480.14146  22509774.0824   22509772.2584
       457.5824
  -3909214.77748  -3042097.03943  24108004.5984   24108001.9534
      1676.2964
  -2239208.95348  -1743166.23445  22527116.7774   22527113.4224
     -1213.5534
  17561397.76248  13671810.95344  23558641.2154   23558638.9924
     -3773.7134
  -6648216.51649  -5170546.46546  21974926.4184   21974923.9654
      -237.4664
 04  9  2 16 31 45.0040000  0  5G 1G20G11G14G25
  -7507232.33649  -5849769.40646  22508482.0124   22508480.4104
       452.5264
  -3934335.54748  -3061671.64143  24103223.9884   24103222.1954
      1674.7184
  -2220865.25049  -1728872.43745  22530607.1134   22530604.2624
     -1222.9144
  17618034.42648  13715943.40244  23569419.3944   23569416.4734
     -3775.7784
  -6644520.68049  -5167666.57846  21975629.9184   21975627.3364
      -246.3894
 04  9  2 16 32  0.0040000  0  6G 1G20G11G14G23G25
  -7513943.62549  -5854998.97745  22507204.8874   22507203.3794
       447.4194
  -3959431.60547  -3081227.00043  24098448.5354   24098446.0744
      1673.0714
  -2202380.24648  -1714468.54745  22534124.8944   22534121.8524
     -1232.3344
  17674702.63748  13760100.42644  23580202.6294   23580199.9734
     -3777.8814
    -53253.13754    -37384.38352  25342958.5514   25342955.3874

  -6640690.00049  -5164681.63346  21976358.8484   21976356.5594
      -255.3794
 04  9  2 16 32 15.0040000  0  6G 1G20G11G14G23G25
  -7520580.33249  -5860170.42646  22505942.4494   22505940.5624
       442.4474
  -3984504.71947  -3100764.48043  24093677.7384   24093675.0784
      1671.5414
  -2183755.96149  -1699956.11745  22537669.0434   22537666.0624
     -1241.6194
  17731400.16848  13804280.30544  23590991.9414   23590989.1914
     -3779.8354
    -79807.87945    -58076.38342  25337905.0904   25337901.6254
      1770.3164
  -6636726.60549  -5161593.26246  21977113.1844   21977110.6524
      -264.2264
 04  9  2 16 32 30.0040000  0  6G 1G20G11G14G23G25
  -7527142.71549  -5865283.96146  22504693.6684   22504691.7074
       437.4924
  -4009554.99647  -3120284.16443  24088910.6054   24088908.0474
      1670.0184
  -2164992.73448  -1685335.42645  22541239.5904   22541236.5124
     -1250.8824
  17788126.66048  13848482.74244  23601786.9574   23601783.8554
     -3781.7664
   -106329.32445    -78742.39142  25332858.9264   25332855.4884
      1768.0964
  -6632630.69949  -5158401.64546  21977892.2774   21977890.1644
      -273.0604
 04  9  2 16 32 45.0040000  0  6G 1G20G11G14G23G25
  -7533631.07849  -5870339.81245  22503458.5514   22503456.8054
       432.5584
  -4034582.61747  -3139786.19943  24084147.6374   24084145.2344
      1668.5084
  -2146090.87148  -1670606.71145  22544836.3164   22544833.1484
     -1260.1244
  17844881.64848  13892707.39843  23612586.8794   23612584.0514
     -3783.6664
   -132817.69545    -99382.66042  25327818.4264   25327814.3834
      1765.8914
  -6628402.42649  -5155106.88346  21978696.9804   21978694.3834
      -281.8854
 04  9  2 16 33  0.0040000  0  6G 1G20G11G14G23G25
  -7540044.15649  -5875337.01645  22502238.1214   22502236.4574
       427.5394
  -4059586.13347  -3159269.45743  24079389.9024   24079387.1644
      1666.9014
  -2127049.07849  -1655768.95745  22548460.1294   22548456.9774
     -1269.4534
  17901666.19948  13936955.08644  23623392.3484   23623389.5004
     -3785.6374
   -159271.57445   -119996.03942  25322784.5434   25322779.9534
      1763.5924
  -6624040.49249  -5151707.97346  21979527.3874   21979524.6214
      -290.7964
 04  9  2 16 33 15.0040000  0  6G 1G20G11G14G23G25
  -7546382.60949  -5880276.07046  22501032.1604   22501030.0864
       422.5644
  -4084566.04347  -3178734.31243  24074636.0354   24074633.9964
      1665.3274
  -2107868.21548  -1640822.84046  22552110.0044   22552107.1254
     -1278.7244
  17958479.51248  13981225.17643  23634203.6294   23634201.1484
     -3787.5544
   -185691.60246   -140583.03542  25317756.5984   25317752.6374
      1761.3354
  -6619545.28949  -5148205.21146  21980382.2464   21980379.8984
      -299.6804
 04  9  2 16 33 30.0040000  0  6G 1G20G11G14G23G25
  -7552644.76649  -5885155.66045  22499840.5744   22499838.2664
       417.4774
  -4109520.37547  -3198179.23843  24069887.8714   24069885.0394
      1663.6224
  -2088546.37548  -1625766.86346  22555786.9654   22555783.6294
     -1288.1234
  18015323.27348  14025519.00043  23645020.8244   23645018.0124
     -3789.5844
   -212075.97746   -161142.27042  25312735.9734   25312731.9654
      1758.9584
  -6614915.09049  -5144597.25446  21981263.5434   21981260.8054
      -308.6804
 04  9  2 16 33 45.0040000  0  6G 1G20G11G14G23G25
  -7558830.43049  -5889975.65645  22498663.3094   22498661.4494
       412.3784
  -4134448.84847  -3217604.02343  24065144.2154   24065141.5554
      1661.8984
  -2069083.35948  -1610600.87945  22559490.7544   22559487.3834
     -1297.5344
  18072197.45748  14069836.53544  23655843.7074   23655841.2424
     -3791.6124
   -238424.40247   -181673.50442  25307722.7774   25307718.1524
      1756.5624
  -6610149.75849  -5140884.00846  21982170.2854   21982167.7974
      -317.6894
 04  9  2 16 34  0.0040000  0  6G 1G20G11G14G23G25
  -7564939.65249  -5894736.08645  22497501.0824   22497499.1874
       407.2824
  -4159351.25848  -3237008.48043  24060405.4734   24060402.8484
      1660.1614
  -2049479.39548  -1595325.06645  22563221.0594   22563217.7194
     -1306.9314
  18129101.75048  14114177.52344  23666672.2624   23666669.5704
     -3793.6204
   -264736.87147   -202176.69142  25302715.3944   25302710.2974
      1754.1654
  -6605249.33649  -5137065.49246  21983102.9104   21983100.2344
      -326.6954
 04  9  2 16 34 15.0040000  0  6G 1G20G11G14G23G25
  -7570972.59849  -5899437.07045  22496352.7234   22496351.0864
       402.1964
  -4184227.65647  -3256392.69143  24055671.3794   24055669.0194
      1658.4274
  -2029734.55949  -1579939.48046  22566978.3874   22566975.4454
     -1316.3224
  18186035.88348  14158541.76643  23677506.1604   23677503.1954
     -3795.6094
   -291013.52747   -222651.98442  25297714.4264   25297710.5594
      1751.7774
  -6600213.93049  -5133141.80146  21984060.9964   21984058.4104
      -335.6944
 04  9  2 16 34 30.0040000  0  6G 1G20G11G14G23G25
  -7576928.68049  -5904078.17246  22495219.1524   22495217.3984
       397.0724
  -4209077.21147  -3275755.96943  24050942.6214   24050940.3594
      1656.6374
  -2009848.29748  -1564443.70345  22570762.4414   22570759.2034
     -1325.7514
  18243000.26648  14202929.58243  23688346.1214   23688343.4804
     -3797.6264
   -317253.65247   -243098.82442  25292721.3014   25292716.9734
      1749.3424
  -6595042.72749  -5129112.28546  21985045.0274   21985042.3204
      -344.7474
 04  9  2 16 34 45.0040000  0  6G 1G20G11G14G23G25
  -7582808.05949  -5908659.49646  22494100.7464   22494098.8554
       391.9594
  -4233899.96947  -3295098.36743  24046219.0904   24046216.4534
      1654.8514
  -1989820.84448  -1548837.89845  22574573.6444   22574570.3364
     -1335.1644
  18299994.60948  14247340.74643  23699191.8714   23699189.2504
     -3799.6234
   -343457.38747   -263517.30542  25287735.8244   25287730.5004
      1746.9164
  -6589735.87949  -5124977.07046  21986055.2854   21986052.3634
      -353.7904
 04  9  2 16 35  0.0040000  0  6G 1G20G11G14G23G25
  -7588611.11349  -5913181.35246  22492996.3484   22492994.4344
       386.8704
  -4258696.03147  -3314419.96543  24041500.4344   24041498.0004
      1653.0714
  -1969652.45349  -1533122.28145  22578411.7074   22578408.4534
     -1344.5594
  18357018.39848  14291774.84443  23710042.7464   23710040.5744
     -3801.5864
   -369624.91047   -283907.56642  25282755.5514   25282750.7384
      1744.5024
  -6584293.69949  -5120736.41446  21987090.6134   21987088.2304
      -362.8124
 04  9  2 16 35 15.0040000  0  6G 1G20G11G14G23G25
  -7594338.96549  -5917644.60546  22491906.5514   22491904.7624
       381.8574
  -4283466.45347  -3333721.58243  24036786.6374   24036784.2974
      1651.3614
  -1949344.45348  -1517297.87545  22582276.2774   22582273.1254
     -1353.8674
  18414070.37548  14336230.90643  23720899.6134   23720897.2154
     -3803.4654
   -395757.44547   -304270.57442  25277782.5984   25277777.9574
      1742.1694
  -6578717.30149  -5116391.16046  21988151.6844   21988148.9924
      -371.7604
 04  9  2 16 35 30.0040000  0  6G 1G20G11G14G23G25
  -7599990.22349  -5922048.17646  22490831.1444   22490828.8164
       376.7514
  -4308209.61747  -3353001.96943  24032077.9654   24032075.8014
      1649.5444
  -1928895.38749  -1501363.53545  22586167.5744   22586164.2274
     -1363.2714
  18471151.68848  14380709.83644  23731762.4264   23731759.2814
     -3805.4214
   -421853.44147   -324605.11342  25272816.8014   25272812.7424
      1739.7334
  -6573005.20749  -5111940.18046  21989238.8094   21989236.0944
      -380.8064
 04  9  2 16 35 45.0040000  0  6G 1G20G11G14G23G25
  -7605566.92249  -5926393.65246  22489770.1134   22489768.0314
       371.7804
  -4332927.29347  -3372262.48843  24027374.4654   24027371.4694
      1647.8454
  -1908307.34848  -1485320.91846  22590085.3164   22590082.1604
     -1372.5364
  18528260.22748  14425209.98044  23742629.0904   23742626.8244
     -3807.2364
   -447914.78947   -344912.64142  25267857.0594   25267853.1414
      1737.4234
  -6567159.39849  -5107385.00046  21990351.2154   21990348.7624
      -389.7214
 04  9  2 16 36  0.0040000  0  6G 1G20G11G14G23G25
  -7611068.21549  -5930680.36746  22488722.8324   22488721.0164
       366.7534
  -4357618.39148  -3391502.30543  24022676.0984   24022673.5004
      1646.0734
  -1887579.43048  -1469169.30145  22594029.5354   22594026.2934
     -1381.8614
  18585396.68048  14469731.86744  23753501.8164   23753499.5514
     -3809.0974
   -473940.55147   -365192.45342  25262904.8714   25262900.9534
      1735.0514
  -6561178.68448  -5102724.70346  21991489.1374   21991486.3444
      -398.7144
 04  9  2 16 36 15.0040000  0  6G 1G20G11G14G23G25
  -7616492.96949  -5934907.44146  22487690.9494   22487689.1054
       361.6504
  -4382281.65247  -3410720.41043  24017983.0984   24017979.9494
      1644.2174
  -1866710.48048  -1452907.78945  22598000.8944   22597997.6844
     -1391.2634
  18642562.11348  14514276.34444  23764380.3714   23764377.8404
     -3811.0294
   -499929.57447   -385443.59042  25257959.1994   25257955.0394
      1732.6024
  -6555062.00448  -5097958.44946  21992653.2544   21992650.4344
      -407.7794
 04  9  2 16 36 30.0040000  0  6G 1G20G11G14G23G25
  -7621841.73049  -5939075.30146  22486672.7074   22486670.9064
       356.5844
  -4406917.52047  -3429917.18743  24013294.8554   24013292.0004
      1642.3914
  -1845701.15248  -1436536.89845  22601999.1214   22601995.8874
     -1400.6224
  18699755.84848  14558842.87144  23775263.8014   23775261.4774
     -3812.9164
   -525882.26246   -405666.48442  25253020.2234   25253016.2894
      1730.1794
  -6548809.80549  -5093086.60947  21993843.1764   21993840.3124
      -416.8134
 04  9  2 16 36 45.0040000  0  6G 1G20G11G14G23G25
  -7627115.18749  -5943184.48446  22485669.3554   22485667.2854
       351.5644
  -4431526.46947  -3449092.96943  24008612.2304   24008609.7544
      1640.5974
  -1824552.14848  -1420057.15645  22606023.6444   22606020.3444
     -1409.9344
  18756976.96148  14603430.73444  23786152.6844   23786150.0354
     -3814.7414
   -551799.26247   -425861.51642  25248088.5514   25248085.1604
      1727.8004
  -6542422.85549  -5088109.75847  21995058.1684   21995055.6764
      -425.7974
 04  9  2 16 37  0.0040000  0  6G 1G20G11G14G23G25
  -7632313.00049  -5947234.72346  22484680.2074   22484678.1214
       346.5214
  -4456107.85947  -3468247.29743  24003934.1914   24003931.3754
      1638.7594
  -1803263.09449  -1403468.29345  22610074.9414   22610071.6874
     -1419.2704
  18814225.70748  14648040.12944  23797046.9414   23797044.5904
     -3816.5834
   -577680.11747   -446028.38342  25243163.6134   25243159.6914
      1725.3904
  -6535900.74249  -5083027.59046  21996299.5354   21996296.9884
      -434.8084
 04  9  2 16 37 15.0040000  0  6G 1G20G11G14G23G25
  -7637435.38749  -5951226.18746  22483705.1604   22483703.2974
       341.4924
  -4480661.79348  -3487380.21943  23999261.5194   23999259.2854
      1636.9294
  -1781834.23049  -1386770.48445  22614152.2384   22614149.2934
     -1428.5914
  18871501.72748  14692670.77744  23807945.9494   23807943.4614
     -3818.4014
   -603525.09047   -466167.29342  25238245.9184   25238241.9694
      1722.9984
  -6529243.68049  -5077840.27046  21997566.2154   21997563.7664
      -443.8044
 04  9  2 16 37 30.0040000  0  6G 1G20G11G14G23G25
  -7642480.65649  -5955157.56245  22482745.3714   22482743.1954
       336.3514
  -4505186.33648  -3506490.25443  23994595.0824   23994592.0744
      1634.9704
  -1760263.94149  -1369962.47345  22618257.4264   22618253.6134
     -1438.0194
  18928806.60948  14737323.91043  23818850.9184   23818848.5704
     -3820.3264
   -629332.30947   -486276.79742  25233334.5664   25233330.6724
      1720.4814
  -6522449.79349  -5072546.32046  21998859.1914   21998856.3124
      -452.9264
 04  9  2 16 37 45.0040000  0  6G 1G20G11G14G23G25
  -7647450.71549  -5959030.32846  22481799.7074   22481797.4374
       331.3374
  -4529683.28948  -3525578.78543  23989933.5274   23989930.5124
      1633.1304
  -1738554.24249  -1353045.82845  22622388.4264   22622384.9774
     -1447.3134
  18986138.24248  14781997.88744  23829760.8714   23829758.1094
     -3822.1094
   -655103.56647   -506358.27042  25228430.1844   25228426.5944
      1718.0844
  -6515520.90249  -5067147.18746  22000177.6844   22000174.9144
      -461.9264
 04  9  2 16 38  0.0040000  0  6G 1G20G11G14G23G25
  -7652345.46549  -5962844.41446  22480868.3404   22480866.0904
       326.3174
  -4554152.25848  -3544645.51243  23985277.3324   23985274.2114
      1631.2654
  -1716704.97349  -1336020.42645  22626546.2234   22626542.8484
     -1456.6184
  19043496.58648  14826692.68443  23840675.4264   23840673.2894
     -3823.8904
   -680838.77047   -526411.64542  25223533.2774   25223528.9654
      1715.6804
  -6508456.89149  -5061642.75847  22001522.0824   22001519.2464
      -470.9344
 04  9  2 16 38 15.0040000  0  6G 1G20G11G14G23G25
  -7657165.49649  -5966600.28946  22479950.8484   22479948.8874
       321.3354
  -4578593.62148  -3563690.72343  23980625.6524   23980623.2154
      1629.4244
  -1694716.75849  -1318886.75446  22630730.2694   22630726.8404
     -1465.8814
  19100880.92648  14871407.74243  23851595.6524   23851593.1294
     -3825.6234
   -706538.29747   -546437.23042  25218642.3944   25218638.8484
      1713.3024
  -6501258.30949  -5056033.47346  22002891.7694   22002888.8594
      -479.9054
 04  9  2 16 38 30.0040000  0  6G 1G20G11G14G23G25
  -7661909.68449  -5970297.05546  22479048.1134   22479046.2584
       316.2794
  -4603006.09048  -3582713.40644  23975980.5514   23975977.7464
      1627.4984
  -1672588.52349  -1301643.98845  22634941.3324   22634937.9774
     -1475.2164
  19158292.28148  14916143.84043  23862520.7464   23862518.1524
     -3827.4244
   -732200.98847   -566434.10942  25213758.6684   25213755.0194
      1710.8464
  -6493923.96949  -5050318.39846  22004287.4574   22004284.7814
      -488.9564
 04  9  2 16 38 45.0040000  0  6G 1G20G11G14G23G25
  -7666577.39849  -5973934.22746  22478160.1134   22478157.9344
       311.1814
  -4627388.86348  -3601712.96543  23971340.6604   23971337.8634
      1625.5184
  -1650319.63349  -1284291.61345  22639178.6604   22639175.6564
     -1484.5934
  19215731.07848  14960901.32043  23873450.8554   23873448.8524
     -3829.2534
   -757826.21947   -586401.78942  25208882.6444   25208879.0904
      1708.3494
  -6486453.17249  -5044497.00046  22005709.0434   22005706.3484
      -498.0534
 04  9  2 16 39  0.0040000  0  6G 1G20G11G14G23G25
  -7671170.35249  -5977513.14846  22477285.8404   22477283.7344
       306.1974
  -4651743.48848  -3620690.60243  23966706.3554   23966703.0354
      1623.6424
  -1627911.78549  -1266830.96546  22643443.1134   22643439.6174
     -1493.8574
  19273195.52348  15005678.78943  23884385.8554   23884383.5124
     -3830.9634
   -783415.49247   -606341.46943  25204013.7544   25204009.4374
      1705.9524
  -6478847.57849  -5038570.55946  22007156.4804   22007153.6804
      -507.0404
 04  9  2 16 39 15.0040000  0  6G 1G20G11G14G23G25
  -7675688.07849  -5981033.45346  22476426.1294   22476424.3324
       301.1824
  -4676069.23448  -3639645.71143  23962076.8244   23962074.2424
      1621.7164
  -1605364.58249  -1249261.72746  22647733.5984   22647730.4344
     -1503.1474
  19330686.00448  15050476.55943  23895326.4494   23895323.9264
     -3832.6994
   -808968.25447   -626252.69543  25199151.5824   25199147.0164
      1703.5174
  -6471106.55149  -5032538.58646  22008629.4414   22008626.6564
      -516.0684
 04  9  2 16 39 30.0040000  0  6G 1G20G11G14G23G25
  -7680130.74649  -5984495.27046  22475580.7464   22475578.6564
       296.1784
  -4700365.99648  -3658578.25843  23957453.4104   23957450.7034
      1619.7844
  -1582678.23449  -1231584.05546  22652050.1844   22652047.5984
     -1512.4234
  19388202.24248  15095294.38343  23906271.3484   23906268.8754
     -3834.4164
   -834484.67247   -646135.59042  25194295.6214   25194291.2114
      1701.0954
  -6463230.37949  -5026401.31246  22010128.0824   22010125.7664
      -525.0784
 04  9  2 16 39 45.0040000  0  6G 1G20G11G14G23G25
  -7684497.38349  -5987897.83646  22474749.9574   22474747.6414
       291.1094
  -4724632.59048  -3677487.28543  23952835.7384   23952833.0194
      1617.7734
  -1559851.85249  -1213797.28145  22656394.2074   22656391.3674
     -1521.7594
  19445745.00448  15140132.88343  23917221.0664   23917218.4224
     -3836.1844
   -859963.51647   -665989.23042  25189447.0594   25189442.9924
      1698.5904
  -6455217.96549  -5020157.87147  22011652.9804   22011650.0904
      -534.1614
 04  9  2 16 40  0.0040000  0  6G 1G20G11G14G23G25
  -7688789.78149  -5991242.55146  22473933.2774   22473931.2464
       286.1604
  -4748870.70748  -3696374.12543  23948223.1134   23948220.6604
      1615.8744
  -1536887.25449  -1195902.79345  22660764.2854   22660761.2464
     -1530.9734
  19503312.29748  15184990.49243  23928176.3404   23928173.5314
     -3837.8204
   -885406.73847   -685815.09042  25184604.7074   25184601.2234
      1696.2154
  -6447070.98049  -5013809.57047  22013203.3874   22013200.4774
      -543.1324
 04  9  2 16 40 15.0040000  0  6G 1G20G11G14G23G25
  -7693007.35549  -5994528.97346  22473130.3164   22473128.3054
       281.1724
  -4773079.59448  -3715238.18443  23943616.7464   23943613.7274
      1613.9264
  -1513783.92649  -1177900.21145  22665160.4804   22665157.9774
     -1540.2224
  19560904.60248  15229867.60243  23939135.3944   23939132.6294
     -3839.4874
   -910813.60947   -705612.62142  25179770.3554   25179766.7034
      1693.7914
  -6438788.91849  -5007356.01646  22014779.4344   22014776.8484
      -552.1374
 04  9  2 16 40 30.0040000  0  6G 1G20G11G14G23G25
  -7697149.67649  -5997756.75046  22472342.1684   22472340.1334
       276.1554
  -4797258.57448  -3734078.93743  23939015.3164   23939013.0514
      1611.9324
  -1490541.41449  -1159789.17245  22669583.7624   22669580.5084
     -1549.5014
  19618522.27048  15274764.46543  23950099.3324   23950097.0314
     -3841.1784
   -936183.58247   -725381.42242  25174942.1914   25174938.6254
      1691.3324
  -6430371.39149  -5000796.90646  22016381.1604   22016378.3714
      -561.1684
 04  9  2 16 40 45.0040000  0  6G 1G20G11G14G23G25
  -7701217.12549  -6000926.18446  22471567.9494   22471566.1874
       271.1634
  -4821407.79348  -3752896.49643  23934419.9654   23934417.1414
      1609.9484
  -1467160.17249  -1141570.02745  22674032.6214   22674029.8404
     -1558.7494
  19676164.79748  15319680.70743  23961068.9574   23961066.4694
     -3842.8354
   -961517.06247   -745121.77343  25170121.8554   25170117.5474
      1688.8994
  -6421818.58249  -4994132.37946  22018008.5594   22018005.8634
      -570.1874
 04  9  2 16 41  0.0040000  0  6G 1G20G11G14G23G25
  -7705208.74249  -6004036.53146  22470808.7854   22470806.3244
       266.1084
  -4845526.05148  -3771689.93443  23929830.0904   23929828.2034
      1607.8844
  -1443639.22348  -1123242.02745  22678508.5824   22678505.5234
     -1568.0634
  19733832.96548  15364616.93044  23972042.9494   23972040.2304
     -3844.5454
   -986812.81648   -764832.72743  25165308.3554   25165304.3714
      1686.3844
  -6413129.45349  -4987361.63346  22019662.2304   22019659.6414
      -579.2754
 04  9  2 16 41 15.0040000  0  6G 1G20G11G14G23G25
  -7709124.20349  -6007087.53146  22470063.4184   22470061.5124
       261.0314
  -4869612.82848  -3790458.84443  23925246.7694   23925244.1254
      1605.7854
  -1419978.36349  -1104805.00445  22683011.4494   22683007.7854
     -1577.3914
  19791526.98048  15409573.28143  23983021.5984   23983019.3524
     -3846.2684
  -1012070.52747   -784514.05542  25160501.8244   25160498.1214
      1683.8474
  -6404303.66849  -4980484.39147  22021341.4964   22021339.0124
      -588.3864
 04  9  2 16 41 30.0040000  0  6G 1G20G11G14G23G25
  -7712965.57049  -6010080.80946  22469332.4184   22469330.4264
       256.0914
  -4893669.93748  -3809204.65643  23920668.4414   23920666.1174
      1603.8074
  -1396179.53149  -1086260.46945  22687540.1294   22687537.1644
     -1586.5894
  19849244.65648  15454548.07443  23994004.7694   23994002.4104
     -3847.8454
  -1037292.06247   -804167.19142  25155701.9414   25155698.1414
      1681.4364
  -6395343.23849  -4973502.23846  22023046.8094   22023044.0784
      -597.3624
 04  9  2 16 41 45.0040000  0  6G 1G20G11G14G23G25
  -7716731.09449  -6013014.97746  22468616.0664   22468613.7774
       251.0354
  -4917695.52048  -3827925.86343  23916097.0434   23916094.5784
      1601.7054
  -1372241.14549  -1067607.19145  22692095.5124   22692092.4804
     -1595.8924
  19906987.72348  15499542.66043  24004992.7234   24004990.7544
     -3849.5384
  -1062475.64847   -823790.73842  25150910.3634   25150905.6294
      1678.9064
  -6386246.41449  -4966413.80546  22024777.9024   22024775.1724
      -606.4554
 04  9  2 16 42  0.0040000  0  6G 1G20G11G14G23G25
  -7720422.43049  -6015891.33246  22467913.6994   22467911.5744
       246.0894
  -4941691.03548  -3846623.66443  23911530.7854   23911528.3554
      1599.7014
  -1348164.95749  -1048846.53945  22696676.9264   22696673.8244
     -1605.0794
  19964754.30948  15544555.56344  24015985.3794   24015983.2304
     -3851.1064
  -1087622.99247   -843386.07442  25146124.1214   25146120.2464
      1676.4904
  -6377014.74649  -4959220.29346  22026534.4884   22026531.8874
      -615.4454
 04  9  2 16 42 15.0040000  0  6G 1G20G11G14G23G25
  -7724038.46549  -6018709.02046  22467225.5044   22467222.9924
       241.0694
  -4965655.09448  -3865296.94943  23906970.7074   23906968.4304
      1597.6044
  -1323949.83249  -1029977.61745  22701285.0594   22701281.9804
     -1614.3424
  20022545.46548  15589587.61743  24026982.8094   24026980.3324
     -3852.7444
  -1112732.90647   -862952.21542  25141345.9884   25141341.8014
      1673.9944
  -6367647.16849  -4951920.88346  22028317.0354   22028314.7584
      -624.5054
 04  9  2 16 42 30.0040000  0  6G 1G20G11G14G23G25
  -7727579.43049  -6021468.21146  22466551.6524   22466549.4414
       236.0644
  -4989587.77748  -3883945.78544  23902416.1994   23902413.8284
      1595.5124
  -1299596.11749  -1011000.71145  22705919.3944   22705916.5274
     -1623.5814
  20080360.77048  15634638.48443  24037984.6684   24037982.5274
     -3854.3544
  -1137805.34047   -882489.16042  25136575.2464   25136570.3594
      1671.4964
  -6358143.82049  -4944515.67246  22030125.3874   22030122.9414
      -633.5574
 04  9  2 16 42 45.0040000  0  6G 1G20G11G14G23G25
  -7731044.34049  -6024168.14546  22465892.4494   22465889.9694
       230.9944
  -5013487.73848  -3902569.12143  23897868.5274   23897865.5354
      1593.3314
  -1275103.01249   -991915.17645  22710579.9884   22710577.1724
     -1632.8744
  20138201.18448  15679708.91843  24048991.4494   24048989.0904
     -3856.0284
  -1162839.26247   -901996.09442  25131811.0824   25131806.7934
      1668.9284
  -6348503.52349  -4937003.75446  22031960.0904   22031957.4454
      -642.6864
 04  9  2 16 43  0.0040000  0  6G 1G20G11G14G23G25
  -7734433.70749  -6026809.19546  22465247.0594   22465245.1444
       225.9584
  -5037355.38748  -3921167.28143  23893326.4344   23893323.6444
      1591.1774
  -1250470.87949   -972721.32446  22715267.7234   22715264.7734
     -1642.1424
  20196065.97748  15724798.34443  24060002.8244   24060000.2974
     -3857.6534
  -1187835.14148   -921473.38742  25127054.7774   25127050.3914
      1666.3924
  -6338726.93749  -4929385.63746  22033820.2854   22033817.6444
      -651.7724
 04  9  2 16 43 15.0040000  0  6G 1G20G11G14G23G25
  -7737747.93449  -6029391.70746  22464616.4344   22464614.4694
       220.9484
  -5061190.95348  -3939740.44144  23888790.5664   23888787.8714
      1589.0384
  -1225700.16449   -953419.47346  22719981.3244   22719978.2894
     -1651.3814
  20253954.63748  15769906.38343  24071018.8874   24071016.1644
     -3859.2444
  -1212793.35547   -940921.32842  25122305.1444   25122301.3124
      1663.8814
  -6328814.48049  -4921661.64546  22035706.7464   22035704.0744
      -660.8304
 04  9  2 16 43 30.0040000  0  6G 1G20G11G14G23G25
  -7740987.69949  -6031916.19546  22464000.1444   22463997.8674
       215.9844
  -5084994.81648  -3958288.90643  23884260.9024   23884258.4104
      1586.9244
  -1200791.52049   -934010.15246  22724721.1294   22724718.3284
     -1660.5764
  20311866.32847  15815032.35243  24082038.5744   24082036.3714
     -3860.7794
  -1237714.39147   -960340.27342  25117563.1214   25117559.2424
      1661.4024
  -6318766.73849  -4913832.22746  22037618.5194   22037616.0194
      -669.8494
 04  9  2 16 43 45.0040000  0  6G 1G20G11G14G23G25
  -7744151.13349  -6034381.20746  22463398.1764   22463396.1214
       210.8964
  -5108764.91848  -3976811.05943  23879737.6214   23879734.9734
      1584.6734
  -1175743.22749   -914492.00446  22729487.9264   22729484.7344
     -1669.8864
  20369802.81348  15860177.64843  24093063.5984   24093061.4804
     -3862.4324
  -1262596.36747   -979728.80942  25112827.5904   25112824.1954
      1658.7984
  -6308581.87949  -4905895.97746  22039556.6294   22039554.1644
      -678.9914
 04  9  2 16 44  0.0040000  0  6G 1G20G11G14G23G25
  -7747239.47349  -6036787.69946  22462810.5434   22462808.3094
       205.8894
  -5132502.28948  -3995307.70344  23875220.3944   23875217.7304
      1582.4914
  -1150556.60549   -894866.07046  22734280.6294   22734277.7464
     -1679.1084
  20427762.72348  15905341.19143  24104092.9494   24104090.7544
     -3863.9944
  -1287440.44947   -999087.81642  25108100.1914   25108096.0084
      1656.2724
  -6298260.98049  -4897853.71147  22041521.0274   22041518.3204
      -688.0604
 04  9  2 16 44 15.0050000  0  6G 1G20G11G14G23G25
  -7750252.23849  -6039135.30146  22462237.1964   22462234.9704
       200.8514
  -5156207.59448  -4013779.36744  23870709.4384   23870707.1694
      1580.3544
  -1125229.26649   -875130.49245  22739100.4544   22739097.3844
     -1688.4894
  20485750.63347  15950526.55143  24115127.9234   24115124.8334
     -3865.8614
  -1312247.43747  -1018417.93042  25103379.7044   25103375.6454
      1653.7994
  -6287802.62949  -4889704.34447  22043511.1264   22043508.3104
      -697.2234
 04  9  2 16 44 30.0050000  0  6G 1G20G11G14G23G25
  -7753189.54749  -6041424.10946  22461678.1654   22461676.1304
       195.8214
  -5179877.94548  -4032223.78944  23866205.2514   23866202.7594
      1578.0234
  -1099765.22349   -855288.38745  22743946.4704   22743943.1694
     -1697.6034
  20543758.03548  15995727.10943  24126166.4314   24126163.5324
     -3867.1604
  -1337014.52747  -1037716.93442  25098666.7284   25098662.6184
      1651.1394
  -6277208.74649  -4881449.37146  22045527.0714   22045524.1924
      -706.2594
 04  9  2 16 44 45.0050000  0  6G 1G20G11G14G23G25
  -7756051.92249  -6043654.52346  22461133.5014   22461130.9504
       190.8254
  -5203515.03148  -4050642.28944  23861707.5094   23861704.7354
      1575.8064
  -1074163.11349   -835338.69546  22748818.0714   22748814.5954
     -1706.8074
  20601788.39547  16040945.55943  24137209.3064   24137206.7044
     -3868.6914
  -1361743.52047  -1056986.24242  25093960.5404   25093956.7824
      1648.5994
  -6266478.90649  -4873088.46147  22047568.6964   22047565.8924
      -715.3234
 04  9  2 16 45  0.0050000  0  6G 1G20G11G14G23G25
  -7758839.70749  -6045826.82846  22460602.7354   22460601.0364
       185.8524
  -5227118.96548  -4069034.94944  23857215.5874   23857213.2314
      1573.5964
  -1048423.37549   -815281.77045  22753716.0174   22753712.9664
     -1715.9834
  20659841.28147  16086181.55143  24148256.2044   24148253.7984
     -3870.1924
  -1386434.71546  -1076226.11742  25089261.9074   25089258.0564
      1646.0804
  -6255613.41849  -4864621.84446  22049636.4854   22049633.6184
      -724.3664
 04  9  2 16 45 15.0050000  0  6G 1G20G11G14G23G25
  -7761550.48849  -6047939.12546  22460087.3844   22460085.0634
       180.7194
  -5250687.35248  -4087399.92244  23852730.8454   23852728.1034
      1571.2264
  -1022543.91849   -795115.96146  22758640.7594   22758637.6424
     -1725.2974
  20717918.88347  16131436.80143  24159307.9544   24159305.4624
     -3871.8404
  -1411085.71946  -1095434.66443  25084570.6424   25084567.7944
      1643.4004
  -6244609.85249  -4856047.63746  22051730.0324   22051727.4664
      -733.5714
 04  9  2 16 45 30.0050000  0  6G 1G20G11G14G23G25
  -7764186.00049  -6049992.76646  22459585.3294   22459583.5874
       175.7014
  -5274221.35248  -4105738.08644  23848252.0794   23848250.0834
      1568.9334
   -996526.19949   -774842.42245  22763591.8134   22763588.6614
     -1734.5154
  20776019.46147  16176709.96943  24170364.3134   24170361.4744
     -3873.3724
  -1435698.19546  -1114613.19543  25079887.7354   25079883.9154
      1640.8324
  -6233469.88349  -4847367.14146  22053850.0564   22053847.5054
      -742.6654
 04  9  2 16 45 45.0050000  0  6G 1G20G11G14G23G25
  -7766746.41049  -6051987.88746  22459098.0244   22459095.8764
       170.6944
  -5297721.03148  -4124049.51644  23843780.4154   23843777.8804
      1566.6454
   -970370.57849   -754461.42646  22768568.9074   22768566.2554
     -1743.7084
  20834142.67648  16222000.76643  24181425.0014   24181422.1104
     -3874.8814
  -1460272.13747  -1133761.70342  25075211.2044   25075207.6494
      1638.2634
  -6222193.69149  -4838580.49646  22055996.0564   22055993.3534
      -751.7464
 04  9  2 16 46  0.0050000  0  6G 1G20G11G14G23G25
  -7769230.66449  -6053923.66446  22458625.4854   22458623.6304
       165.6174
  -5321185.17648  -4142333.25844  23839315.3684   23839312.8024
      1564.2764
   -944075.92249   -733972.09846  22773572.8994   22773569.5204
     -1752.9774
  20892289.58647  16267310.03543  24192489.7284   24192487.1924
     -3876.4614
  -1484806.35947  -1152879.25443  25070542.5714   25070538.3604
      1635.6154
  -6210780.11749  -4829686.80147  22058167.8924   22058164.9894
      -760.9054
 04  9  2 16 46 15.0050000  0  6G 1G20G11G14G23G25
  -7771640.46149  -6055801.43046  22458166.7594   22458165.1534
       160.6534
  -5344615.13748  -4160590.37144  23834856.5404   23834854.4934
      1561.9974
   -917644.11749   -713375.89146  22778602.6734   22778599.7244
     -1762.1204
  20950458.41047  16312636.37543  24203559.0094   24203556.6034
     -3877.9224
  -1509302.41447  -1171967.05542  25065881.0954   25065877.5754
      1633.0704
  -6199230.81649  -4820687.34046  22060365.8374   22060363.1494
      -769.9534
 04  9  2 16 46 30.0050000  0  6G 1G20G11G14G23G25
  -7773974.93748  -6057620.50046  22457722.5714   22457720.8844
       155.6324
  -5368009.91048  -4178820.04744  23830404.8604   23830402.4584
      1559.6524
   -891074.27349   -692672.12545  22783658.5714   22783655.7204
     -1771.3234
  21008649.80547  16357980.29743  24214632.4854   24214630.0564
     -3879.4264
  -1533759.41847  -1191024.44143  25061227.0954   25061223.6034
      1630.4674
  -6187544.95349  -4811581.47747  22062589.2824   22062586.5174
      -779.0584
 04  9  2 16 46 45.0050000  0  6G 1G20G11G14G23G25
  -7776234.91448  -6059381.52346  22457292.9544   22457290.8604
       150.6654
  -5391370.05548  -4197022.74644  23825959.4074   23825956.8454
      1557.3434
   -864367.41449   -671861.59845  22788740.6104   22788737.6964
     -1780.4574
  21066862.82448  16403341.07443  24225710.5324   24225707.6854
     -3880.8684
  -1558178.13348  -1210051.98843  25056580.5174   25056576.8374
      1627.9144
  -6175723.39549  -4802369.86747  22064838.9464   22064836.3844
      -788.1044
 04  9  2 16 47  0.0050000  0  6G 1G20G11G14G23G25
  -7778419.14548  -6061083.51646  22456877.0404   22456875.1424
       145.6154
  -5414694.07849  -4215197.31244  23821520.9854   23821518.2124
      1554.9354
   -837522.23449   -650943.28145  22793848.9464   22793846.2204
     -1789.6794
  21125098.65647  16448719.62143  24236792.0014   24236790.0634
     -3882.3894
  -1582557.19947  -1229048.63743  25051941.0174   25051937.3564
      1625.2714
  -6163764.82849  -4793051.49647  22067114.3604   22067112.2244
      -797.2384
 04  9  2 16 47 15.0050000  0  6G 1G20G11G14G23G25
  -7780526.93048  -6062725.93746  22456476.0714   22456473.8604
       140.5194
  -5437981.07848  -4233343.03144  23817090.0244   23817086.8024
      1552.4674
   -810538.00848   -629916.62145  22798984.1344   22798981.1774
     -1798.9484
  21183357.89847  16494116.41443  24247878.2124   24247876.6614
     -3883.9494
  -1606895.82047  -1248013.77043  25047310.0094   25047306.0204
      1622.5754
  -6151668.38749  -4783625.70346  22069416.3134   22069413.9234
      -806.4294
 04  9  2 16 47 30.0050000  0  6G 1G20G11G14G23G25
  -7782560.94948  -6064310.89146  22456088.5174   22456086.8414
       135.6014
  -5461233.48048  -4251461.77744  23812665.2744   23812661.9274
      1550.1604
   -783417.63348   -608783.87145  22804144.9384   22804141.9274
     -1808.0254
  21241637.76647  16539529.27743  24258968.6424   24258966.4814
     -3885.3244
  -1631196.61347  -1266949.42643  25042685.4854   25042681.6264
      1620.0534
  -6139436.88748  -4774094.65646  22071743.7674   22071741.4354
      -815.4334
 04  9  2 16 47 45.0050000  0  6G 1G20G11G14G23G25
  -7784520.93748  -6065838.14846  22455715.7824   22455713.8884
       130.6664
  -5484450.66848  -4269553.09844  23808246.8684   23808244.6064
      1547.8134
   -756160.82448   -587544.80545  22809331.8214   22809328.7704
     -1817.1214
  21299938.50447  16584958.39843  24270062.8764   24270060.7474
     -3886.7164
  -1655459.15247  -1285855.27043  25038068.7434   25038064.4384
      1617.5034
  -6127069.95348  -4764458.08246  22074097.2354   22074094.8174
      -824.4624
 04  9  2 16 48  0.0050000  0  6G 1G20G11G14G23G25
  -7786407.23048  -6067307.98846  22455356.8604   22455354.2984
       125.7534
  -5507633.03948  -4287617.27044  23803835.8374   23803832.6774
      1545.4914
   -728768.19548   -566199.91445  22814544.6104   22814541.2554
     -1826.1754
  21358259.49647  16630403.32043  24281161.0634   24281158.9424
     -3888.0664
  -1679683.82847  -1304731.62943  25033458.8134   25033454.6854
      1614.9784
  -6114568.02048  -4754716.31646  22076476.4384   22076473.7474
      -833.4624
 04  9  2 16 48 15.0050000  0  6G 1G20G11G14G23G25
  -7788218.93048  -6068719.69946  22455012.0014   22455010.4504
       120.7804
  -5530779.26248  -4305653.27744  23799430.4384   23799428.0954
      1543.0824
   -701238.74648   -544748.39545  22819783.1344   22819780.1224
     -1835.2974
  21416601.64846  16675864.70343  24292263.4544   24292261.1924
     -3889.4774
  -1703869.57047  -1323577.64143  25028855.8134   25028851.8024
      1612.3834
  -6101930.09448  -4744868.57846  22078881.2514   22078878.7044
      -842.5284
 04  9  2 16 48 30.0050000  0  6G 1G20G11G14G23G25
  -7789957.14548  -6070074.15246  22454681.6964   22454679.1964
       115.8814
  -5553890.27348  -4323661.85544  23795032.6104   23795030.3064
      1540.7344
   -673573.66848   -523191.20745  22825047.8684   22825044.5874
     -1844.3394
  21474963.70346  16721341.60943  24303369.3064   24303366.5634
     -3890.8044
  -1728017.38348  -1342394.10242  25024261.1104   25024256.2864
      1609.8544
  -6089157.29748  -4734915.75446  22081311.8994   22081309.0634
      -851.5204
 04  9  2 16 48 45.0050000  0  6G 1G20G11G14G23G25
  -7791620.41448  -6071370.20346  22454364.8064   22454362.8604
       110.8854
  -5576964.44948  -4341641.70744  23790641.7124   23790639.2824
      1538.2784
   -645771.60549   -501527.26645  22830338.1184   22830335.2394
     -1853.4714
  21533347.05147  16766835.10543  24314478.8684   24314476.9784
     -3892.2234
  -1752125.73447  -1361179.82043  25019673.3924   25019668.7904
      1607.2234
  -6076248.05948  -4724856.59846  22083768.2434   22083765.6854
      -860.6164
 04  9  2 16 49  0.0050000  0  6G 1G20G11G14G23G25
  -7793210.30948  -6072609.08246  22454062.1964   22454060.1144
       105.9934
  -5600003.04748  -4359593.86344  23786258.1494   23786255.6344
      1535.9074
   -617834.15648   -479757.83245  22835654.7824   22835651.4074
     -1862.4974
  21591749.95347  16812343.84043  24325592.9704   24325590.8994
     -3893.5274
  -1776196.14147  -1379935.96143  25015092.6424   25015088.7824
      1604.6944
  -6063203.91849  -4714692.32846  22086250.7354   22086247.9504
      -869.6094
 04  9  2 16 49 15.0050000  0  6G 1G20G11G14G23G25
  -7794726.00448  -6073790.14546  22453773.7984   22453771.4854
       101.0464
  -5623005.07848  -4377517.51644  23781880.6574   23781877.9624
      1533.4694
   -589760.65648   -457882.38345  22840996.6814   22840994.1064
     -1871.5674
  21650173.19346  16857868.38343  24336710.9854   24336708.3644
     -3894.8834
  -1800227.75447  -1398661.89143  25010519.7824   25010515.6734
      1602.1084
  -6050024.14149  -4704422.37146  22088758.5094   22088756.2784
      -878.6524
 04  9  2 16 49 30.0050000  0  6G 1G20G11G14G23G25
  -7796166.70348  -6074912.76646  22453499.5794   22453497.7824
        96.0474
  -5645969.28148  -4395411.69544  23777510.4464   23777508.0174
      1530.9474
   -561550.35948   -435900.34845  22846365.2824   22846361.9464
     -1880.6864
  21708617.39147  16903409.32443  24347831.8374   24347829.8804
     -3896.2804
  -1824219.54748  -1417356.76243  25005954.3294   25005950.0994
      1599.4534
  -6036707.88349  -4694046.06247  22091292.6574   22091289.9114
      -887.7514
 04  9  2 16 49 45.0050000  0  6G 1G20G11G14G23G25
  -7797532.48449  -6075977.01646  22453240.0014   22453237.8414
        91.0524
  -5668895.66048  -4413276.39544  23773148.2984   23773145.6454
      1528.4254
   -533203.43048   -413811.83645  22851759.4464   22851756.1534
     -1889.7954
  21767082.50447  16948966.53143  24358957.3134   24358955.6224
     -3897.6744
  -1848171.43448  -1436020.55543  25001396.7744   25001392.1494
      1596.7924
  -6023255.10249  -4683563.36746  22093852.6034   22093849.8064
      -896.8524
 04  9  2 16 50  0.0050000  0  6G 1G20G11G14G23G25
  -7798823.62149  -6076983.09446  22452994.1964   22452991.8604
        86.0764
  -5691784.30148  -4431111.69944  23768792.6264   23768789.9034
      1525.9094
   -504720.23449   -391617.15245  22857179.5174   22857176.2634
     -1898.8804
  21825568.11746  16994539.71543  24370087.0794   24370084.6344
     -3899.0414
  -1872083.75848  -1454653.52043  24996846.4934   24996841.8374
      1594.1554
  -6009666.29349  -4672974.69146  22096438.1424   22096435.5954
      -905.9214
 04  9  2 16 50 15.0050000  0  6G 1G20G11G14G23G25
  -7800041.89149  -6077932.39146  22452762.4624   22452760.4854
        81.2184
  -5714636.71149  -4448918.75844  23764443.8134   23764441.0134
      1523.4944
   -476102.56249   -369317.67245  22862624.9234   22862622.0324
     -1907.8454
  21884072.29347  17040127.35943  24381220.1884   24381217.5094
     -3900.2784
  -1895958.11348  -1473256.90243  24992302.7984   24992298.5564
      1591.6244
  -5995943.07849  -4662281.26647  22099049.8684   22099047.2124
      -914.8814
 04  9  2 16 50 30.0050000  0  6G 1G20G11G14G23G25
  -7801184.99649  -6078823.12946  22452544.7744   22452543.1034
        76.2074
  -5737450.32448  -4466695.59444  23760103.0714   23760099.7864
      1520.9084
   -447348.32449   -346911.77745  22868096.8214   22868094.0174
     -1916.9494
  21942597.27047  17085731.21943  24392357.1734   24392354.5634
     -3901.6654
  -1919792.26248  -1491828.95343  24987767.3064   24987763.5794
      1588.9434
  -5982083.31649  -4651481.44546  22101687.4464   22101684.4154
      -923.9844
 04  9  2 16 50 45.0050000  0  6G 1G20G11G14G23G25
  -7802253.35249  -6079655.60546  22452341.5324   22452339.6814
        71.2244
  -5760225.32049  -4484442.32844  23755768.5014   23755766.1654
      1518.3334
   -418457.91849   -324399.79345  22873594.5954   22873591.5324
     -1926.0274
  22001142.51246  17131350.87943  24403497.9704   24403495.3414
     -3903.0164
  -1943586.52048  -1510369.92243  24983239.3214   24983235.5484
      1586.2844
  -5968087.30149  -4640575.44946  22104350.7594   22104347.9384
      -933.0684
 04  9  2 16 51  0.0050000  0  6G 1G20G11G14G23G25
  -7803246.70749  -6080429.64846  22452152.7514   22452150.2944
        66.2244
  -5782961.15248  -4502158.55944  23751442.1814   23751439.0754
      1515.7224
   -389431.13349   -301781.52045  22879118.1734   22879114.9114
     -1935.1194
  22059708.25847  17176986.49643  24414643.3844   24414640.2514
     -3904.3834
  -1967340.39548  -1528879.43042  24978719.4464   24978714.9074
      1583.5924
  -5953954.85549  -4629563.15246  22107040.3994   22107037.2354
      -942.1634
 04  9  2 16 51 15.0050000  0  6G 1G20G11G14G23G25
  -7804164.79348  -6081145.03546  22451977.4154   22451975.6454
        61.2064
  -5805657.51648  -4519844.02744  23747123.3844   23747120.8764
      1513.0914
   -360267.95349   -279056.97745  22884667.7744   22884664.2594
     -1944.2124
  22118294.47346  17222638.08243  24425790.9234   24425789.1264
     -3905.7484
  -1991053.59448  -1547357.23442  24974206.6884   24974202.3804
      1580.8804
  -5939685.67648  -4618444.30946  22109755.4234   22109752.5094
      -951.2794
 04  9  2 16 51 30.0050000  0  6G 1G20G11G14G23G25
  -7805006.65249  -6081801.03546  22451817.7824   22451815.5634
        56.1244
  -5828313.02348  -4537497.66844  23742812.3214   23742809.2634
      1510.3674
   -330967.23049   -256225.25445  22890243.5794   22890240.5754
     -1953.3824
  22176902.20747  17268306.42243  24436944.3604   24436941.4154
     -3907.1824
  -2014725.22347  -1565802.64842  24969702.2514   24969698.0714
      1578.1094
  -5925278.75049  -4607218.12946  22112496.8534   22112494.2284
      -960.4624
 04  9  2 16 51 45.0050000  0  6G 1G20G11G14G23G25
  -7805774.24248  -6082399.14846  22451671.8604   22451669.5204
        51.1734
  -5850929.39848  -4555120.80944  23738508.2284   23738505.9504
      1507.7584
   -301531.21948   -233288.10545  22895845.1034   22895841.8804
     -1962.4014
  22235529.40246  17313989.93043  24448100.7044   24448097.6424
     -3908.4804
  -2038357.07846  -1584217.05142  24965205.1344   24965200.9464
      1575.4574
  -5910736.07849  -4595886.17246  22115264.3134   22115261.5634
      -969.5114
 04  9  2 16 52  0.0050000  0  6G 1G20G11G14G23G25
  -7806468.23448  -6082939.93046  22451539.4154   22451537.5874
        46.2664
  -5873507.15248  -4572713.86344  23734211.9384   23734209.2984
      1505.1844
   -271960.72348   -210246.17645  22901472.3214   22901469.2084
     -1971.3664
  22294175.31647  17359688.02743  24459260.3454   24459258.0284
     -3909.7284
  -2061949.62147  -1602600.84042  24960715.9934   24960711.4074
      1572.8364
  -5896058.32449  -4584448.95747  22118057.4704   22118054.6454
      -978.5174
 04  9  2 16 52 15.0050000  0  6G 1G20G11G14G23G25
  -7807088.40648  -6083423.16846  22451421.4234   22451419.7514
        41.3454
  -5896045.82449  -4590276.44944  23729922.7744   23729920.3134
      1502.5784
   -242255.53149   -187099.28145  22907124.7674   22907122.0714
     -1980.3464
  22352839.87947  17405400.66443  24470423.9544   24470421.4384
     -3910.9714
  -2085502.64847  -1620953.84042  24956233.5634   24956228.8954
      1570.2024
  -5881245.20749  -4572906.27047  22120876.2984   22120873.2944
      -987.5414
 04  9  2 16 52 30.0050000  0  6G 1G20G11G14G23G25
  -7807634.53549  -6083848.72746  22451317.5244   22451315.5324
        36.4094
  -5918544.99649  -4607808.26644  23725641.3294   23725638.7554
      1499.9454
   -212415.50449   -163847.32445  22912803.5174   22912800.4664
     -1989.3354
  22411523.29747  17451127.98043  24481590.9384   24481588.8454
     -3912.2284
  -2109015.83247  -1639275.78542  24951758.8134   24951754.6854
      1567.5464
  -5866296.53949  -4561257.94946  22123720.8134   22123718.4894
      -996.5784
 04  9  2 16 52 45.0050000  0  6G 1G20G11G14G23G25
  -7808106.70348  -6084216.64846  22451227.5484   22451225.7394
        31.4784
  -5941004.40249  -4625309.08644  23721367.3684   23721364.4814
      1497.2944
   -182440.91448   -140490.50845  22918507.2824   22918504.4544
     -1998.3064
  22470225.41447  17496869.86343  24492761.4314   24492759.1144
     -3913.4744
  -2132489.11747  -1657566.65642  24947292.6034   24947287.9314
      1564.8864
  -5851212.38749  -4549504.05946  22126591.3214   22126588.7244
     -1005.6104
 04  9  2 16 53  0.0050000  0  6G 1G20G11G14G23G25
  -7808504.74248  -6084526.79746  22451151.6814   22451149.8254
        26.5364
  -5963423.68048  -4642778.65244  23717101.0324   23717098.4464
      1494.6184
   -152331.58648   -117028.70745  22924236.8684   22924233.7594
     -2007.2894
  22528946.45347  17542626.48843  24503935.7124   24503933.7514
     -3914.7364
  -2155922.28948  -1675826.25442  24942833.4464   24942829.1104
      1562.2114
  -5835992.60248  -4537644.48446  22129487.4234   22129484.9314
     -1014.6524
 04  9  2 16 53 15.0050000  0  6G 1G20G11G14G23G25
  -7808828.17648  -6084778.82446  22451090.2904   22451088.4934
        21.5624
  -5985802.12149  -4660216.40244  23712842.7434   23712839.7164
      1491.8964
   -122087.14548    -93461.62145  22929992.2594   22929989.0564
     -2016.2964
  22587686.69947  17588398.09843  24515113.3844   24515111.7284
     -3916.0164
  -2179314.74647  -1694054.13342  24938381.7124   24938377.2984
      1559.4974
  -5820636.70748  -4525678.84447  22132409.5404   22132407.0284
     -1023.7264
 04  9  2 16 53 30.0050000  0  6G 1G20G11G14G23G25
  -7809078.10549  -6084973.57846  22451042.7824   22451040.9814
        16.6624
  -6008140.54348  -4677622.96144  23708591.7124   23708588.9234
      1489.2284
    -91708.81649    -69790.20745  22935772.9854   22935769.7044
     -2025.2224
  22646444.97347  17634183.74243  24526295.1104   24526292.7904
     -3917.2184
  -2202667.57847  -1712251.12942  24933938.3374   24933933.6344
      1556.8554
  -5805145.81249  -4513608.01647  22135357.6104   22135354.6964
     -1032.7264
 04  9  2 16 53 45.0050000  0  6G 1G20G11G14G23G25
  -7809254.95348  -6085111.37946  22451008.9784   22451006.9814
        11.7904
  -6030439.04748  -4694998.41044  23704348.9074   23704346.1344
      1486.5674
    -61197.00048    -46014.77745  22941579.1884   22941576.2704
     -2034.1214
  22705220.87147  17679983.12143  24537479.9464   24537477.6224
     -3918.3934
  -2225981.03947  -1730417.45743  24929501.8294   24929497.1534
      1554.2314
  -5789520.27049  -4501432.27047  22138331.0324   22138328.2044
     -1041.7034
 04  9  2 16 54  0.0050000  0  6G 1G20G11G14G23G25
  -7809357.17648  -6085191.03146  22450989.6574   22450987.6574
         6.8154
  -6052695.88748  -4712341.40244  23700113.4704   23700110.7784
      1483.7894
    -30550.39848    -22134.31645  22947411.1814   22947408.2554
     -2043.1074
  22764015.66047  17725797.22343  24548668.3064   24548665.7944
     -3919.6534
  -2249253.48847  -1748551.82843  24925072.9544   24925068.3374
      1551.4974
  -5773758.57048  -4489150.41847  22141330.2204   22141327.7084
     -1050.7804
 04  9  2 16 54 15.0050000  0  6G 1G20G11G14G23G25
  -7809383.80148  -6085211.77746  22450984.5324   22450982.7904
         1.7754
  -6074909.86349  -4729650.98844  23695885.7744   23695883.7674
      1480.9324
       232.06648      1852.00445  22953268.7434   22953265.6224
     -2052.1644
  22822830.34847  17771626.82843  24559860.1264   24559857.8454
     -3920.9794
  -2272483.86348  -1766653.40243  24920652.2744   24920648.2124
      1548.6924
  -5757859.78149  -4476761.74647  22144355.6034   22144352.8254
     -1059.9194
 04  9  2 16 54 30.0050000  0  6G 1G20G11G14G23G25
  -7809337.25849  -6085175.51246  22450993.7284   22450991.1574
        -3.1034
  -6097083.14548  -4746928.86344  23691666.5174   23691664.1034
      1478.2194
     31147.64848     25942.06345  22959151.6494   22959148.9074
     -2061.0394
  22881662.33647  17817469.92243  24571055.4464   24571053.4504
     -3922.1334
  -2295674.52747  -1784724.03943  24916239.1494   24916234.8724
      1546.0444
  -5741826.38749  -4464268.19547  22147406.7514   22147404.0364
     -1068.8934
 04  9  2 16 54 45.0050000  0  6G 1G20G11G14G23G25
  -7809218.22748  -6085082.75446  22451016.4784   22451013.9584
        -7.9354
  -6119216.16849  -4764175.37144  23687454.8134   23687452.4854
      1475.5354
     62195.53148     50135.20345  22965060.1184   22965057.2204
     -2069.8594
  22940510.92648  17863325.92643  24582254.0564   24582251.8844
     -3923.2394
  -2318826.13748  -1802764.25043  24911833.5794   24911829.1814
      1543.4414
  -5725658.96549  -4451670.20347  22150483.0634   22150480.5994
     -1077.8284
 04  9  2 16 55  0.0050000  0  6G 1G20G11G14G23G25
  -7809025.08249  -6084932.24646  22451052.7284   22451051.0954
       -12.8764
  -6141307.09448  -4781389.08244  23683251.3214   23683248.8954
      1472.7284
     93377.36749     74432.73045  22970993.9154   22970990.8684
     -2078.7894
  22999377.55547  17909196.01643  24593456.2674   24593454.1064
     -3924.4424
  -2341936.91048  -1820772.63743  24907435.8764   24907431.6224
      1540.7184
  -5709355.97349  -4438966.57447  22153585.5634   22153582.9314
     -1086.8664
 04  9  2 16 55 15.0050000  0  6G 1G20G11G14G23G25
  -7808758.59049  -6084724.59046  22451103.5564   22451101.5794
       -17.7664
  -6163356.43749  -4798570.37544  23679055.3374   23679052.9624
      1469.9564
    124692.28949     98833.95345  22976952.8454   22976950.0524
     -2087.6614
  23058261.53548  17955079.60943  24604661.3604   24604659.1814
     -3925.5994
  -2365007.55948  -1838749.75843  24903045.1104   24903041.7554
      1538.0434
  -5692918.12149  -4426157.84847  22156713.4784   22156711.1264
     -1095.8574
 04  9  2 16 55 30.0050000  0  6G 1G20G11G14G23G25
  -7808418.80949  -6084459.82046  22451168.2744   22451166.4384
       -22.6524
  -6185363.93749  -4815719.07044  23674867.3374   23674864.8534
      1467.1674
    156140.12548    123338.75445  22982937.3374   22982934.1854
     -2096.5224
  23117162.64147  18000976.56343  24615869.3604   24615868.0484
     -3926.7404
  -2388037.98448  -1856695.52043  24898662.8534   24898658.8844
      1535.3624
  -5676345.48449  -4413244.10546  22159867.4624   22159864.3414
     -1104.8424
 04  9  2 16 55 45.0050000  0  6G 1G20G11G14G23G25
  -7808006.19549  -6084138.30146  22451246.7124   22451244.7634
       -27.5084
  -6207329.85249  -4832835.36344  23670687.2904   23670684.8254
      1464.3944
    187720.23849    147946.62145  22988946.7434   22988943.3454
     -2105.3414
  23176080.27348  18046886.38743  24627081.5714   24627079.3174
     -3927.8424
  -2411028.61748  -1874610.28143  24894287.9704   24894284.0094
      1532.7094
  -5659638.54349  -4400225.70747  22163046.3604   22163043.8294
     -1113.7964
 04  9  2 16 56  0.0050000  0  6G 1G20G11G14G23G25
  -7807520.18049  -6083759.58646  22451339.4074   22451337.0204
       -32.4014
  -6229253.30548  -4849918.57044  23666515.6574   23666512.9504
      1461.5644
    219433.19949    172658.01245  22994981.3684   22994978.5324
     -2114.1974
  23235015.03548  18092809.55143  24638296.8684   24638294.3604
     -3928.9844
  -2433978.75848  -1892493.48843  24889920.7514   24889917.1104
      1530.0094
  -5642796.89849  -4387102.34447  22166251.1964   22166248.3954
     -1122.7764
 04  9  2 16 56 15.0050000  0  6G 1G20G11G14G23G25
  -7806960.18749  -6083323.23046  22451445.7354   22451443.5604
       -37.3334
  -6251133.43748  -4866968.02344  23662351.9704   23662349.1344
      1458.6764
    251279.37148    197473.20345  23001041.6104   23001038.6144
     -2123.0784
  23293967.37948  18138746.41843  24649514.8764   24649512.5364
     -3930.1564
  -2456887.84447  -1910344.69143  24885561.3684   24885557.0324
      1527.2724
  -5625819.98849  -4373873.58246  22169481.9154   22169479.1854
     -1131.7944
 04  9  2 16 56 30.0050000  0  6G 1G20G11G14G23G25
  -7806326.81649  -6082829.69146  22451566.4074   22451564.3844
       -42.2254
  -6272970.75048  -4883984.10244  23658196.5484   23658193.5244
      1455.8214
    283258.12149    222391.69545  23007126.9384   23007124.0094
     -2131.9174
  23352936.66048  18184696.49243  24660735.7744   24660733.8254
     -3931.2854
  -2479756.23047  -1928164.20343  24881209.9854   24881205.3644
      1524.5594
  -5608708.30949  -4360539.80946  22172738.2594   22172735.6694
     -1140.7794
 04  9  2 16 56 45.0050000  0  6G 1G20G11G14G23G25
  -7805620.14549  -6082279.03946  22451700.8374   22451698.4544
       -47.1114
  -6294764.95348  -4900966.59444  23654048.8844   23654046.3844
      1452.9474
    315369.21549    247413.31345  23013237.3924   23013234.3134
     -2140.7404
  23411922.64548  18230659.57443  24671960.8994   24671958.3954
     -3932.3994
  -2502583.97347  -1945952.03943  24876866.0564   24876861.3454
      1521.8494
  -5591461.87949  -4347101.03146  22176019.9784   22176017.5014
     -1149.7624
 04  9  2 16 57  0.0050000  0  6G 1G20G11G14G23G25
  -7804840.18449  -6081671.27346  22451849.6104   22451847.2084
       -51.9974
  -6316515.76648  -4917915.27744  23649909.9234   23649906.9074
      1450.0544
    347612.60949    272538.02045  23019373.2514   23019370.2244
     -2149.5604
  23470925.28948  18276635.63743  24683188.3064   24683186.2474
     -3933.5104
  -2525370.91447  -1963708.08243  24872529.4464   24872525.3804
      1519.1294
  -5574080.71549  -4333557.27046  22179327.4704   22179324.7044
     -1158.7444
 04  9  2 16 57 15.0050000  0  6G 1G20G11G14G23G25
  -7803987.90649  -6081007.15646  22452011.5954   22452009.0954
       -56.8184
  -6338224.02049  -4934830.79344  23645779.0484   23645776.0404
      1447.2174
    379987.16449    297764.93845  23025534.2204   23025530.9354
     -2158.3044
  23529943.50848  18322623.84843  24694419.4544   24694417.0484
     -3934.5484
  -2548118.03147  -1981433.08243  24868200.6034   24868196.5714
      1516.4744
  -5556565.88749  -4319909.34847  22182660.6814   22182658.0444
     -1167.6554
 04  9  2 16 57 30.0050000  0  6G 1G20G11G14G23G25
  -7803062.03949  -6080285.69946  22452187.5794   22452185.4664
       -61.7244
  -6359888.09449  -4951711.88344  23641656.6494   23641653.7394
      1444.2724
    412494.22749    323095.10545  23031719.7434   23031717.0794
     -2167.1374
  23588978.57848  18368625.18843  24705653.4464   24705651.0604
     -3935.6714
  -2570823.97347  -1999125.99643  24863879.9234   24863875.8564
      1513.7294
  -5538916.24249  -4306156.37147  22186019.1264   22186016.7204
     -1176.6434
 04  9  2 16 57 45.0050000  0  6G 1G20G11G14G23G25
  -7802062.52049  -6079506.85546  22452377.8534   22452375.9894
       -66.6354
  -6381507.65249  -4968558.28944  23637542.7744   23637539.8294
      1441.3044
    445133.43449    348528.23845  23037931.0174   23037927.7434
     -2175.9474
  23648030.40648  18414639.58642  24716890.3534   24716888.6494
     -3936.7894
  -2593488.63748  -2016786.75443  24859566.0634   24859563.3374
      1510.9784
  -5521131.67249  -4292298.27047  22189403.5174   22189400.5914
     -1185.6384
 04  9  2 16 58  0.0050000  0  6G 1G20G11G14G23G25
  -7800990.10249  -6078671.19946  22452581.8214   22452580.0364
       -71.4954
  -6403083.21549  -4985370.41444  23633436.7514   23633434.2204
      1438.3714
    477903.98449    374063.72745  23044166.8454   23044164.0604
     -2184.7034
  23707098.28548  18460666.47342  24728130.6814   24728128.5404
     -3937.8594
  -2616112.56648  -2034415.76243  24855262.2204   24855257.8214
      1508.2624
  -5503212.79349  -4278335.50446  22192813.1034   22192810.6104
     -1194.5924
 04  9  2 16 58 15.0050000  0  6G 1G20G11G14G23G25
  -7799843.77749  -6077777.96146  22452799.8604   22452798.0634
       -76.4224
  -6424613.55549  -5002147.29744  23629339.8604   23629336.9114
      1435.3564
    510806.80949    399702.27345  23050428.1964   23050425.3724
     -2193.5224
  23766182.93847  18506706.44943  24739374.0094   24739372.0714
     -3938.9774
  -2638694.76247  -2052012.24643  24850964.6884   24850960.2634
      1505.4804
  -5485158.74649  -4264267.41446  22196248.8214   22196246.1104
     -1203.6034
 04  9  2 16 58 30.0050000  0  6G 1G20G11G14G23G25
  -7798623.30149  -6076826.93746  22453032.1964   22453030.2124
       -81.3654
  -6446098.16448  -5018888.54744  23625251.6344   23625248.7634
      1432.3074
    543842.06349    425444.01645  23056714.4234   23056711.5484
     -2202.3504
  23825284.69547  18552759.73042  24750621.1654   24750619.1614
     -3940.1174
  -2661234.77746  -2069575.87943  24846674.9624   24846671.2004
      1502.6684
  -5466969.36349  -4250093.86746  22199710.3064   22199707.3924
     -1212.6264
 04  9  2 16 58 45.0050000  0  6G 1G20G11G14G23G25
  -7797330.67649  -6075819.69546  22453278.2354   22453276.2244
       -86.1754
  -6467538.70349  -5035595.44944  23621171.3764   23621168.4274
      1429.3694
    577007.75849    451287.39545  23063025.6104   23063023.0874
     -2211.0464
  23884401.38747  18598824.67642  24761870.3924   24761868.5444
     -3941.1134
  -2683734.69147  -2087108.22743  24842393.3294   24842389.2634
      1499.9944
  -5448646.59849  -4235816.39147  22203196.8214   22203194.5134
     -1221.5184
 04  9  2 16 59  0.0050000  0  6G 1G20G11G14G23G25
  -7795966.59849  -6074756.77046  22453537.9234   22453535.6694
       -90.9394
  -6488935.59049  -5052268.34044  23617099.7514   23617097.1614
      1426.4594
    610302.94148    477231.68045  23069361.7284   23069358.8454
     -2219.6794
  23943532.41447  18644900.78143  24773122.9314   24773120.6694
     -3942.0684
  -2706195.00847  -2104609.76243  24838119.3844   24838115.6734
      1497.3544
  -5430191.26649  -4221435.61346  22206708.8764   22206706.0794
     -1230.3554
 04  9  2 16 59 15.0050000  0  6G 1G20G11G14G23G25
  -7794528.84449  -6073636.44146  22453811.3924   22453809.4424
       -95.8504
  -6510286.37549  -5068905.30944  23613036.5954   23613033.9274
      1423.3864
    643729.69949    503278.49645  23075722.1344   23075719.9424
     -2228.4514
  24002679.74247  18690989.58643  24784377.9314   24784376.1144
     -3943.1554
  -2728613.33647  -2122078.57043  24833852.7514   24833849.7244
      1494.5554
  -5411601.26249  -4206949.89847  22210246.0564   22210243.2164
     -1239.3344
 04  9  2 16 59 30.0050000  0  6G 1G20G11G14G23G25
  -7793016.41049  -6072457.91446  22454099.1964   22454096.9194
      -100.8294
  -6531589.82449  -5085505.38744  23608982.9544   23608980.1104
      1420.2304
    677289.10549    529428.66445  23082108.8134   23082105.7554
     -2237.2944
  24061844.43847  18737091.93042  24795637.1344   24795634.6774
     -3944.3134
  -2750988.60548  -2139513.81643  24829595.1344   24829591.3214
      1491.6854
  -5392875.44149  -4192358.34847  22213809.7824   22213807.2944
     -1248.3884
 04  9  2 16 59 45.0050000  0  6G 1G20G11G14G23G25
  -7791430.80149  -6071222.37946  22454400.9314   22454399.3024
      -105.7074
  -6552847.11349  -5102069.50844  23604937.9624   23604934.5604
      1417.1534
    710979.43049    555680.85545  23088519.5094   23088517.0914
     -2246.0224
  24121024.95348  18783206.58643  24806898.4624   24806896.5244
     -3945.3684
  -2773322.22748  -2156916.62143  24825345.3064   24825341.4584
      1488.9084
  -5374015.26249  -4177662.09847  22217399.0794   22217396.1064
     -1257.3454
 04  9  2 17  0  0.0050000  0  6G 1G20G11G14G23G25
  -7789772.75049  -6069930.38746  22454716.2824   22454714.3924
      -110.5374
  -6574058.82849  -5118598.09444  23600901.0874   23600898.4074
      1414.1144
    744799.69149    582034.28945  23094955.7514   23094952.7354
     -2254.6844
  24180220.36347  18829332.86343  24818162.6184   24818161.0604
     -3946.3614
  -2795614.75848  -2174287.41443  24821103.4314   24821099.0134
      1486.1694
  -5355021.58249  -4162861.83646  22221013.1104   22221010.2164
     -1266.2454
 04  9  2 17  0 15.0050000  0  6G 1G20G11G14G23G25
  -7788039.75449  -6068579.99246  22455046.2124   22455044.0714
      -115.5334
  -6595222.10248  -5135088.95344  23596874.1574   23596870.9584
      1410.8854
    778752.32849    608490.87545  23101416.6344   23101413.7904
     -2263.5094
  24239433.18847  18875472.69142  24829431.4384   24829428.9584
     -3947.5224
  -2817863.71147  -2191624.25043  24816869.1574   24816865.2084
      1483.2644
  -5335891.91049  -4147955.60247  22224653.4464   22224650.2824
     -1275.3114
 04  9  2 17  0 30.0050000  0  6G 1G20G11G14G23G25
  -7786231.73849  -6067171.15246  22455390.2284   22455388.4114
      -120.5344
  -6616336.55149  -5151541.77044  23592856.0564   23592853.0204
      1407.6304
    812837.25449    635050.54745  23107902.8214   23107899.9274
     -2272.3284
  24298663.34447  18921626.03143  24840702.1884   24840700.2514
     -3948.6774
  -2840069.04747  -2208927.09043  24812643.9624   24812639.4504
      1480.3564
  -5316626.19149  -4132943.35246  22228319.4854   22228316.5404
     -1284.3814
 04  9  2 17  0 45.0050000  0  6G 1G20G11G14G23G25
  -7784349.78149  -6065704.68746  22455748.3924   22455746.4894
      -125.4644
  -6637403.13349  -5167957.28144  23588847.2124   23588844.4744
      1404.4394
    847053.30549    661712.39145  23114414.1574   23114411.0014
     -2281.0704
  24357909.72747  18967792.02043  24851976.4154   24851974.7824
     -3949.7594
  -2862231.62948  -2226196.61743  24808426.7824   24808422.0954
      1477.5054
  -5297225.54749  -4117825.97747  22232011.2284   22232008.6854
     -1293.3764
 04  9  2 17  1  0.0050000  0  6G 1G20G11G14G23G25
  -7782393.92249  -6064180.64546  22456120.5484   22456118.7594
      -130.3914
  -6658421.59049  -5184335.30144  23584847.7434   23584844.2164
      1401.2304
    881400.27349    688476.24645  23120949.9624   23120946.6964
     -2289.7984
  24417172.16047  19013970.52742  24863253.3214   24863251.8134
     -3950.8294
  -2884351.46948  -2243432.85943  24804217.5324   24804212.7284
      1474.6564
  -5277690.19949  -4102603.62146  22235728.8994   22235726.0634
     -1302.3574
 04  9  2 17  1 15.0050000  0  6G 1G20G11G14G23G25
  -7780363.55949  -6062598.53146  22456506.6884   22456504.7204
      -135.3584
  -6679391.09848  -5200675.17244  23580857.2284   23580854.5174
      1397.9674
    915878.71549    715342.54745  23127511.0794   23127507.9544
     -2298.5634
  24476451.18847  19060161.94143  24874534.3534   24874532.7354
     -3951.9354
  -2906427.88747  -2260635.24643  24800016.1734   24800011.9074
      1471.7614
  -5258019.44149  -4087275.75846  22239472.0794   22239469.6224
     -1311.3844
 04  9  2 17  1 30.0050000  0  6G 1G20G11G14G23G25
  -7778260.49249  -6060959.77346  22456907.1494   22456905.0174
      -140.2044
  -6700313.16048  -5216978.06644  23576875.5484   23576873.2044
      1394.8044
    950486.65249    742309.76245  23134096.8214   23134093.6384
     -2307.1964
  24535744.99247  19106364.87543  24885817.5174   24885815.4814
     -3952.9204
  -2928462.57047  -2277805.11743  24795823.2984   24795818.9584
      1468.9794
  -5238215.20749  -4071843.90246  22243240.4934   22243238.2244
     -1320.2824
 04  9  2 17  1 45.0050000  0  6G 1G20G11G14G23G25
  -7776084.20349  -6059263.96546  22457321.1964   22457319.2784
      -145.0864
  -6721186.96549  -5233243.35944  23572903.4934   23572901.2084
      1391.5874
    985224.46949    769378.17245  23140706.8844   23140703.9274
     -2315.8544
  24595054.23048  19152579.85243  24897103.0794   24897101.5754
     -3953.9494
  -2950454.79348  -2294941.89543  24791637.6264   24791633.9074
      1466.1484
  -5218276.89549  -4056307.55147  22247034.6574   22247032.2634
     -1329.2214
 04  9  2 17  2  0.0050000  0  6G 1G20G11G14G23G25
  -7773834.42649  -6057510.88346  22457749.3684   22457747.4154
      -149.9854
  -6742011.90648  -5249470.57444  23568940.7984   23568937.7394
      1388.3294
   1020092.18049    796547.80145  23147342.1494   23147338.9704
     -2324.5144
  24654378.94947  19198806.87143  24908392.9384   24908390.9814
     -3954.9814
  -2972404.34447  -2312045.43443  24787460.9704   24787456.9934
      1463.3034
  -5198204.29349  -4040666.56247  22250854.3844   22250851.6454
     -1338.1734
 04  9  2 17  2 15.0050000  0  6G 1G20G11G14G23G25
  -7771511.18049  -6055700.56246  22458191.4544   22458189.4584
      -154.8834
  -6762787.84449  -5265659.60544  23564987.0094   23564984.6814
      1385.0634
   1055089.64849    823818.54345  23154001.6814   23153998.4744
     -2333.1654
  24713719.01248  19245045.86343  24919684.6264   24919682.7554
     -3956.0044
  -2994311.09448  -2329115.59843  24783292.4934   24783288.5714
      1460.4504
  -5177997.46149  -4024920.98447  22254699.5564   22254697.1694
     -1347.1224
 04  9  2 17  2 30.0050000  0  6G 1G20G11G14G23G25
  -7769113.94949  -6053832.58646  22458647.3604   22458645.5284
      -159.8154
  -6783513.89849  -5281809.77344  23561042.9074   23561040.3844
      1381.7374
   1090217.41848    851190.82045  23160686.6034   23160683.6344
     -2341.8514
  24773074.83647  19291297.13743  24930980.3604   24930978.0714
     -3957.0554
  -3016174.37148  -2346151.90643  24779131.8064   24779127.9354
      1457.5524
  -5157655.99649  -4009070.49247  22258570.6424   22258567.9074
     -1356.0984
 04  9  2 17  2 45.0050000  0  6G 1G20G11G14G23G25
  -7766644.27049  -6051908.15646  22459117.7984   22459115.6654
      -164.6454
  -6804191.40248  -5297922.10544  23557108.1884   23557105.6694
      1378.5004
   1125473.78549    878663.29745  23167395.7824   23167392.5244
     -2350.4244
  24832444.84447  19337559.45343  24942277.3374   24942276.0954
     -3958.0014
  -3037995.82047  -2363155.60243  24774979.4384   24774975.5914
      1454.7634
  -5137181.53149  -3993116.37547  22262466.8924   22262463.9894
     -1364.9644
 04  9  2 17  3  0.0050000  0  6G 1G20G11G14G23G25
  -7764101.50049  -6049926.77346  22459601.4704   22459599.1964
      -169.5184
  -6824819.48449  -5313995.91844  23553183.0014   23553180.2824
      1375.2054
   1160859.36349    906236.45745  23174129.2594   23174126.2164
     -2359.0394
  24891829.62147  19383833.26642  24953578.0564   24953576.3954
     -3958.9854
  -3059774.53548  -2380126.02043  24770835.2124   24770831.5604
      1451.9144
  -5116573.40249  -3977058.09446  22266388.5014   22266385.8764
     -1373.8754
 04  9  2 17  3 15.0050000  0  6G 1G20G11G14G23G25
  -7761487.36349  -6047889.78146  22460099.2434   22460096.9274
      -174.2764
  -6845399.53949  -5330032.32845  23549266.8534   23549263.7004
      1372.0044
   1196372.20749    933908.79345  23180887.1654   23180884.2284
     -2367.5234
  24951227.30947  19430117.14842  24964881.5244   24964879.6924
     -3959.8464
  -3081512.22748  -2397064.45743  24766698.7744   24766694.4274
      1449.1794
  -5095833.32049  -3960896.99646  22270334.8924   22270332.4234
     -1382.6724
 04  9  2 17  3 30.0050000  0  6G 1G20G11G14G23G25
  -7758800.65249  -6045796.23846  22460609.9784   22460608.0714
      -179.1144
  -6865930.11749  -5346030.17245  23545359.7904   23545357.0754
      1368.7054
   1232013.27349    961681.04345  23187669.0634   23187666.3414
     -2376.0714
  25010639.18847  19476412.10242  24976186.6104   24976184.7004
     -3960.7924
  -3103207.62947  -2413969.96543  24762569.9464   24762565.7824
      1446.3604
  -5074960.19549  -3944632.22747  22274307.1424   22274304.4504
     -1391.5424
 04  9  2 17  3 45.0050000  0  6G 1G20G11G14G23G25
  -7756042.18449  -6043646.77746  22461135.0404   22461133.2594
      -183.8984
  -6886411.65649  -5361989.80544  23541462.0564   23541459.7474
      1365.4364
   1267781.77749    989552.59045  23194475.5484   23194472.6854
     -2384.5674
  25070064.41047  19522717.44943  24987495.5564   24987492.7674
     -3961.6824
  -3124861.39548  -2430843.00443  24758449.5174   24758445.7314
      1443.5844
  -5053954.91049  -3928264.47346  22278304.3994   22278301.6854
     -1400.3524
 04  9  2 17  4  0.0050000  0  6G 1G20G11G14G23G25
  -7753210.22749  -6041440.05546  22461674.1264   22461671.8804
      -188.7974
  -6906842.27749  -5377909.77044  23537574.7594   23537571.6264
      1362.0414
   1303679.04349   1017524.46945  23201306.6184   23201304.0244
     -2393.1514
  25129504.55947  19569034.42642  24998806.4314   24998804.4664
     -3962.6774
  -3146471.74648  -2447682.22743  24754337.6574   24754333.2044
      1440.6904
  -5032815.79349  -3911792.44147  22282326.7744   22282324.0404
     -1409.2744
 04  9  2 17  4 15.0050000  0  6G 1G20G11G14G23G25
  -7750305.93049  -6039176.96546  22462226.7744   22462224.5174
      -193.6204
  -6927222.74249  -5393790.64545  23533696.3064   23533693.7864
      1358.6984
   1339703.91449   1045595.77345  23208162.0634   23208159.5054
     -2401.6584
  25188958.36747  19615362.04342  25010119.9234   25010118.0444
     -3963.5874
  -3168039.76648  -2464488.47343  24750233.2594   24750228.8604
      1437.8684
  -5011543.84849  -3895216.90647  22286374.5094   22286372.1734
     -1418.1304
 04  9  2 17  4 30.0050000  0  6G 1G20G11G14G23G25
  -7747328.88349  -6036857.18746  22462793.0324   22462791.2354
      -198.4704
  -6947552.41049  -5409631.93045  23529827.6654   23529824.9464
      1355.3114
   1375856.74648   1073766.80145  23215041.8064   23215038.7944
     -2410.1894
  25248426.43047  19661700.76242  25021436.3844   25021434.4274
     -3964.5374
  -3189564.82448  -2481261.23843  24746136.2124   24746132.7864
      1435.0044
  -4990138.89849  -3878537.72347  22290448.0174   22290445.5054
     -1426.9974
 04  9  2 17  4 45.0050000  0  6G 1G20G11G14G23G25
  -7744278.76649  -6034480.46146  22463373.6184   22463371.3844
      -203.3414
  -6967830.70348  -5425433.19545  23525968.6034   23525965.8884
      1351.8864
   1412137.64149   1102037.60945  23221946.1574   23221943.1454
     -2418.7264
  25307908.88747  19708050.70342  25032755.8064   25032753.6694
     -3965.4974
  -3211046.62147  -2498000.27343  24742049.1964   24742045.0874
      1432.1204
  -4968600.64149  -3861754.66847  22294546.6034   22294544.2434
     -1435.8844
 04  9  2 17  5  0.0050000  0  6G 1G20G11G14G23G25
  -7741156.82449  -6032047.77746  22463967.5954   22463965.3644
      -208.1294
  -6988058.60948  -5441195.18745  23522119.7514   23522116.7124
      1348.5274
   1448545.22748   1130407.14545  23228874.1184   23228870.9074
     -2427.1724
  25367404.39147  19754410.80942  25044076.3294   25044075.2004
     -3966.3674
  -3232486.29747  -2514706.50443  24737968.9704   24737965.1424
      1429.3124
  -4946930.31249  -3844868.70347  22298670.3454   22298667.7944
     -1444.6894
 04  9  2 17  5 15.0050000  0  6G 1G20G11G14G23G25
  -7737962.13749  -6029558.41446  22464575.6574   22464573.3254
      -212.9794
  -7008234.94949  -5456917.00045  23518280.1574   23518277.4894
      1345.0894
   1485080.28548   1158876.00445  23235826.3924   23235823.3294
     -2435.6714
  25426913.82047  19800781.76642  25055401.6104   25055399.3844
     -3967.2954
  -3253882.82447  -2531379.10943  24733897.5634   24733893.7634
      1426.4354
  -4925127.09049  -3827879.18447  22302819.2514   22302816.8064
     -1453.5484
 04  9  2 17  5 30.0050000  0  6G 1G20G11G14G23G25
  -7734694.34449  -6027012.07846  22465197.6104   22465195.2554
      -217.8534
  -7028359.03549  -5472598.09845  23514450.7124   23514447.6534
      1341.6064
   1521743.09049   1187444.41045  23242803.4384   23242800.4744
     -2444.1874
  25486437.45747  19847163.80942  25066728.4624   25066726.2984
     -3968.2424
  -3275235.70748  -2548017.71143  24729834.6494   24729830.1694
      1423.5264
  -4903190.60949  -3810785.82846  22306993.7674   22306991.3064
     -1462.4324
 04  9  2 17  5 45.0050000  0  6G 1G20G11G14G23G25
  -7731352.55949  -6024408.08246  22465833.2594   22465831.6884
      -222.7864
  -7048429.61349  -5488237.50045  23510631.2594   23510628.4464
      1338.0394
   1558534.36349   1216112.92645  23249804.5324   23249801.4704
     -2452.7524
  25545976.02047  19893557.47742  25078058.5874   25078056.7824
     -3969.2374
  -3296544.02048  -2564621.58643  24725779.9854   24725775.2204
      1420.5544
  -4881119.96949  -3793587.93746  22311193.6574   22311191.2674
     -1471.3764
 04  9  2 17  6  0.0060000  0  6G 1G20G11G14G23G25
  -7727937.62949  -6021747.10246  22466483.0614   22466481.6704
      -227.6624
  -7068448.92649  -5503836.96145  23506821.9674   23506818.7094
      1334.6214
   1595455.30148   1244882.46945  23256829.9984   23256827.4754
     -2461.3964
  25605532.58247  19939965.16042  25089391.3814   25089389.4204
     -3970.4374
  -3317810.12548  -2581192.57043  24721732.6394   24721728.1194
      1417.7404
  -4858915.01249  -3776285.37546  22315419.0064   22315416.6584
     -1480.3304
 04  9  2 17  6 15.0060000  0  6G 1G20G11G14G23G25
  -7724450.81649  -6019030.09846  22467146.5064   22467144.6034
      -232.4544
  -7088414.80149  -5519394.77344  23503022.2794   23503019.3384
      1331.0584
   1632500.00049   1273748.46145  23263879.5614   23263876.6114
     -2469.6474
  25665098.16847  19986379.88342  25100726.1314   25100724.6824
     -3971.0394
  -3339031.92648  -2597729.03144  24717694.1704   24717690.1584
      1414.7874
  -4836579.52049  -3758881.10546  22319669.3504   22319667.0144
     -1489.0334
 04  9  2 17  6 30.0060000  0  6G 1G20G11G14G23G25
  -7720890.99249  -6016256.20346  22467824.0374   22467822.0184
      -237.3224
  -7108327.44949  -5534911.11745  23499233.2484   23499230.0454
      1327.5104
   1669671.71149   1302713.41445  23270953.1784   23270950.1354
     -2478.1144
  25724677.66447  20032805.44542  25112063.8184   25112062.0884
     -3971.9664
  -3360209.80148  -2614231.25444  24713664.3894   24713660.3114
      1411.8584
  -4814111.12149  -3741373.26647  22323945.0614   22323942.0374
     -1497.8934
 04  9  2 17  6 45.0060000  0  6G 1G20G11G14G23G25
  -7717258.47349  -6013425.66846  22468515.2874   22468513.4324
      -242.1684
  -7128186.94149  -5550386.03545  23495454.0844   23495450.6824
      1323.9664
   1706969.93849   1331776.95345  23278050.8734   23278047.8894
     -2486.5484
  25784270.75447  20079241.60542  25123404.3184   25123402.5414
     -3972.8734
  -3381344.10547  -2630699.55143  24709642.7014   24709638.2214
      1408.9544
  -4791510.12949  -3723762.10947  22328245.8184   22328243.1034
     -1506.7334
 04  9  2 17  7  0.0060000  0  6G 1G20G11G14G23G25
  -7713553.34849  -6010538.55146  22469220.1784   22469218.4124
      -247.0084
  -7147992.97749  -5565819.30544  23491685.1544   23491682.1004
      1320.4024
   1744394.46149   1360938.90245  23285172.6314   23285169.7444
     -2494.9684
  25843877.24247  20125688.18042  25134746.8344   25134745.5804
     -3973.7664
  -3402434.69947  -2647133.76243  24705629.5684   24705624.7444
      1406.0404
  -4768776.79749  -3706047.82847  22332571.6624   22332569.4714
     -1515.5554
 04  9  2 17  7 15.0060000  0  6G 1G20G11G14G23G25
  -7709775.57849  -6007594.83646  22469939.2404   22469937.5104
      -251.8514
  -7167745.24249  -5581210.67244  23487926.1544   23487922.9944
      1316.8184
   1781945.09449   1390199.12545  23292317.9594   23292315.1664
     -2503.3764
  25903497.13347  20172145.22742  25146092.2714   25146090.2714
     -3974.6594
  -3423481.38347  -2663533.76243  24701624.2014   24701619.4394
      1403.1124
  -4745911.20749  -3688230.49247  22336923.1624   22336920.4204
     -1524.3734
 04  9  2 17  7 30.0060000  0  6G 1G20G11G14G23G25
  -7705926.22749  -6004595.33646  22470671.5684   22470669.6744
      -256.6234
  -7187444.52749  -5596560.75844  23484177.5454   23484174.5334
      1313.2864
   1819620.68448   1419556.70345  23299487.7094   23299484.6824
     -2511.7064
  25963129.37947  20218611.89142  25157440.0924   25157438.1624
     -3975.4834
  -3444485.34847  -2679900.48043  24697627.1234   24697622.7684
      1400.2644
  -4722914.42249  -3670310.92647  22341299.2324   22341296.8074
     -1533.1194
